[[{"header":{"parameterUnit":"m.s-1","parameterCategory":1,"la1":31.0,"la2":29.5877,"lo1":-88.7671,"lo2":-86.6584,"dy":0.0162,"dx":0.0185,"nx":115,"ny":88,"refTime":"2023-03-07T18:00:00:Z","depth":0,"parameterNumber":2,"parameterNumberName":"U-component_of_WINDS"},"data":[0.0,0.0,0.0,0.0,0.0,0.0,0.0,0.0,0.0,0.0,0.0,0.0,0.0,0.0,0.0,0.0,0.0,0.0,0.0,0.0,0.0,0.0,0.0,0.0,0.0,0.0,0.0,0.0,0.0,0.0,0.0,0.0,0.0,0.0,0.0,0.0,0.0,0.0,0.0,0.0,0.0,0.0,0.0,0.0,0.0,0.0,0.0,0.0,0.0,0.0,0.0,0.0,0.0,0.0,0.0,0.0,0.0,0.0,0.0,0.0,0.0,0.0,0.0,0.0,0.0,0.0,0.0,0.0,0.0,0.0,0.0,0.0,0.0,0.0,0.0,0.0,0.0,0.0,0.0,0.0,0.0,0.0,0.0,0.0,0.0,0.0,0.0,0.0,0.0,0.0,0.0,0.0,0.0,0.0,0.0,0.0,0.0,0.0,0.0,0.0,0.0,0.0,0.0,0.0,0.0,0.0,0.0,0.0,0.0,0.0,0.0,0.0,0.0,0.0,0.0,0.0,0.0,0.0,0.0,0.0,0.0,0.0,0.0,0.0,0.0,0.0,0.0,0.0,0.0,0.0,0.0,0.0,0.0,0.0,0.0,0.0,0.0,0.0,0.0,0.0,0.0,0.0,0.0,0.0,0.0,0.0,0.0,0.0,0.0,0.0,0.0,0.0,0.0,0.0,0.0,0.0,0.0,0.0,0.0,0.0,0.0,0.0,0.0,0.0,0.0,0.0,0.0,0.0,0.0,0.0,0.0,0.0,0.0,0.0,0.0,0.0,0.0,0.0,0.0,0.0,0.0,0.0,0.0,0.0,0.0,0.0,0.0,0.0,0.0,0.0,0.0,0.0,0.0,0.0,0.0,0.0,0.0,0.0,0.0,0.0,0.0,0.0,0.0,0.0,0.0,0.0,0.0,0.0,0.0,0.0,0.0,0.0,0.0,0.0,0.0,0.0,0.0,0.0,0.0,0.0,0.0,0.0,0.0,0.0,0.0,0.0,0.0,0.0,0.0,0.0,0.0,0.0,0.0,0.0,0.0,0.0,0.0,0.0,0.0,0.0,0.0,0.0,0.0,0.0,0.0,0.0,0.0,0.0,0.0,0.0,0.0,0.0,0.0,0.0,0.0,0.0,0.0,0.0,0.0,0.0,0.0,0.0,0.0,0.0,0.0,0.0,0.0,0.0,0.0,0.0,0.0,0.0,0.0,0.0,0.0,0.0,0.0,0.0,0.0,0.0,0.0,0.0,0.0,0.0,0.0,0.0,0.0,0.0,0.0,0.0,0.0,0.0,0.0,0.0,0.0,0.0,0.0,0.0,0.0,0.0,0.0,0.0,0.0,0.0,0.0,0.0,0.0,0.0,0.0,0.0,0.0,0.0,0.0,0.0,0.0,0.0,0.0,0.0,0.0,0.0,0.0,0.0,0.0,0.0,0.0,0.0,0.0,0.0,0.0,0.0,0.0,0.0,0.0,0.0,0.0,0.0,0.0,0.0,0.0,0.0,0.0,0.0,0.0,0.0,0.0,0.0,0.0,0.0,0.0,0.0,0.0,0.0,0.0,0.0,0.0,0.0,0.0,0.0,0.0,0.0,0.0,0.0,0.0,0.0,0.0,0.0,0.0,0.0,0.0,0.0,0.0,0.0,0.0,0.0,0.0,0.0,0.0,0.0,0.0,0.0,0.0,0.0,0.0,0.0,0.0,0.0,0.0,0.0,0.0,0.0,0.0,0.0,0.0,0.0,0.0,0.0,0.0,0.0,0.0,0.0,0.0,0.0,0.0,0.0,0.0,0.0,0.0,0.0,0.0,0.0,0.0,0.0,0.0,0.0,0.0,0.0,0.0,0.0,0.0,0.0,0.0,0.0,0.0,0.0,0.0,0.0,0.0,0.0,0.0,0.0,0.0,0.0,0.0,0.0,0.0,0.0,0.0,0.0,0.0,0.0,0.0,0.0,0.0,0.0,0.0,0.0,0.0,0.0,0.0,0.0,0.0,0.0,0.0,0.0,0.0,0.0,0.0,0.0,0.0,0.0,0.0,0.0,0.0,0.0,0.0,0.0,0.0,0.0,0.0,0.0,0.0,0.0,0.0,0.0,0.0,0.0,0.0,0.0,0.0,0.0,0.0,0.0,0.0,0.0,0.0,0.0,0.0,0.0,0.0,0.0,0.0,0.0,0.0,0.0,0.0,0.0,0.0,0.0,0.0,0.0,0.0,0.0,0.0,0.0,0.0,0.0,0.0,0.0,0.0,0.0,0.0,0.0,0.0,0.0,0.0,0.0,0.0,0.0,0.0,0.0,0.0,0.0,0.0,0.0,0.0,0.0,0.0,0.0,0.0,0.0,0.0,0.0,0.0,0.0,0.0,0.0,0.0,0.0,0.0,0.0,0.0,0.0,0.0,0.0,0.0,0.0,0.0,0.0,0.0,0.0,0.0,0.0,0.0,0.0,0.0,0.0,0.0,0.0,0.0,0.0,0.0,0.0,0.0,0.0,0.0,0.0,0.0,0.0,0.0,0.0,0.0,0.0,0.0,0.0,0.0,0.0,0.0,0.0,0.0,0.0,0.0,0.0,0.0,0.0,0.0,0.0,0.0,0.0,0.0,0.0,0.0,0.0,0.0,0.0,0.0,0.0,0.0,0.0,0.0,0.0,0.0,0.0,0.0,0.0,0.0,0.0,0.0,0.0,0.0,0.0,0.0,0.0,0.0,0.0,0.0,0.0,0.0,0.0,0.0,0.0,0.0,0.0,0.0,0.0,0.0,0.0,0.0,0.0,0.0,0.0,0.0,0.0,0.0,0.0,0.0,0.0,0.0,0.0,0.0,0.0,0.0,0.0,0.0,0.0,0.0,0.0,0.0,0.0,0.0,0.0,0.0,0.0,0.0,0.0,0.0,0.0,0.0,0.0,0.0,0.0,0.0,0.0,0.0,0.0,0.0,0.0,0.0,0.0,0.0,0.0,0.0,0.0,0.0,0.0,0.0,0.0,0.0,0.0,0.0,0.0,0.0,0.0,0.0,0.0,0.0,0.0,0.0,0.0,0.0,0.0,0.0,0.0,0.0,0.0,0.0,0.0,0.0,0.0,0.0,0.0,0.0,0.0,0.0,0.0,0.0,0.0,0.0,0.0,0.0,0.0,0.0,0.0,0.0,0.0,0.0,0.0,0.0,0.0,0.0,0.0,0.0,0.0,0.0,0.0,0.0,0.0,0.0,0.0,0.0,0.0,0.0,0.0,0.0,0.0,0.0,0.0,0.0,0.0,0.0,0.0,0.0,0.0,0.0,0.0,0.0,0.0,0.0,0.0,0.0,0.0,0.0,0.0,0.0,0.0,0.0,0.0,0.0,0.0,0.0,0.0,0.0,0.0,0.0,0.0,0.0,0.0,0.0,0.0,0.0,0.0,0.0,0.0,0.0,0.0,0.0,0.0,0.0,0.0,0.0,0.0,0.0,0.0,0.0,0.0,0.0,0.0,0.0,0.0,0.0,0.0,0.0,0.0,0.0,0.0,0.0,0.0,0.0,0.0,0.0,0.0,0.0,0.0,0.0,0.0,0.0,0.0,0.0,0.0,0.0,0.0,0.0,0.0,0.0,0.0,0.0,0.0,0.0,0.0,0.0,0.0,0.0,0.0,0.0,0.0,0.0,0.0,0.0,0.0,0.0,0.0,0.0,0.0,0.0,0.0,0.0,0.0,0.0,0.0,0.0,0.0,0.0,0.0,0.0,0.0,0.0,0.0,0.0,0.0,0.0,0.0,0.0,0.0,0.0,0.0,0.0,0.0,0.0,0.0,0.0,0.0,0.0,0.0,0.0,0.0,0.0,0.0,0.0,0.0,0.0,0.0,0.0,0.0,0.0,0.0,0.0,0.0,0.0,0.0,0.0,0.0,0.0,0.0,0.0,0.0,0.0,0.0,0.0,0.0,0.0,0.0,0.0,0.0,0.0,0.0,0.0,0.0,0.0,0.0,0.0,0.0,0.0,0.0,0.0,0.0,0.0,0.0,0.0,0.0,0.0,0.0,0.0,0.0,0.0,0.0,0.0,0.0,0.0,0.0,0.0,0.0,0.0,0.0,0.0,0.0,0.0,0.0,0.0,0.0,0.0,0.0,0.0,0.0,0.0,0.0,0.0,0.0,0.0,0.0,0.0,0.0,0.0,0.0,0.0,0.0,0.0,0.0,0.0,0.0,0.0,0.0,0.0,0.0,0.0,0.0,0.0,0.0,0.0,0.0,0.0,0.0,0.0,0.0,0.0,0.0,0.0,0.0,-2.064,0.0,0.0,0.0,0.0,0.0,0.0,0.0,0.0,0.0,0.0,0.0,0.0,0.0,0.0,0.0,0.0,0.0,0.0,0.0,0.0,0.0,0.0,0.0,0.0,0.0,0.0,0.0,0.0,0.0,0.0,0.0,0.0,0.0,0.0,0.0,0.0,0.0,0.0,0.0,0.0,0.0,0.0,0.0,0.0,0.0,0.0,0.0,0.0,0.0,0.0,0.0,0.0,0.0,0.0,0.0,0.0,0.0,0.0,0.0,0.0,0.0,0.0,0.0,0.0,0.0,0.0,0.0,0.0,0.0,0.0,0.0,0.0,0.0,0.0,0.0,0.0,0.0,0.0,0.0,0.0,0.0,0.0,0.0,0.0,0.0,0.0,0.0,0.0,0.0,0.0,0.0,0.0,0.0,0.0,0.0,0.0,0.0,0.0,0.0,0.0,0.0,0.0,0.0,0.0,0.0,0.0,0.0,0.0,0.0,0.0,-2.2001,-2.2232,-2.3754,-2.3984,-2.2702,0.0,0.0,0.0,0.0,0.0,0.0,0.0,0.0,0.0,0.0,0.0,0.0,0.0,0.0,0.0,0.0,0.0,0.0,0.0,0.0,0.0,0.0,0.0,0.0,0.0,0.0,0.0,0.0,0.0,0.0,0.0,0.0,0.0,0.0,0.0,0.0,0.0,0.0,0.0,0.0,0.0,0.0,0.0,0.0,0.0,0.0,0.0,0.0,0.0,0.0,0.0,0.0,0.0,0.0,0.0,0.0,0.0,0.0,0.0,0.0,0.0,0.0,0.0,0.0,0.0,0.0,0.0,0.0,0.0,0.0,0.0,0.0,0.0,0.0,0.0,0.0,0.0,0.0,0.0,0.0,0.0,0.0,0.0,0.0,0.0,0.0,0.0,0.0,0.0,0.0,0.0,0.0,0.0,0.0,0.0,0.0,0.0,0.0,0.0,0.0,0.0,0.0,0.0,0.0,0.0,0.0,0.0,0.0,0.0,0.0,0.0,0.0,-2.5765,-2.5912,-2.478,0.0,0.0,0.0,0.0,0.0,0.0,0.0,0.0,0.0,0.0,0.0,0.0,0.0,0.0,0.0,0.0,0.0,0.0,0.0,0.0,0.0,0.0,0.0,0.0,0.0,0.0,0.0,0.0,0.0,0.0,0.0,0.0,0.0,0.0,0.0,0.0,0.0,0.0,0.0,0.0,0.0,0.0,0.0,0.0,0.0,0.0,0.0,0.0,0.0,0.0,0.0,0.0,0.0,0.0,0.0,0.0,0.0,0.0,0.0,0.0,0.0,0.0,0.0,0.0,0.0,0.0,0.0,0.0,0.0,0.0,0.0,0.0,0.0,0.0,0.0,0.0,0.0,0.0,0.0,0.0,0.0,0.0,0.0,0.0,0.0,0.0,0.0,0.0,0.0,0.0,0.0,0.0,0.0,0.0,0.0,0.0,0.0,0.0,0.0,0.0,0.0,0.0,0.0,0.0,0.0,0.0,0.0,0.0,0.0,0.0,-2.4969,-2.8101,-2.8285,0.0,-2.7265,0.0,0.0,0.0,0.0,0.0,0.0,0.0,0.0,0.0,0.0,0.0,0.0,0.0,0.0,0.0,0.0,0.0,0.0,0.0,0.0,0.0,0.0,0.0,0.0,0.0,0.0,0.0,0.0,0.0,0.0,0.0,0.0,0.0,0.0,0.0,0.0,0.0,0.0,0.0,0.0,0.0,0.0,0.0,0.0,0.0,0.0,0.0,0.0,0.0,0.0,0.0,0.0,0.0,0.0,0.0,0.0,0.0,0.0,0.0,0.0,0.0,0.0,0.0,0.0,0.0,0.0,0.0,0.0,0.0,0.0,0.0,0.0,0.0,0.0,0.0,0.0,0.0,0.0,0.0,0.0,0.0,0.0,0.0,0.0,0.0,0.0,0.0,0.0,0.0,0.0,0.0,0.0,0.0,0.0,0.0,0.0,0.0,0.0,0.0,0.0,0.0,0.0,0.0,0.0,0.0,0.0,0.0,0.0,0.0,0.0,-2.5701,-2.8649,-2.92,-2.8543,0.0,0.0,0.0,0.0,0.0,0.0,0.0,0.0,0.0,0.0,0.0,0.0,0.0,0.0,0.0,0.0,0.0,0.0,0.0,0.0,0.0,0.0,0.0,0.0,0.0,0.0,0.0,0.0,0.0,0.0,0.0,0.0,0.0,0.0,0.0,0.0,0.0,0.0,0.0,0.0,0.0,0.0,0.0,0.0,0.0,0.0,0.0,0.0,0.0,0.0,0.0,0.0,0.0,0.0,0.0,0.0,0.0,0.0,0.0,0.0,0.0,0.0,0.0,0.0,0.0,0.0,0.0,0.0,0.0,0.0,0.0,0.0,0.0,0.0,0.0,0.0,0.0,0.0,0.0,0.0,0.0,0.0,0.0,0.0,0.0,0.0,0.0,0.0,0.0,0.0,0.0,0.0,0.0,0.0,0.0,0.0,0.0,0.0,0.0,0.0,0.0,0.0,0.0,0.0,0.0,0.0,0.0,0.0,0.0,0.0,-2.5533,-2.6926,-2.9562,-2.9773,-2.8714,-2.647,0.0,0.0,0.0,0.0,0.0,0.0,0.0,0.0,0.0,0.0,0.0,0.0,0.0,0.0,0.0,0.0,0.0,0.0,0.0,0.0,0.0,0.0,0.0,0.0,0.0,0.0,0.0,0.0,0.0,0.0,0.0,0.0,0.0,0.0,0.0,0.0,0.0,0.0,0.0,0.0,0.0,0.0,0.0,0.0,0.0,0.0,0.0,0.0,0.0,0.0,0.0,0.0,0.0,0.0,0.0,0.0,0.0,0.0,0.0,0.0,0.0,0.0,0.0,0.0,0.0,0.0,0.0,0.0,0.0,0.0,0.0,0.0,0.0,0.0,0.0,0.0,0.0,0.0,0.0,0.0,0.0,0.0,0.0,0.0,0.0,0.0,0.0,0.0,0.0,0.0,0.0,0.0,0.0,0.0,0.0,0.0,0.0,0.0,0.0,0.0,0.0,0.0,0.0,0.0,0.0,0.0,0.0,0.0,-2.9808,-2.8516,-2.914,-3.2111,-3.0194,-2.8888,0.0,0.0,0.0,0.0,0.0,0.0,0.0,0.0,0.0,0.0,0.0,0.0,0.0,0.0,0.0,0.0,0.0,0.0,0.0,0.0,0.0,0.0,0.0,0.0,0.0,0.0,0.0,0.0,0.0,0.0,0.0,0.0,0.0,0.0,0.0,0.0,0.0,0.0,0.0,0.0,0.0,0.0,0.0,0.0,0.0,0.0,0.0,0.0,0.0,0.0,0.0,0.0,0.0,0.0,0.0,0.0,0.0,0.0,0.0,0.0,0.0,0.0,0.0,0.0,0.0,0.0,0.0,0.0,0.0,0.0,0.0,0.0,0.0,0.0,0.0,0.0,0.0,0.0,0.0,0.0,0.0,0.0,0.0,0.0,0.0,0.0,0.0,0.0,0.0,0.0,0.0,0.0,0.0,0.0,0.0,0.0,0.0,0.0,0.0,0.0,0.0,0.0,0.0,0.0,0.0,0.0,0.0,0.0,0.0,-2.6291,-2.8038,-2.9906,-3.1808,-3.0224,-2.918,0.0,0.0,0.0,0.0,0.0,0.0,0.0,0.0,0.0,0.0,0.0,0.0,0.0,0.0,0.0,0.0,0.0,0.0,0.0,0.0,0.0,0.0,0.0,0.0,0.0,0.0,0.0,0.0,0.0,0.0,0.0,0.0,0.0,0.0,0.0,0.0,0.0,0.0,0.0,0.0,0.0,0.0,0.0,0.0,0.0,0.0,0.0,0.0,0.0,0.0,0.0,0.0,0.0,0.0,0.0,0.0,0.0,0.0,0.0,0.0,0.0,0.0,0.0,0.0,0.0,0.0,0.0,0.0,0.0,0.0,0.0,0.0,0.0,0.0,0.0,0.0,0.0,0.0,0.0,0.0,0.0,0.0,0.0,0.0,0.0,0.0,0.0,0.0,0.0,0.0,0.0,0.0,0.0,0.0,0.0,0.0,0.0,0.0,0.0,0.0,0.0,0.0,0.0,0.0,0.0,0.0,0.0,0.0,0.0,-2.6281,0.0,-3.1594,-3.208,-3.0465,-2.9161,0.0,0.0,0.0,0.0,0.0,0.0,0.0,0.0,0.0,0.0,0.0,0.0,0.0,0.0,0.0,0.0,0.0,0.0,0.0,0.0,0.0,0.0,0.0,0.0,0.0,0.0,0.0,0.0,0.0,0.0,0.0,0.0,0.0,0.0,0.0,0.0,0.0,0.0,0.0,0.0,0.0,0.0,0.0,0.0,0.0,0.0,0.0,0.0,0.0,0.0,0.0,0.0,0.0,0.0,0.0,0.0,0.0,0.0,0.0,0.0,0.0,0.0,0.0,0.0,0.0,0.0,0.0,0.0,0.0,0.0,0.0,0.0,0.0,0.0,0.0,0.0,0.0,0.0,0.0,0.0,0.0,0.0,0.0,0.0,0.0,0.0,0.0,0.0,0.0,0.0,0.0,0.0,0.0,0.0,0.0,0.0,0.0,0.0,0.0,0.0,0.0,0.0,0.0,0.0,0.0,0.0,0.0,0.0,-2.5301,-3.0678,-3.3337,-3.4147,-3.3237,-3.1112,-2.8902,0.0,0.0,0.0,0.0,0.0,0.0,0.0,0.0,0.0,0.0,0.0,0.0,0.0,0.0,0.0,0.0,0.0,0.0,0.0,0.0,0.0,0.0,0.0,0.0,0.0,0.0,0.0,0.0,0.0,0.0,0.0,0.0,0.0,0.0,0.0,0.0,0.0,0.0,0.0,0.0,0.0,0.0,0.0,0.0,0.0,0.0,0.0,0.0,0.0,0.0,0.0,0.0,0.0,0.0,0.0,0.0,0.0,0.0,0.0,0.0,0.0,0.0,0.0,0.0,0.0,0.0,0.0,0.0,0.0,0.0,0.0,0.0,0.0,0.0,0.0,0.0,0.0,0.0,0.0,0.0,0.0,0.0,0.0,0.0,0.0,0.0,0.0,0.0,0.0,0.0,0.0,0.0,0.0,0.0,0.0,0.0,0.0,0.0,0.0,0.0,0.0,0.0,0.0,0.0,0.0,0.0,0.0,0.0,0.0,-2.912,-3.1599,-3.3989,-3.6022,-3.2232,-3.0537,0.0,0.0,0.0,0.0,0.0,0.0,0.0,0.0,0.0,0.0,0.0,0.0,0.0,0.0,0.0,0.0,0.0,0.0,0.0,0.0,0.0,0.0,0.0,0.0,0.0,0.0,0.0,0.0,0.0,0.0,0.0,0.0,0.0,0.0,0.0,0.0,0.0,0.0,0.0,0.0,0.0,0.0,0.0,0.0,0.0,0.0,0.0,0.0,0.0,0.0,0.0,0.0,0.0,0.0,0.0,0.0,0.0,0.0,0.0,0.0,0.0,0.0,0.0,0.0,0.0,0.0,0.0,0.0,0.0,0.0,0.0,0.0,0.0,0.0,0.0,0.0,0.0,0.0,0.0,0.0,0.0,0.0,0.0,0.0,0.0,0.0,0.0,0.0,0.0,0.0,0.0,0.0,0.0,0.0,0.0,0.0,0.0,0.0,0.0,0.0,0.0,0.0,0.0,0.0,0.0,0.0,0.0,0.0,0.0,-3.1488,-3.3652,-3.5754,-3.7782,-3.4268,-3.2356,-3.2396,0.0,0.0,0.0,0.0,0.0,0.0,0.0,0.0,0.0,0.0,0.0,0.0,0.0,0.0,0.0,0.0,0.0,0.0,0.0,0.0,0.0,0.0,0.0,0.0,0.0,0.0,0.0,0.0,0.0,0.0,0.0,0.0,0.0,0.0,0.0,0.0,0.0,0.0,0.0,0.0,0.0,0.0,0.0,0.0,0.0,0.0,0.0,0.0,0.0,0.0,0.0,0.0,0.0,0.0,0.0,0.0,0.0,0.0,0.0,0.0,0.0,0.0,0.0,0.0,0.0,0.0,0.0,0.0,0.0,0.0,0.0,0.0,0.0,0.0,0.0,0.0,0.0,0.0,0.0,0.0,0.0,0.0,0.0,0.0,0.0,0.0,0.0,0.0,0.0,0.0,0.0,0.0,0.0,0.0,0.0,0.0,0.0,0.0,0.0,0.0,0.0,0.0,0.0,0.0,0.0,0.0,0.0,0.0,-3.6901,-3.8883,-3.9495,-3.8639,-3.7027,-3.4431,0.0,0.0,0.0,0.0,0.0,0.0,0.0,0.0,0.0,0.0,0.0,0.0,0.0,0.0,0.0,0.0,0.0,0.0,0.0,0.0,0.0,0.0,0.0,0.0,0.0,0.0,0.0,0.0,0.0,0.0,0.0,0.0,0.0,0.0,0.0,0.0,0.0,0.0,0.0,0.0,0.0,0.0,0.0,0.0,0.0,0.0,0.0,0.0,0.0,0.0,0.0,0.0,0.0,0.0,0.0,0.0,0.0,0.0,0.0,0.0,0.0,0.0,0.0,0.0,0.0,0.0,0.0,0.0,0.0,0.0,0.0,0.0,0.0,0.0,0.0,0.0,0.0,0.0,0.0,0.0,0.0,0.0,0.0,0.0,0.0,0.0,0.0,0.0,0.0,0.0,0.0,0.0,0.0,0.0,0.0,0.0,0.0,0.0,0.0,0.0,0.0,0.0,0.0,0.0,0.0,0.0,0.0,0.0,0.0,-3.9726,-4.3431,-4.4846,-4.3826,-3.9982,-3.738,0.0,0.0,0.0,0.0,0.0,0.0,0.0,0.0,0.0,0.0,0.0,0.0,0.0,0.0,0.0,0.0,0.0,0.0,0.0,0.0,0.0,0.0,0.0,0.0,0.0,0.0,0.0,0.0,0.0,0.0,0.0,0.0,0.0,0.0,0.0,0.0,0.0,0.0,0.0,0.0,0.0,0.0,0.0,0.0,0.0,0.0,0.0,0.0,0.0,0.0,0.0,0.0,0.0,0.0,0.0,0.0,0.0,0.0,0.0,0.0,0.0,0.0,0.0,0.0,0.0,0.0,0.0,0.0,0.0,0.0,0.0,0.0,0.0,0.0,0.0,0.0,0.0,0.0,0.0,0.0,0.0,0.0,0.0,0.0,0.0,0.0,0.0,0.0,0.0,0.0,0.0,0.0,0.0,0.0,0.0,0.0,0.0,0.0,0.0,0.0,0.0,0.0,0.0,0.0,0.0,0.0,0.0,0.0,-3.7731,-4.2052,-4.6322,-4.8495,-4.8434,-4.4217,-4.0655,0.0,0.0,0.0,0.0,0.0,0.0,0.0,0.0,0.0,0.0,0.0,0.0,0.0,0.0,0.0,0.0,0.0,0.0,0.0,0.0,0.0,0.0,0.0,0.0,0.0,0.0,0.0,0.0,0.0,0.0,0.0,0.0,0.0,0.0,0.0,0.0,0.0,0.0,0.0,0.0,0.0,0.0,0.0,0.0,0.0,0.0,0.0,0.0,0.0,0.0,0.0,0.0,0.0,0.0,0.0,0.0,0.0,0.0,0.0,0.0,0.0,0.0,0.0,0.0,0.0,0.0,0.0,0.0,0.0,0.0,0.0,0.0,0.0,0.0,0.0,0.0,0.0,0.0,0.0,0.0,0.0,0.0,0.0,0.0,0.0,0.0,0.0,0.0,0.0,0.0,0.0,0.0,0.0,0.0,0.0,0.0,0.0,0.0,0.0,0.0,0.0,0.0,0.0,0.0,0.0,0.0,0.0,0.0,-3.9984,-4.3869,-4.7949,-5.0694,-5.1852,-4.8389,-4.3642,0.0,0.0,0.0,0.0,0.0,0.0,0.0,0.0,0.0,0.0,0.0,0.0,0.0,0.0,0.0,0.0,0.0,0.0,0.0,0.0,0.0,0.0,0.0,0.0,0.0,0.0,0.0,0.0,0.0,0.0,0.0,0.0,0.0,0.0,0.0,0.0,0.0,0.0,0.0,0.0,0.0,0.0,0.0,0.0,0.0,0.0,0.0,0.0,0.0,0.0,0.0,0.0,0.0,0.0,0.0,0.0,0.0,0.0,0.0,0.0,0.0,0.0,0.0,0.0,0.0,0.0,0.0,0.0,0.0,0.0,0.0,0.0,0.0,0.0,0.0,0.0,0.0,0.0,0.0,0.0,0.0,0.0,0.0,0.0,0.0,0.0,0.0,0.0,0.0,0.0,0.0,0.0,0.0,0.0,0.0,0.0,0.0,0.0,0.0,0.0,0.0,0.0,0.0,0.0,0.0,0.0,0.0,0.0,-4.0548,-4.4668,-4.7997,-5.0462,-5.1922,-4.7565,-4.353,0.0,0.0,0.0,0.0,0.0,0.0,0.0,0.0,0.0,0.0,0.0,0.0,0.0,0.0,0.0,0.0,0.0,0.0,0.0,0.0,0.0,0.0,0.0,0.0,0.0,0.0,0.0,0.0,0.0,0.0,0.0,0.0,0.0,0.0,0.0,0.0,0.0,0.0,0.0,0.0,0.0,0.0,0.0,0.0,0.0,0.0,0.0,0.0,-3.3505,0.0,0.0,0.0,0.0,0.0,0.0,0.0,0.0,0.0,0.0,0.0,0.0,0.0,0.0,0.0,0.0,0.0,0.0,0.0,0.0,0.0,0.0,0.0,0.0,0.0,0.0,0.0,0.0,0.0,0.0,0.0,0.0,0.0,0.0,0.0,0.0,0.0,0.0,0.0,0.0,0.0,0.0,0.0,0.0,0.0,0.0,0.0,0.0,0.0,0.0,0.0,0.0,0.0,0.0,0.0,0.0,0.0,0.0,0.0,-4.0717,-4.4739,-4.7573,-4.9618,-5.0757,-4.7489,-4.4207,0.0,0.0,0.0,0.0,0.0,0.0,0.0,0.0,0.0,0.0,0.0,0.0,0.0,0.0,0.0,0.0,0.0,0.0,0.0,0.0,0.0,0.0,0.0,0.0,0.0,0.0,0.0,0.0,0.0,0.0,0.0,0.0,0.0,0.0,0.0,0.0,0.0,0.0,0.0,0.0,0.0,0.0,0.0,0.0,0.0,0.0,0.0,0.0,0.0,0.0,0.0,0.0,0.0,0.0,0.0,0.0,0.0,0.0,0.0,0.0,0.0,0.0,0.0,0.0,0.0,0.0,0.0,0.0,0.0,0.0,0.0,0.0,0.0,0.0,0.0,0.0,0.0,0.0,0.0,0.0,0.0,0.0,0.0,0.0,0.0,0.0,0.0,0.0,0.0,0.0,0.0,0.0,0.0,0.0,0.0,0.0,0.0,0.0,0.0,0.0,0.0,0.0,0.0,0.0,0.0,0.0,0.0,-3.664,-4.0459,-4.458,-4.6854,-4.8425,-4.936,-4.7344,-4.471,-4.1603,0.0,0.0,0.0,0.0,0.0,0.0,0.0,0.0,0.0,0.0,0.0,0.0,0.0,0.0,0.0,0.0,0.0,0.0,0.0,0.0,0.0,0.0,0.0,0.0,0.0,0.0,0.0,0.0,0.0,0.0,0.0,0.0,0.0,0.0,0.0,0.0,0.0,0.0,-1.6938,-2.464,0.0,0.0,0.0,0.0,0.0,0.0,0.0,0.0,-3.4514,0.0,0.0,0.0,0.0,0.0,0.0,0.0,0.0,0.0,0.0,0.0,0.0,0.0,0.0,0.0,0.0,0.0,0.0,0.0,0.0,0.0,0.0,0.0,0.0,0.0,0.0,0.0,0.0,0.0,0.0,0.0,0.0,0.0,0.0,0.0,0.0,0.0,0.0,0.0,0.0,0.0,0.0,0.0,0.0,0.0,0.0,0.0,0.0,0.0,0.0,0.0,0.0,0.0,0.0,0.0,0.0,-3.4971,-3.6479,-3.9607,-4.4545,-4.5885,-4.6928,-4.771,-4.5794,-4.3279,-4.0248,0.0,0.0,0.0,0.0,0.0,0.0,0.0,0.0,0.0,0.0,0.0,0.0,0.0,0.0,0.0,0.0,0.0,0.0,0.0,0.0,0.0,0.0,0.0,0.0,0.0,0.0,0.0,0.0,0.0,0.0,0.0,0.0,0.0,0.0,0.0,0.0,0.0,0.0,0.0,-2.8633,-3.2895,0.0,0.0,0.0,0.0,0.0,0.0,0.0,0.0,-3.4653,0.0,0.0,0.0,0.0,0.0,0.0,0.0,0.0,0.0,0.0,0.0,0.0,0.0,0.0,0.0,0.0,0.0,0.0,0.0,0.0,0.0,0.0,0.0,0.0,0.0,0.0,0.0,0.0,0.0,0.0,0.0,0.0,0.0,0.0,0.0,0.0,0.0,0.0,0.0,0.0,0.0,0.0,0.0,0.0,0.0,0.0,0.0,0.0,0.0,0.0,0.0,0.0,0.0,0.0,0.0,-3.4298,-3.6535,-3.9641,-4.3646,-4.4306,-4.4955,-4.574,-4.375,-4.1368,0.0,0.0,0.0,0.0,0.0,0.0,0.0,0.0,0.0,0.0,0.0,0.0,0.0,0.0,0.0,0.0,0.0,0.0,0.0,0.0,0.0,0.0,0.0,0.0,0.0,0.0,0.0,0.0,0.0,0.0,0.0,0.0,0.0,0.0,0.0,0.0,0.0,0.0,0.0,0.0,-3.1409,-3.5304,-3.8924,0.0,0.0,0.0,0.0,0.0,0.0,-3.5672,-3.4751,0.0,0.0,0.0,0.0,0.0,0.0,0.0,0.0,0.0,0.0,0.0,0.0,0.0,0.0,0.0,0.0,0.0,0.0,0.0,0.0,0.0,0.0,0.0,0.0,0.0,0.0,0.0,0.0,0.0,0.0,0.0,0.0,0.0,0.0,0.0,0.0,0.0,0.0,0.0,0.0,0.0,0.0,0.0,0.0,0.0,0.0,0.0,0.0,0.0,0.0,0.0,0.0,0.0,0.0,0.0,-3.3325,-3.6359,-3.9517,-4.2597,-4.2785,-4.3138,-4.3863,-4.175,-3.9596,0.0,0.0,0.0,0.0,0.0,0.0,0.0,0.0,0.0,0.0,0.0,0.0,0.0,0.0,0.0,0.0,0.0,0.0,0.0,0.0,0.0,0.0,0.0,0.0,0.0,0.0,0.0,0.0,0.0,0.0,0.0,0.0,0.0,0.0,0.0,0.0,0.0,0.0,0.0,0.0,0.0,-3.7339,-4.1305,-4.1095,0.0,0.0,0.0,0.0,-3.6708,-3.6408,0.0,0.0,0.0,0.0,0.0,0.0,0.0,0.0,0.0,0.0,0.0,0.0,0.0,0.0,0.0,0.0,0.0,0.0,0.0,0.0,0.0,0.0,0.0,0.0,0.0,0.0,0.0,0.0,0.0,0.0,0.0,0.0,0.0,0.0,0.0,0.0,0.0,0.0,0.0,0.0,0.0,0.0,0.0,0.0,0.0,0.0,0.0,0.0,0.0,0.0,0.0,0.0,0.0,0.0,0.0,0.0,-3.2765,-3.538,-3.8397,-4.1732,-4.2125,-4.225,-4.2327,-4.0392,-3.8562,0.0,0.0,0.0,0.0,0.0,0.0,0.0,0.0,0.0,0.0,0.0,0.0,0.0,0.0,0.0,0.0,0.0,0.0,0.0,0.0,0.0,0.0,0.0,0.0,0.0,0.0,0.0,0.0,0.0,0.0,0.0,0.0,0.0,0.0,0.0,0.0,0.0,0.0,0.0,0.0,0.0,-3.8216,-4.0345,-4.0989,-4.0443,0.0,0.0,-3.9508,-4.0516,-4.0042,0.0,0.0,0.0,0.0,0.0,0.0,0.0,0.0,0.0,0.0,0.0,0.0,0.0,0.0,0.0,0.0,0.0,0.0,0.0,0.0,0.0,0.0,0.0,0.0,0.0,0.0,0.0,0.0,0.0,0.0,0.0,0.0,0.0,0.0,0.0,0.0,0.0,0.0,0.0,0.0,0.0,0.0,0.0,0.0,0.0,0.0,0.0,0.0,0.0,0.0,0.0,0.0,0.0,0.0,0.0,-2.9614,-3.2758,-3.5358,-3.8023,-4.0711,-4.0937,-4.0967,-4.0965,-3.8484,-3.671,0.0,0.0,0.0,0.0,0.0,0.0,0.0,0.0,0.0,0.0,0.0,0.0,0.0,0.0,0.0,0.0,0.0,0.0,0.0,0.0,0.0,0.0,0.0,0.0,0.0,0.0,0.0,0.0,0.0,0.0,0.0,0.0,0.0,0.0,0.0,0.0,0.0,0.0,0.0,0.0,0.0,0.0,-4.1832,-4.254,0.0,0.0,0.0,-4.0891,-4.0352,0.0,0.0,0.0,0.0,0.0,0.0,0.0,0.0,0.0,0.0,0.0,0.0,0.0,0.0,0.0,0.0,0.0,0.0,0.0,0.0,0.0,0.0,0.0,0.0,0.0,0.0,0.0,0.0,0.0,0.0,0.0,0.0,0.0,0.0,0.0,0.0,0.0,0.0,0.0,0.0,0.0,0.0,0.0,0.0,0.0,0.0,0.0,0.0,0.0,0.0,0.0,0.0,0.0,0.0,0.0,0.0,0.0,-3.2319,-3.508,-3.751,-3.9439,-3.9506,-3.9545,-3.946,-3.7004,0.0,0.0,0.0,0.0,0.0,0.0,0.0,0.0,0.0,0.0,0.0,0.0,0.0,0.0,0.0,0.0,0.0,0.0,0.0,0.0,0.0,0.0,0.0,0.0,0.0,0.0,0.0,-1.276,0.0,0.0,0.0,0.0,0.0,0.0,0.0,0.0,0.0,0.0,0.0,0.0,0.0,0.0,-3.9586,-4.3075,-4.4,-4.4266,0.0,0.0,-4.1774,-4.0586,-4.085,-3.9633,0.0,0.0,0.0,0.0,0.0,0.0,0.0,0.0,0.0,0.0,0.0,0.0,0.0,0.0,0.0,0.0,0.0,0.0,0.0,0.0,0.0,0.0,0.0,0.0,0.0,0.0,0.0,0.0,0.0,0.0,0.0,0.0,0.0,0.0,0.0,0.0,0.0,0.0,0.0,0.0,0.0,0.0,0.0,0.0,0.0,0.0,0.0,0.0,0.0,0.0,0.0,0.0,0.0,0.0,0.0,-3.0892,-3.4128,-3.6493,-3.7914,-3.7937,-3.7953,-3.7927,-3.6405,-3.4922,0.0,0.0,0.0,0.0,0.0,0.0,0.0,0.0,0.0,0.0,0.0,0.0,0.0,0.0,0.0,0.0,0.0,0.0,0.0,0.0,0.0,0.0,0.0,0.0,0.0,0.0,0.0,0.0,0.0,0.0,0.0,0.0,0.0,0.0,0.0,0.0,0.0,0.0,0.0,0.0,0.0,-4.0781,-4.2801,-4.4586,-4.5803,0.0,0.0,-4.1889,-4.2926,-4.2172,-4.008,-3.5621,0.0,0.0,0.0,0.0,0.0,0.0,0.0,0.0,0.0,0.0,0.0,0.0,0.0,0.0,0.0,0.0,0.0,0.0,0.0,0.0,0.0,0.0,0.0,0.0,0.0,0.0,0.0,0.0,0.0,0.0,0.0,0.0,0.0,0.0,0.0,0.0,0.0,0.0,0.0,0.0,0.0,0.0,0.0,0.0,0.0,0.0,0.0,0.0,0.0,0.0,0.0,0.0,0.0,-2.9114,-3.1908,-3.403,-3.5963,-3.7684,-3.7822,-3.7573,-3.7084,-3.6129,-3.4329,0.0,0.0,0.0,0.0,0.0,0.0,0.0,0.0,0.0,0.0,0.0,0.0,0.0,0.0,0.0,0.0,0.0,0.0,0.0,0.0,0.0,0.0,0.0,0.0,0.0,0.0,0.0,0.0,-1.7961,-2.1169,-2.379,0.0,0.0,0.0,0.0,0.0,0.0,0.0,0.0,0.0,0.0,-3.9584,-4.2547,-4.339,0.0,0.0,-4.273,-4.1663,-4.2242,-4.0808,-3.8408,-3.5006,-3.2156,0.0,0.0,0.0,0.0,0.0,0.0,0.0,0.0,0.0,0.0,0.0,0.0,0.0,0.0,0.0,0.0,0.0,0.0,0.0,0.0,0.0,0.0,0.0,0.0,0.0,0.0,0.0,0.0,0.0,0.0,0.0,0.0,0.0,0.0,0.0,0.0,0.0,0.0,0.0,0.0,0.0,0.0,0.0,0.0,0.0,0.0,0.0,0.0,0.0,0.0,0.0,0.0,-2.8994,-3.1864,-3.3499,-3.5223,-3.71,-3.7115,-3.6829,-3.6259,-3.5536,-3.3737,0.0,0.0,0.0,0.0,0.0,0.0,0.0,0.0,0.0,0.0,0.0,0.0,0.0,0.0,0.0,0.0,0.0,0.0,0.0,0.0,0.0,0.0,0.0,0.0,0.0,0.0,0.0,0.0,-2.0072,-2.2811,-2.5168,0.0,0.0,0.0,0.0,0.0,0.0,0.0,0.0,0.0,0.0,-3.9257,-4.2124,-4.2354,-4.2292,-4.262,-4.111,-4.0055,-4.0172,-3.8706,-3.6668,-3.3957,0.0,0.0,0.0,0.0,0.0,0.0,0.0,0.0,0.0,0.0,0.0,0.0,0.0,0.0,0.0,0.0,0.0,0.0,0.0,0.0,0.0,0.0,0.0,0.0,0.0,0.0,0.0,0.0,0.0,0.0,-2.755,0.0,0.0,0.0,0.0,0.0,0.0,0.0,0.0,0.0,0.0,0.0,0.0,0.0,0.0,0.0,0.0,0.0,0.0,0.0,0.0,0.0,0.0,-2.8842,-3.0172,-3.2393,-3.4158,-3.5494,-3.5569,-3.5489,-3.5489,-3.4581,-3.326,-3.1622,0.0,0.0,0.0,0.0,0.0,0.0,0.0,0.0,0.0,0.0,0.0,0.0,0.0,0.0,0.0,0.0,0.0,0.0,0.0,0.0,0.0,0.0,0.0,0.0,0.0,0.0,-2.1617,-2.4459,-2.6013,0.0,0.0,0.0,0.0,0.0,0.0,0.0,0.0,0.0,0.0,-3.7389,-4.0395,-4.1542,-4.1758,-4.1605,-4.1285,-3.8607,-3.6684,-3.6851,-3.6084,-3.4801,0.0,0.0,0.0,0.0,0.0,0.0,0.0,0.0,0.0,0.0,0.0,0.0,0.0,0.0,0.0,0.0,0.0,0.0,0.0,0.0,0.0,0.0,0.0,0.0,0.0,0.0,0.0,-2.8864,-2.9478,0.0,0.0,0.0,0.0,0.0,0.0,0.0,0.0,0.0,0.0,0.0,-3.3313,-3.3427,0.0,0.0,0.0,0.0,0.0,0.0,0.0,0.0,0.0,0.0,0.0,0.0,-2.814,-2.9862,-3.1429,-3.2695,-3.3504,-3.3547,-3.3547,-3.3533,-3.3255,-3.218,-3.031,0.0,0.0,0.0,0.0,0.0,0.0,0.0,0.0,0.0,0.0,0.0,0.0,0.0,0.0,0.0,0.0,0.0,0.0,0.0,0.0,0.0,0.0,0.0,0.0,0.0,-2.2583,0.0,0.0,0.0,0.0,0.0,0.0,0.0,0.0,0.0,0.0,0.0,-3.1681,-3.5183,-3.6472,-3.7751,-3.9717,-3.9269,-3.8925,0.0,0.0,0.0,0.0,0.0,0.0,0.0,0.0,0.0,0.0,0.0,0.0,0.0,0.0,-2.7031,-2.4463,-2.3877,-2.3828,-2.3965,0.0,0.0,0.0,0.0,0.0,0.0,0.0,0.0,0.0,0.0,0.0,0.0,0.0,0.0,-3.0364,0.0,-3.0162,0.0,0.0,0.0,0.0,0.0,0.0,0.0,0.0,-3.2826,-3.3787,-3.4319,-3.4883,-3.5612,0.0,-3.5322,-3.4068,0.0,0.0,0.0,0.0,0.0,0.0,0.0,0.0,-2.8079,-2.9638,-3.0952,-3.1916,-3.2566,-3.2593,-3.2593,-3.2593,-3.2307,-3.1227,-2.9379,-2.7672,-2.6364,0.0,0.0,0.0,0.0,0.0,0.0,0.0,0.0,0.0,0.0,0.0,0.0,0.0,0.0,0.0,0.0,0.0,0.0,0.0,0.0,0.0,0.0,0.0,-2.4525,0.0,0.0,0.0,0.0,0.0,0.0,0.0,0.0,0.0,-2.9974,-3.1006,-3.2851,-3.6128,-3.625,-3.6596,-3.8028,0.0,0.0,0.0,0.0,0.0,0.0,0.0,-3.2516,-3.2516,-3.1564,-3.0288,-2.8671,-2.8181,-2.7783,-2.75,0.0,0.0,-2.623,-2.5537,-2.5361,-2.5518,-2.5068,-2.4687,-2.4844,-2.4873,-2.4746,0.0,0.0,0.0,0.0,0.0,0.0,0.0,0.0,-3.1177,-3.273,0.0,-3.3403,0.0,0.0,0.0,0.0,0.0,-3.2243,0.0,0.0,-3.4562,-3.516,-3.4666,-3.5878,-3.6193,-3.5669,-3.6761,-3.6342,-3.4517,-3.2324,0.0,0.0,0.0,0.0,0.0,0.0,-2.8771,-2.9429,-3.0815,-3.1887,-3.2437,-3.2451,-3.2451,-3.2451,-3.1609,-3.0498,-2.9063,-2.89,-2.8575,-2.8011,-2.5324,0.0,0.0,0.0,0.0,0.0,0.0,0.0,0.0,0.0,0.0,0.0,0.0,0.0,0.0,0.0,0.0,0.0,0.0,0.0,0.0,-2.413,0.0,0.0,0.0,0.0,0.0,0.0,0.0,0.0,0.0,0.0,-3.1529,-3.2959,-3.4462,-3.6112,0.0,0.0,0.0,0.0,-3.4951,-3.3483,-3.2704,-3.219,-3.175,-3.2466,-3.3106,-3.3045,0.0,0.0,-3.0269,-2.8975,-2.8125,-2.7295,-2.8223,-2.9082,-2.9414,-2.8076,-2.7197,-2.75,-2.6328,-2.542,-2.5713,-2.5908,-2.5752,-3.641,0.0,0.0,0.0,0.0,-3.3342,-3.2382,-3.1207,-3.197,-3.3276,-3.4836,-3.3925,0.0,0.0,0.0,0.0,0.0,0.0,-3.3185,-3.3948,-3.5011,-3.5654,-3.5938,-3.6761,-3.7045,-3.6866,-3.6776,-3.6462,-3.5798,-3.3016,-3.1299,-3.0535,0.0,0.0,0.0,0.0,-2.8132,-2.907,-2.9877,-3.0403,-3.0558,-3.057,-3.0558,-3.0646,-3.0355,-2.9986,-2.9553,-2.9151,-2.82,-2.6637,-2.4742,0.0,0.0,0.0,0.0,0.0,0.0,0.0,0.0,0.0,0.0,0.0,0.0,0.0,0.0,0.0,0.0,0.0,0.0,0.0,-2.3944,-2.6408,-2.7538,0.0,0.0,0.0,0.0,0.0,0.0,0.0,0.0,0.0,-3.0021,-3.1704,-3.3307,0.0,0.0,-3.4429,-3.4743,-3.454,-3.4487,-3.4788,-3.4361,0.0,0.0,-3.4223,-3.3507,-3.2956,-3.1991,-3.1088,-3.0615,-3.0008,-2.957,-2.9297,-2.958,-2.9795,-2.9551,-2.8955,-2.834,-2.8125,-2.7685,-2.7412,-2.7529,-2.7559,-2.7422,-3.8518,-3.7045,-3.6427,-3.6248,-3.6256,-3.5522,-3.494,-3.441,-3.3803,-3.4332,-3.5422,-3.4643,-3.3559,-3.2317,-3.2572,0.0,0.0,0.0,-3.4128,-3.4906,-3.531,-3.5729,-3.6118,-3.6746,-3.6911,-3.6656,-3.6552,-3.6357,-3.6088,-3.3417,-3.1944,-3.1406,0.0,0.0,-2.8097,-2.7996,-2.826,-2.8913,-2.9503,-2.9779,-2.9779,-2.9779,-2.9779,-2.9779,-2.9779,-2.9779,-2.9779,-2.9465,-2.8543,-2.6847,-2.5192,-2.34,0.0,0.0,0.0,0.0,0.0,0.0,0.0,0.0,0.0,0.0,0.0,-1.746,0.0,0.0,0.0,0.0,-2.098,-2.29,-2.4826,-2.6469,0.0,0.0,0.0,0.0,0.0,0.0,0.0,-2.4903,-2.711,-2.8786,-2.9026,-3.0388,-3.2257,-3.4354,-3.3888,-3.3442,-3.3851,0.0,-3.3268,-3.4274,-3.3837,-3.3768,-3.4715,-3.4076,-3.3088,-3.2139,-3.1034,-3.0222,-3.0268,-3.0112,-2.9941,-2.9951,-2.9951,-2.9814,-2.9385,-2.8965,-2.8672,-2.8555,-2.8398,-2.8252,-2.8086,-2.8047,-2.792,-4.0087,-3.9969,-3.8633,-3.8464,-3.9006,-3.8231,-3.7899,-3.7806,-3.624,-3.5492,-3.5501,-3.5499,-3.4816,-3.3694,-3.4233,0.0,-3.3709,-3.4951,-3.5474,-3.5489,-3.5489,-3.5489,-3.5534,-3.6133,-3.6088,-3.5534,-3.6133,-3.6088,-3.5309,-3.3616,-3.2636,-3.2354,-2.9652,-2.8245,-2.8197,-2.8637,-2.8888,-2.8925,-2.9453,-2.9741,-2.9779,-2.9779,-2.9779,-2.9779,-2.9779,-2.9779,-2.9779,-2.9702,-2.9106,-2.798,-2.613,-2.4459,-2.2871,0.0,0.0,0.0,0.0,0.0,0.0,0.0,0.0,0.0,0.0,0.0,0.0,0.0,0.0,0.0,-2.2444,0.0,-2.4606,-2.5303,0.0,0.0,0.0,-2.4659,-2.353,-2.4179,-2.5074,-2.5786,0.0,0.0,-2.8184,-2.9216,-3.1183,-3.4381,-3.3844,-3.3207,-3.3195,-3.2208,-3.1739,-3.2594,-3.2048,-3.1796,-3.2653,-3.2395,-3.1894,-3.0974,-3.0391,-2.9772,-2.947,-2.9476,-2.9404,-2.9365,-2.9414,-2.9258,-2.8848,-2.8408,-2.831,-2.8623,-2.8408,-2.8047,-2.7705,-2.7617,-2.75,-4.0087,-4.0104,-3.9715,-3.9665,-3.975,-3.8944,-3.899,-3.9286,-3.6679,-3.5523,-3.5492,-3.5473,-3.5325,-3.5011,-3.4637,-3.4666,-3.5055,-3.537,-3.5489,-3.5489,-3.5489,-3.5489,-3.5519,-3.5669,-3.5654,-3.5519,-3.5669,-3.5281,-3.4394,-3.3876,-3.2723,-3.098,-3.0211,-2.9452,-2.8725,-2.8448,-2.8511,-2.8925,-2.9063,-2.9352,-2.9767,-2.9779,-2.9779,-2.9779,-2.9779,-2.9779,-2.9779,-2.8949,-2.8028,-2.686,-2.5322,-2.3759,-2.2209,-2.0958,0.0,0.0,0.0,0.0,0.0,0.0,0.0,0.0,0.0,-1.9515,-1.7632,0.0,-2.0262,0.0,-2.3119,-2.488,-2.5318,-2.5893,0.0,0.0,-2.4919,-2.5094,-2.5117,-2.4781,-2.4486,-2.4333,-2.5725,-2.6579,-2.636,-2.82,-2.9872,-3.0895,-3.0866,-3.0838,-3.0789,-3.1289,-3.1558,-3.175,-3.1653,-3.1687,-3.1683,-3.0756,-2.9746,-2.9516,-2.8564,-2.7905,-2.8143,-2.8125,-2.8115,-2.8115,-2.8115,-2.7949,-2.7568,-2.7373,-2.7353,-2.7451,-2.7383,-2.7295,-2.7187,-2.7158,-2.7129,-4.0087,-4.0087,-4.0087,-4.0087,-4.007,-3.961,-3.9684,-3.9951,-3.8264,-3.7027,-3.6107,-3.5706,-3.5489,-3.5474,-3.51,-3.5145,-3.5489,-3.5489,-3.5489,-3.5489,-3.5489,-3.5489,-3.5489,-3.5489,-3.5489,-3.5504,-3.5067,-3.4543,-3.3945,-3.3171,-3.2099,-3.0804,-3.0316,-2.9691,-2.8925,-2.8386,-2.826,-2.8561,-2.88,-2.9214,-2.9767,-2.9779,-2.9589,-2.9185,-2.9185,-2.8859,-2.8225,-2.7392,-2.6364,-2.5338,-2.4207,-2.2907,-2.1399,-2.084,-2.0252,0.0,0.0,0.0,0.0,0.0,0.0,0.0,0.0,0.0,0.0,0.0,-2.0486,0.0,-2.3033,-2.4317,-2.4347,-2.4506,-2.4169,-2.2889,-2.4155,-2.5139,-2.5635,-2.5248,-2.4912,-2.4687,-2.5625,-2.613,-2.6094,-2.7347,-2.8369,-2.8492,-2.8641,-2.899,-2.9874,-3.0136,-3.0172,-3.0665,-3.021,-2.9616,-2.9126,-2.84,-2.789,-2.7791,-2.7212,-2.6875,-2.7285,-2.7217,-2.7158,-2.7324,-2.7226,-2.7031,-2.6777,-2.6562,-2.6396,-2.6172,-2.5986,-2.6025,-2.6357,-2.6289,-2.6113,-4.0087,-4.0087,-4.0087,-4.0087,-4.0087,-4.0087,-4.012,-4.008,-4.0123,-3.8862,-3.6786,-3.5906,-3.5489,-3.5489,-3.5489,-3.5489,-3.5489,-3.5489,-3.5489,-3.5489,-3.5489,-3.5489,-3.5489,-3.5489,-3.5394,-3.5175,-3.4345,-3.3776,-3.3474,-3.1996,-3.1135,-3.0852,-3.024,-2.9542,-2.8825,-2.8348,-2.8109,-2.8109,-2.8649,-2.9176,-2.9666,-2.9616,-2.9098,-2.8297,-2.8135,-2.7419,-2.6142,-2.5409,-2.4589,-2.3678,-2.2984,-2.2138,-2.083,-2.0703,-2.0264,0.0,-1.9187,0.0,0.0,0.0,0.0,0.0,0.0,0.0,0.0,-2.0304,-2.0529,-2.1658,-2.2623,-2.3053,-2.2838,-2.2649,-2.2412,-2.2127,-2.3722,-2.5017,-2.5407,-2.5477,-2.5576,-2.5576,-2.5898,-2.6152,-2.6172,-2.6592,-2.6846,-2.7025,-2.7094,-2.7831,-2.9312,-2.884,-2.8501,-2.9299,-2.8134,-2.7025,-2.6151,-2.6094,-2.6182,-2.6202,-2.6163,-2.6269,-2.6543,-2.6338,-2.623,-2.6523,-2.6328,-2.6113,-2.6133,-2.581,-2.5449,-2.5117,-2.4736,-2.4697,-2.5332,-2.5312,-2.4873,-4.0087,-4.0087,-4.0087,-4.0087,-4.0087,-4.0087,-4.0088,-4.0086,-4.0071,-3.8499,-3.5778,-3.5569,-3.5489,-3.5489,-3.5489,-3.5489,-3.5489,-3.5489,-3.5489,-3.5489,-3.5489,-3.5489,-3.5489,-3.5489,-3.4866,-3.3652,-3.3463,-3.2577,-3.107,-3.1469,-3.09,-2.9365,-2.9947,-2.9589,-2.8285,0.0,0.0,0.0,-2.8649,-2.8988,-2.9076,-2.8325,-2.7891,-2.7619,-2.6524,0.0,-2.5507,-2.4125,-2.3272,-2.3051,-2.2066,0.0,0.0,0.0,0.0,0.0,0.0,0.0,0.0,0.0,0.0,0.0,-2.0742,-2.0352,-2.0596,-2.084,-2.1489,-2.2635,-2.269,-2.2774,-2.3044,-2.3427,-2.3477,-2.2952,-2.3673,-2.4244,-2.4297,-2.4507,-2.4668,-2.4668,-2.4746,-2.4941,-2.5303,-2.5703,-2.6113,-2.6406,-2.6797,-2.7153,-2.7587,-2.7452,-2.7329,-2.7396,-2.6663,-2.583,-2.5275,-2.5039,-2.4912,-2.4785,-2.4795,-2.4863,-2.4971,-2.4922,-2.4814,-2.498,-2.4844,-2.4814,-2.4814,-2.4717,-2.4668,-2.4551,-2.4199,-2.4062,-2.4551,-2.4609,-2.4512,-4.0087,0.0,-4.0087,-4.0087,0.0,-3.9698,-3.9546,-3.9564,-3.9939,-3.8382,-3.5483,-3.5477,-3.5484,-3.5489,-3.5489,-3.5489,-3.5489,-3.5489,-3.5325,-3.4996,-3.4996,-3.4831,-3.4517,-3.4517,-3.3928,-3.2695,-3.2208,-3.1335,-2.9971,-2.9971,-2.9483,-2.8511,-2.9014,-2.8873,-2.8122,-2.8386,-2.8524,-2.8511,-2.8787,-2.9063,-2.9327,-2.8836,-2.8399,-2.7889,0.0,0.0,0.0,0.0,0.0,0.0,0.0,0.0,0.0,0.0,0.0,-2.1221,-2.1221,-2.1221,-2.1221,-2.1211,-2.1494,-2.2139,-2.1973,-2.1559,-2.1031,-2.1695,-2.2373,-2.3014,-2.2928,-2.2998,-2.3408,-2.3486,-2.3534,-2.3554,-2.3751,-2.3948,-2.4152,-2.4302,-2.4312,-2.4283,-2.4302,-2.4512,-2.4717,-2.4932,-2.5156,-2.5381,-2.5586,-2.5762,-2.582,-2.6494,-2.6894,-2.6445,-2.5644,-2.4941,-2.4541,-2.4482,-2.4316,-2.4189,-2.4277,-2.4404,-2.4424,-2.4248,-2.416,-2.4336,-2.4258,-2.4111,-2.4111,-2.4111,-2.4043,-2.3828,-2.3613,-2.3525,-2.375,-2.3789,-2.3779,-4.0087,-4.0087,-4.0087,-4.0053,-3.9834,-3.9242,-3.8905,-3.8857,0.0,0.0,0.0,-3.5412,-3.5416,-3.5325,-3.5325,-3.5265,-3.516,-3.5145,-3.4846,-3.4307,-3.4307,-3.4008,-3.3499,-3.3347,-3.2761,-3.179,-3.0846,-2.997,-2.9096,-2.838,-2.8009,-2.8097,-2.8109,-2.8109,-2.8134,-2.8561,-2.8837,-2.8925,-2.8925,-2.9164,-2.9616,-2.9451,-2.8946,-2.8008,-2.6717,-2.5253,-2.3553,-2.2436,-2.1464,-2.0757,-2.0671,-2.0723,-2.0801,-2.1074,-2.1299,-2.1465,-2.1797,-2.2021,-2.21,-2.2109,-2.2256,-2.2607,-2.2939,-2.2736,-2.18,-2.2533,-2.3144,-2.3144,-2.3144,-2.3281,-2.3633,-2.3359,-2.331,-2.377,-2.3757,-2.3809,-2.4131,-2.4189,-2.404,-2.3948,-2.403,-2.4219,-2.4287,-2.4316,-2.4346,-2.4414,-2.4551,-2.4424,-2.459,-2.5605,-2.6182,-2.5566,-2.4844,-2.4209,-2.3945,-2.3965,-2.4043,-2.374,-2.3945,-2.418,-2.4141,-2.3906,-2.3848,-2.4062,-2.3887,-2.3711,-2.3672,-2.3672,-2.3555,-2.3213,-2.3144,-2.3144,-2.3144,-2.3144,-2.3184,-4.007,-4.0087,-4.0087,-3.9715,-3.914,-3.9039,-3.8639,-3.8186,-3.9495,-3.7726,-3.3865,-3.5009,-3.516,-3.4622,-3.4622,-3.4322,-3.3799,-3.3784,-3.3724,0.0,-3.3619,-3.3589,-3.3438,-3.2742,-3.1661,-3.0313,-2.9429,-2.852,-2.7665,-2.7465,-2.7632,-2.8047,-2.8109,-2.8097,-2.8122,-2.8185,-2.8461,-2.89,-2.8925,-2.8963,-2.9038,-2.8263,-2.7294,-2.6253,-2.4548,-2.3026,-2.1883,-2.1178,-2.0761,-2.0643,-2.0898,-2.1318,-2.166,-2.1406,-2.1562,-2.2256,-2.2393,-2.2578,-2.293,-2.2959,-2.2988,-2.3037,-2.3105,-2.2989,-2.2882,-2.2979,-2.3144,-2.3144,-2.3144,-2.3154,-2.3223,-2.3184,-2.3106,-2.3222,-2.3193,-2.3262,-2.3369,-2.3369,-2.329,-2.3281,-2.3222,-2.3506,-2.3818,-2.3877,-2.4004,-2.4307,-2.4277,-2.4375,-2.4375,-2.4609,-2.4736,-2.458,-2.4199,-2.3887,-2.375,-2.3486,-2.3379,-2.3252,-2.331,-2.3418,-2.3428,-2.335,-2.332,-2.334,-2.333,-2.3281,-2.3262,-2.3232,-2.3232,-2.3144,-2.3144,-2.3144,-2.3144,-2.3144,-2.3144,-4.0368,-4.007,-3.9648,-3.9309,-3.8937,-3.8142,-3.7362,-3.6655,-3.6577,-3.5047,-3.2691,-3.3834,-3.4226,-3.3948,-3.3948,-3.3784,-3.3499,-3.3499,-3.3305,-3.2976,-3.2961,-3.2766,-3.2393,-3.1579,-3.0586,-2.9403,-2.8249,-2.7442,-2.6848,-2.6527,-2.6653,-2.718,-2.7218,-2.7369,-2.7645,-2.767,-2.8084,-2.89,-2.8637,-2.8787,-2.9377,-2.8108,-2.7339,-2.7058,-2.4926,-2.336,-2.26,-2.174,-2.1064,-2.0576,-2.0996,-2.1435,-2.1846,-2.1699,-2.1963,-2.2783,-2.2852,-2.293,-2.3038,-2.3144,-2.2853,-2.2217,-2.2765,-2.2775,-2.2129,-2.2765,-2.3144,-2.3144,-2.3144,-2.3144,-2.3144,-2.3144,-2.3144,-2.3144,-2.3144,-2.3144,-2.3144,-2.3144,-2.3144,-2.3144,-2.3144,-2.3213,-2.3408,-2.3437,-2.3477,-2.3691,-2.3721,-2.373,-2.374,-2.374,-2.3818,-2.3984,-2.3721,-2.3477,-2.3428,-2.3291,-2.3154,-2.3144,-2.3144,-2.3144,-2.3144,-2.3144,-2.3144,-2.3144,-2.3144,-2.3144,-2.3144,-2.3144,-2.3144,-2.3144,-2.3144,-2.3144,-2.3144,-2.3144,-2.3144,-4.024,-3.9766,-3.9056,-3.865,-3.8379,-3.7094,-3.6169,-3.551,-3.4525,-3.3096,-3.1796,-3.2584,-3.3126,-3.326,-3.326,-3.32,-3.3066,-3.3051,-3.2781,-3.2317,-3.2302,-3.1901,-3.119,-3.0404,-2.9566,-2.8616,-2.7258,-2.6477,-2.6231,-2.5812,-2.5887,-2.6471,-2.6521,-2.6678,-2.708,-2.7105,-2.7582,-2.8461,-2.779,-2.8176,-2.9716,-2.8276,-2.7542,-2.7437,-2.5315,-2.3748,-2.2998,-2.2199,-2.1426,-2.0791,-2.1143,-2.1543,-2.1855,-2.1894,-2.2227,-2.2891,-2.2998,-2.3037,-2.3135,-2.3144,-2.2677,-2.1845,-2.2589,-2.2677,-2.1933,-2.2589,-2.3144,-2.3144,-2.3144,-2.3144,-2.3144,-2.3144,-2.3144,-2.3144,-2.3144,-2.3144,-2.3144,-2.3144,-2.3144,-2.3144,-2.3144,-2.3144,-2.3144,-2.3144,-2.3164,-2.3184,-2.3144,-2.3144,-2.3144,-2.3144,-2.3301,-2.3457,-2.335,-2.3184,-2.3144,-2.3144,-2.3144,-2.3144,-2.3144,-2.3144,-2.3144,-2.3144,-2.3144,-2.3144,-2.3144,-2.3144,-2.3144,-2.3144,-2.3144,-2.3144,-2.3144,-2.3144,-2.3144,-2.3144,-2.3144,-3.9205,-3.8988,-3.8311,-3.7601,-3.6924,-3.6096,-3.5715,-3.5625,-3.5463,-3.3937,-3.1631,-3.1631,-3.208,-3.2512,-3.2602,-3.2302,-3.1735,-3.1661,-3.1661,-3.1616,-3.1556,-3.1205,-3.0404,-2.9504,-2.8671,-2.7788,-2.6424,-2.5757,-2.5774,-2.5674,-2.5912,-2.6471,-2.6521,-2.649,-2.654,-2.6622,-2.6854,-2.7406,-2.5995,-2.6736,-2.9551,-2.8639,-2.7413,-2.6029,-2.4443,-2.2886,-2.156,-2.1299,-2.125,-2.1211,-2.1553,-2.1826,-2.1865,-2.1885,-2.208,-2.2529,-2.2578,-2.2734,-2.3086,-2.3144,-2.3028,-2.295,-2.295,-2.3038,-2.2843,-2.3038,-2.3135,-2.3008,-2.3028,-2.3144,-2.3144,-2.3144,-2.3144,-2.3144,-2.3144,-2.3144,-2.3144,-2.3144,-2.3144,-2.3144,-2.3144,-2.3144,-2.3144,-2.3144,-2.3144,-2.3144,-2.3144,-2.3144,-2.3144,-2.3144,-2.3057,-2.3213,-2.3154,-2.3144,-2.3144,-2.3144,-2.3144,-2.3144,-2.3144,-2.3144,-2.3144,-2.3144,-2.3144,-2.3144,-2.3144,-2.3144,-2.3144,-2.3135,-2.3047,-2.2775,-2.2862,-2.296,-2.3047,-2.296,-2.295,-3.9635,-3.887,-3.7736,-3.6806,-3.6096,-3.5757,-3.5585,-3.5625,-3.5628,-3.4037,-3.168,-3.1492,-3.1677,-3.1943,-3.1928,-3.1764,-3.1482,-3.1467,-3.1467,-3.1467,-3.1029,-3.0584,-3.0208,-2.8876,-2.8051,-2.7578,-2.5932,-2.5485,-2.6013,-2.6101,-2.6226,-2.6496,-2.6521,-2.6521,-2.6521,-2.6521,-2.6728,-2.7256,-2.6689,-2.6858,-2.7536,-2.5922,-2.4801,-2.4367,-2.2956,-2.187,-2.123,-2.0986,-2.084,-2.085,-2.1016,-2.123,-2.1484,-2.1504,-2.1689,-2.209,-2.2139,-2.2217,-2.2383,-2.2617,-2.2409,-2.1764,-2.2543,-2.2766,-2.1792,-2.2313,-2.2389,-2.1664,-2.238,-2.3144,-2.3038,-2.3135,-2.3144,-2.3144,-2.3144,-2.3135,-2.3144,-2.3135,-2.3144,-2.3144,-2.3144,-2.3135,-2.3144,-2.3144,-2.3144,-2.3144,-2.3135,-2.3047,-2.3047,-2.3144,-2.3144,-2.3144,-2.3144,-2.3144,-2.3144,-2.3144,-2.3135,-2.3135,-2.3144,-2.3144,-2.3125,-2.3135,-2.3144,-2.3144,-2.3047,-2.3047,-2.3144,-2.3047,-2.295,-2.2394,-2.1302,-2.0953,-2.0953,-2.1578,-2.1933,-3.9467,-3.8272,-3.7009,-3.6146,-3.5639,-3.5639,-3.5631,-3.551,-3.5199,-3.3725,-3.1619,-3.1486,-3.1467,-3.1452,-3.1345,-3.1273,-3.1437,-3.1345,-3.1302,-3.1379,-3.0644,-3.0208,-2.9813,-2.8427,-2.7512,-2.6933,-2.5739,-2.5448,-2.6163,-2.6226,-2.637,-2.6496,-2.6521,-2.6521,-2.6521,-2.6521,-2.671,-2.7005,-2.6606,-2.6106,-2.5471,-2.3394,-2.2538,-2.316,-2.193,-2.1182,-2.1045,-2.0742,-2.0576,-2.0576,-2.0576,-2.0713,-2.1025,-2.1045,-2.124,-2.166,-2.1826,-2.1894,-2.1894,-2.2285,-2.2149,-2.1453,-2.2351,-2.2293,-2.1213,-2.1418,-2.1316,-2.0576,-2.1437,-2.2246,-2.2505,-2.2399,-2.2476,-2.2843,-2.2969,-2.2969,-2.3085,-2.2988,-2.2959,-2.2872,-2.2707,-2.2852,-2.293,-2.2853,-2.2843,-2.2476,-2.2775,-2.2785,-2.2659,-2.2775,-2.3144,-2.3144,-2.3144,-2.3144,-2.3144,-2.3144,-2.3115,-2.3018,-2.2998,-2.3096,-2.3047,-2.3027,-2.3135,-2.3047,-2.2862,-2.2501,-2.2217,-2.2306,-2.1924,-2.0998,-2.0039,-1.9331,-1.9659,-2.0171,-2.043,-3.8057,-3.6852,-3.6011,-3.5673,-3.5622,-3.5577,-3.5602,-3.5512,-3.4295,-3.2872,-3.1595,-3.1486,-3.1467,-3.1422,-3.0911,-3.0926,-3.1332,-3.0881,-3.0899,-3.1306,-3.0615,-2.9813,-2.8989,-2.8103,-2.6998,-2.5987,-2.5665,-2.5561,-2.5674,-2.5674,-2.5925,-2.6496,-2.6521,-2.6521,-2.6521,-2.6521,-2.6533,-2.6402,-2.4933,-2.3813,-2.3468,-2.1828,-2.1494,-2.2564,-2.1759,-2.1016,-2.0674,-2.0586,-2.0576,-2.0576,-2.0576,-2.0586,-2.0615,-2.0615,-2.082,-2.123,-2.1631,-2.1855,-2.1875,-2.2197,-2.2357,-2.2376,-2.2405,-2.2064,-2.1038,-2.0752,-2.0457,-2.0168,-2.0186,-2.048,-2.0875,-2.0994,-2.1212,-2.2215,-2.2444,-2.2578,-2.2913,-2.2398,-2.2444,-2.2196,-2.189,-2.1815,-2.233,-2.2549,-2.1883,-2.1506,-2.2176,-2.2446,-2.1456,-2.2157,-2.264,-2.2853,-2.2863,-2.3028,-2.3038,-2.3144,-2.2969,-2.2793,-2.2852,-2.2988,-2.2871,-2.2822,-2.2969,-2.2833,-2.2054,-2.1594,-2.1185,-2.0648,-1.9983,-1.934,-1.9019,-1.8669,-1.8182,-1.8592,-1.8883,-3.7222,-3.6028,-3.574,-3.5639,-3.5577,-3.5144,-3.5182,-3.5463,-3.4154,-3.2796,-3.1687,-3.1522,-3.1467,-3.1437,-3.0806,-3.0881,-3.1435,-3.0821,-3.0567,-3.0616,-2.9476,-2.8692,-2.805,-2.6868,-2.6311,-2.6156,-2.567,-2.5494,-2.5636,-2.5963,-2.6239,-2.6402,-2.6521,-2.6521,-2.6521,-2.6521,-2.6521,-2.6383,-2.5146,-2.4192,-2.3441,-2.2188,-2.1533,-2.1386,-2.1036,-2.0723,-2.0576,-2.0576,-2.0576,-2.0576,-2.0576,-2.0576,-2.0576,-2.0576,-2.0625,-2.0791,-2.0957,-2.1035,-2.1084,-2.1455,-2.1699,-2.1719,-2.1963,-2.1826,-2.1205,-2.0933,-2.0498,-1.9625,-1.8728,-1.8637,-1.9216,-2.0318,-2.1146,-2.1006,-2.1034,-2.1043,-2.1071,-2.0534,-1.9995,-1.9977,-1.9862,-1.996,-2.0303,-2.0376,-2.021,-2.0136,-2.0297,-2.0245,-1.9948,-2.014,-2.0598,-2.1087,-2.1258,-2.1608,-2.2725,-2.2998,-2.3027,-2.2725,-2.2637,-2.2561,-2.2493,-2.2175,-2.2223,-2.1664,-2.1067,-2.0297,-1.9851,-1.8905,-1.8198,-1.7923,-1.7617,-1.7077,-1.6439,-1.6995,-1.7313,-3.6429,-3.5656,-3.5639,-3.547,-3.5207,-3.48,-3.4725,-3.488,-3.4004,-3.2823,-3.1685,-3.1467,-3.142,-3.1165,-3.0702,-3.0612,-3.0881,-3.0612,-3.0567,-3.0571,-2.9144,-2.8365,-2.7931,-2.6511,-2.5937,-2.6088,-2.5695,-2.5494,-2.5649,-2.6244,-2.6508,-2.6521,-2.6521,-2.6521,-2.6521,-2.6521,-2.6521,-2.6302,-2.5511,-2.4492,-2.3514,-2.2553,-2.1517,-2.0789,-2.0576,-2.0576,-2.0576,-2.0576,-2.0576,-2.0576,-2.0576,-2.0576,-2.0576,-2.0576,-2.0576,-2.0576,-2.0576,-2.0576,-2.0615,-2.0986,-2.107,-2.0747,-2.1448,-2.1535,-2.0451,-2.0476,-2.0099,-1.9065,-1.7989,-1.7466,-1.8011,-1.9359,-2.0154,-1.9561,-1.9512,-1.9503,-1.9428,-1.8829,-1.8431,-1.833,-1.8574,-1.8684,-1.8729,-1.8663,-1.8586,-1.8523,-1.8733,-1.9007,-1.836,-1.8531,-1.8751,-1.9519,-1.9742,-2.0121,-2.0707,-2.1085,-2.1556,-2.1409,-2.1947,-2.1957,-2.1476,-2.1322,-2.1044,-2.0506,-1.9858,-1.909,-1.8232,-1.7206,-1.6704,-1.6465,-1.6077,-1.5606,-1.5374,-1.5472,-1.5836,-3.5622,-3.5571,-3.556,-3.522,-3.4653,-3.4511,-3.4196,-3.3738,-3.3521,-3.2578,-3.1405,-3.1377,-3.1019,-3.0657,-3.0537,-3.0238,-3.0088,-3.0362,-3.0639,-3.0808,-2.9563,-2.8829,-2.8542,-2.6956,-2.5937,-2.5636,-2.5598,-2.5586,-2.5624,-2.6231,-2.6521,-2.6521,-2.6521,-2.6521,-2.6521,-2.6521,-2.6521,-2.6314,-2.5511,-2.4492,-2.3514,-2.2553,-2.1517,-2.0722,-2.0576,-2.0576,-2.0576,-2.0576,-2.0576,-2.0576,-2.0576,-2.0576,-2.0576,-2.0576,-2.0576,-2.0576,-2.0576,-2.0566,-2.0528,-2.0789,-2.0491,-2.0014,-2.098,-2.0724,-1.9297,-1.9389,-1.9659,-1.9197,-1.8069,-1.7367,-1.7286,-1.7425,-1.7557,-1.7896,-1.7962,-1.7954,-1.7962,-1.7962,-1.7755,-1.7351,-1.754,-1.8141,-1.787,-1.7461,-1.707,-1.6896,-1.7628,-1.8026,-1.6797,-1.7212,-1.8239,-1.8504,-1.8396,-1.8541,-1.8784,-1.8924,-1.9454,-1.9974,-2.0754,-2.1081,-1.9901,-1.9445,-1.9446,-1.8919,-1.7913,-1.7174,-1.6721,-1.5791,-1.5603,-1.5335,-1.4696,-1.4543,-1.4649,-1.4754,-1.4538,-3.5318,-3.4928,-3.5419,-3.4906,-3.3902,-3.3876,-3.3587,-3.3061,-3.2461,-3.1558,-3.0705,-3.0312,-3.0294,-3.0451,-3.0507,-3.0657,-3.0869,-3.0572,-2.9911,-2.9171,-2.8641,-2.8075,-2.7235,-2.594,-2.5234,-2.5159,-2.5448,-2.5586,-2.5674,-2.6163,-2.6521,-2.6521,-2.6521,-2.6521,-2.6521,-2.6521,-2.6521,-2.6383,-2.5511,-2.4492,-2.3526,-2.2542,-2.1517,-2.0722,-2.0576,-2.0576,-2.0576,-2.0576,-2.0576,-2.0566,-2.0576,-2.0576,-2.0576,-2.0576,-2.0576,-2.0576,-2.0576,-2.0235,-1.9608,-1.9641,-1.9654,-1.9334,-1.9694,-1.9934,-1.9823,-2.0052,-2.0163,-1.9854,-1.847,-1.7342,-1.7098,-1.5876,-1.5612,-1.6345,-1.6436,-1.6451,-1.6383,-1.5883,-1.5336,-1.518,-1.534,-1.5485,-1.5626,-1.5526,-1.5604,-1.5521,-1.5863,-1.5719,-1.5425,-1.5526,-1.5848,-1.6415,-1.6522,-1.6999,-1.7459,-1.7571,-1.7685,-1.8287,-1.9013,-1.9331,-1.8263,-1.7813,-1.7818,-1.7282,-1.6294,-1.5655,-1.5123,-1.481,-1.4703,-1.4596,-1.4436,-1.4322,-1.4235,-1.4168,-1.4108,-3.4675,-3.4556,-3.4996,-3.4705,-3.3919,-3.3725,-3.3119,-3.2384,-3.1766,-3.1019,-3.025,-2.9761,-2.9799,-3.0212,-3.0657,-3.0836,-3.0768,-3.0396,-2.9487,-2.8167,-2.7993,-2.7588,-2.6777,-2.5681,-2.4653,-2.4364,-2.4943,-2.5184,-2.5046,-2.5749,-2.6138,-2.6151,-2.6352,-2.6521,-2.6521,-2.6521,-2.6521,-2.6383,-2.5511,-2.4492,-2.3526,-2.2553,-2.1517,-2.0712,-2.0576,-2.0576,-2.0557,-2.043,-2.04,-2.0537,-2.0576,-2.0576,-2.0576,-2.0576,-2.0576,-2.0576,-2.0566,-2.0323,-1.9678,-1.9687,-1.9116,-1.8647,-1.8923,-1.9181,-1.9515,-1.9771,-2.0191,-1.9784,-1.839,-1.709,-1.6519,-1.5228,-1.4489,-1.4977,-1.5151,-1.5137,-1.4977,-1.4489,-1.4166,-1.425,-1.4257,-1.4188,-1.4302,-1.4496,-1.4576,-1.473,-1.4643,-1.4516,-1.4456,-1.4354,-1.4726,-1.4977,-1.5132,-1.5661,-1.624,-1.6255,-1.598,-1.6469,-1.7143,-1.7096,-1.6484,-1.6633,-1.6695,-1.597,-1.4995,-1.4902,-1.4469,-1.4436,-1.4355,-1.4249,-1.4222,-1.4182,-1.4142,-1.4128,-1.4088,-3.3795,-3.4353,-3.4411,-3.4347,-3.4152,-3.3689,-3.2782,-3.1671,-3.1501,-3.1019,-3.0309,-2.9532,-2.9484,-2.9869,-3.0567,-3.0436,-2.9748,-2.9798,-2.9148,-2.8009,-2.7544,-2.7367,-2.7144,-2.5968,-2.4641,-2.3604,-2.4304,-2.4519,-2.4255,-2.5197,-2.5598,-2.5711,-2.6201,-2.6521,-2.6452,-2.6452,-2.6302,-2.6094,-2.53,-2.4337,-2.3356,-2.2478,-2.1517,-2.0644,-2.0576,-2.0576,-2.0527,-2.0264,-2.0195,-2.0469,-2.0527,-2.0576,-2.0576,-2.0576,-2.0576,-2.0566,-2.0566,-2.0245,-2.0323,-1.9678,-1.9027,-1.7521,-1.822,-1.8956,-1.8091,-1.8788,-1.9255,-1.902,-1.7836,-1.6764,-1.5779,-1.4817,-1.425,-1.4088,-1.425,-1.425,-1.4166,-1.4088,-1.4088,-1.4088,-1.4088,-1.4095,-1.4135,-1.4428,-1.4536,-1.4482,-1.4469,-1.4442,-1.4402,-1.4235,-1.4122,-1.425,-1.4412,-1.4608,-1.5288,-1.5324,-1.5134,-1.5295,-1.5775,-1.557,-1.5267,-1.5521,-1.5553,-1.4818,-1.4372,-1.4247,-1.4148,-1.4175,-1.4175,-1.4148,-1.4122,-1.4095,-1.4088,-1.4088,-1.4088,-3.3186,-3.2942,-3.3501,-3.3184,-3.2385,-3.2672,-3.2345,-3.1573,-3.1507,-3.1091,-3.0205,-2.877,-2.8792,-2.9549,-2.943,-2.9099,-2.8895,-2.8689,-2.7886,-2.6689,-2.6324,-2.6425,-2.6518,-2.5574,-2.4355,-2.3392,-2.3829,-2.413,-2.4092,-2.4996,-2.5523,-2.5624,-2.6113,-2.644,-2.6452,-2.5804,-2.5441,-2.5229,-2.4409,-2.3452,-2.2553,-2.2178,-2.1517,-2.0722,-2.0576,-2.0566,-2.0566,-2.0459,-2.0254,-2.0117,-2.041,-2.0566,-2.0576,-2.0576,-2.0576,-2.0489,-1.9835,-1.9036,-1.831,-1.7568,-1.6748,-1.6273,-1.6696,-1.7147,-1.807,-1.7963,-1.8143,-1.8083,-1.7155,-1.6026,-1.5621,-1.4734,-1.4166,-1.4088,-1.4088,-1.4088,-1.4088,-1.4088,-1.4088,-1.4088,-1.4088,-1.4088,-1.4108,-1.4155,-1.4327,-1.4242,-1.4235,-1.4255,-1.4275,-1.4208,-1.4088,-1.4088,-1.4166,-1.4166,-1.4193,-1.4233,-1.4325,-1.4368,-1.4551,-1.4642,-1.4537,-1.4594,-1.4496,-1.42,-1.422,-1.4115,-1.4108,-1.4122,-1.4095,-1.4122,-1.4135,-1.4155,-1.4102,-1.4088,-1.4088,-3.2391,-3.23,-3.2552,-3.2485,-3.2208,-3.1903,-3.1828,-3.186,-3.1603,-3.0994,-3.0033,-2.9009,-2.8739,-2.9146,-2.9071,-2.8961,-2.882,-2.8029,-2.727,-2.6559,-2.5679,-2.56,-2.5691,-2.4925,-2.4004,-2.3203,-2.3464,-2.3602,-2.3753,-2.4519,-2.4996,-2.5322,-2.5824,-2.6065,-2.5791,-2.537,-2.4719,-2.4253,-2.3368,-2.2553,-2.2027,-2.1593,-2.1155,-2.0644,-2.0566,-2.0508,-2.0342,-2.0459,-2.043,-2.0293,-2.043,-2.0576,-2.0576,-2.0576,-2.0576,-2.0557,-1.9599,-1.8718,-1.7989,-1.7009,-1.6191,-1.5779,-1.5696,-1.6221,-1.6918,-1.6878,-1.6886,-1.7,-1.6221,-1.5628,-1.4977,-1.4412,-1.4166,-1.4088,-1.4088,-1.4088,-1.4088,-1.4088,-1.4088,-1.4088,-1.4088,-1.4088,-1.4088,-1.4088,-1.4155,-1.4222,-1.4188,-1.4229,-1.4269,-1.4162,-1.4088,-1.4088,-1.4088,-1.4088,-1.4088,-1.4115,-1.4128,-1.4095,-1.4088,-1.4088,-1.4088,-1.4088,-1.4088,-1.4088,-1.4088,-1.4088,-1.4095,-1.4128,-1.4195,-1.4222,-1.4222,-1.4188,-1.4142,-1.4088,-1.4088,-3.1562,-3.2131,-3.1546,-3.2015,-3.2655,-3.1394,-3.1204,-3.1951,-3.1658,-3.0774,-2.9759,-2.9426,-2.8892,-2.8622,-2.8906,-2.9227,-2.9025,-2.7611,-2.6978,-2.6216,-2.5431,-2.4912,-2.5113,-2.4519,-2.3828,-2.3376,-2.3251,-2.3401,-2.3728,-2.4104,-2.4494,-2.5018,-2.5403,-2.5326,-2.5063,-2.4707,-2.4192,-2.3305,-2.2414,-2.1886,-2.1593,-2.1078,-2.0722,-2.0644,-2.0576,-2.041,-2.0264,-2.0361,-2.0547,-2.0566,-2.0576,-2.0489,-2.0489,-2.0411,-2.0245,-1.9844,-1.8948,-1.831,-1.831,-1.709,-1.6363,-1.5545,-1.5372,-1.5538,-1.5628,-1.5545,-1.5553,-1.565,-1.5538,-1.5061,-1.4412,-1.4088,-1.4088,-1.4088,-1.4088,-1.4088,-1.4088,-1.4088,-1.4088,-1.4088,-1.4088,-1.4088,-1.4088,-1.4108,-1.4168,-1.4208,-1.4175,-1.4175,-1.4208,-1.4162,-1.4102,-1.4088,-1.4088,-1.4088,-1.4088,-1.4088,-1.4095,-1.4088,-1.4088,-1.4088,-1.4088,-1.4088,-1.4088,-1.4088,-1.4088,-1.4088,-1.4095,-1.4155,-1.4249,-1.4235,-1.4182,-1.4175,-1.4162,-1.4108,-1.4088,-3.1292,-3.1381,-3.0871,-3.0746,-3.0975,-3.0637,-3.0407,-3.0347,-3.1167,-3.0594,-2.9564,-2.8536,-2.8284,-2.8562,-2.8263,-2.7736,-2.7316,-2.6623,-2.5859,-2.4641,-2.4467,-2.4217,-2.4292,-2.4041,-2.4003,-2.3865,-2.3816,-2.4017,-2.4406,-2.4732,-2.5272,-2.5278,-2.5098,-2.5085,-2.472,-2.343,-2.2553,-2.2178,-2.1375,-2.1011,-2.1011,-2.0789,-2.0576,-2.0576,-2.0576,-2.0537,-2.0469,-2.0508,-2.0566,-2.0576,-2.0489,-2.0157,-1.9599,-1.9362,-1.9036,-1.8221,-1.7163,-1.6511,-1.6265,-1.5628,-1.4741,-1.4657,-1.4573,-1.4405,-1.4405,-1.4489,-1.4496,-1.4412,-1.4412,-1.4412,-1.4166,-1.4088,-1.4088,-1.4088,-1.4088,-1.4088,-1.4088,-1.4088,-1.4088,-1.4088,-1.4088,-1.4088,-1.4088,-1.4088,-1.4128,-1.4168,-1.4162,-1.4135,-1.4135,-1.4135,-1.4115,-1.4088,-1.4088,-1.4088,-1.4088,-1.4088,-1.4088,-1.4088,-1.4088,-1.4088,-1.4088,-1.4088,-1.4088,-1.4088,-1.4088,-1.4088,-1.4095,-1.4148,-1.4229,-1.4182,-1.4155,-1.4162,-1.4155,-1.4115,-1.4088,-3.119,-3.1106,-3.0298,-3.0112,-3.0259,-2.951,-2.9295,-2.952,-2.9579,-2.946,-2.8988,-2.8047,-2.781,-2.8098,-2.7754,-2.7218,-2.6379,-2.5589,-2.4682,-2.3821,-2.359,-2.359,-2.359,-2.364,-2.3715,-2.4003,-2.3703,-2.3929,-2.4393,-2.468,-2.4676,-2.4706,-2.4582,-2.3967,-2.3462,-2.2424,-2.1886,-2.1375,-2.0944,-2.0576,-2.0576,-2.0576,-2.0576,-2.0576,-2.0576,-2.0576,-2.0557,-2.0566,-2.0566,-2.0479,-2.0079,-1.9599,-1.8948,-1.8479,-1.7908,-1.7253,-1.6273,-1.5696,-1.5455,-1.4734,-1.4166,-1.4088,-1.4088,-1.4088,-1.4088,-1.4088,-1.4088,-1.4088,-1.4088,-1.4088,-1.4088,-1.4088,-1.4088,-1.4088,-1.4088,-1.4088,-1.4088,-1.4088,-1.4088,-1.4088,-1.4088,-1.4088,-1.4088,-1.4088,-1.4095,-1.4128,-1.4128,-1.4108,-1.4102,-1.4108,-1.4102,-1.4088,-1.4088,-1.4088,-1.4088,-1.4088,-1.4088,-1.4088,-1.4088,-1.4088,-1.4088,-1.4088,-1.4088,-1.4088,-1.4088,-1.4088,-1.4102,-1.4155,-1.4188,-1.4168,-1.4155,-1.4162,-1.4142,-1.4102,-1.4088,-3.119,-3.1095,-2.9978,-2.9833,-2.9926,-2.8652,-2.8508,-2.9011,-2.8322,-2.8412,-2.8286,-2.781,-2.7646,-2.7619,-2.7655,-2.7137,-2.6122,-2.5021,-2.3988,-2.3286,-2.3414,-2.3464,-2.3391,-2.3441,-2.3566,-2.3904,-2.3601,-2.3701,-2.4079,-2.4104,-2.4282,-2.3802,-2.3647,-2.3106,-2.1878,-2.1385,-2.112,-2.0592,-2.0468,-2.0488,-2.0557,-2.0576,-2.0576,-2.0576,-2.0576,-2.0576,-2.0576,-2.0566,-2.0489,-2.0313,-1.9362,-1.8718,-1.8301,-1.7738,-1.6935,-1.6764,-1.5703,-1.5379,-1.513,-1.4566,-1.4088,-1.4088,-1.4088,-1.4048,-1.4021,-1.4035,-1.4035,-1.4028,-1.4028,-1.4088,-1.4088,-1.4088,-1.4088,-1.4088,-1.4088,-1.4088,-1.4088,-1.4088,-1.4088,-1.4088,-1.4088,-1.4088,-1.4088,-1.4088,-1.4088,-1.4088,-1.4088,-1.4088,-1.4088,-1.4088,-1.4088,-1.4088,-1.4088,-1.4088,-1.4088,-1.4088,-1.4088,-1.4088,-1.4088,-1.4088,-1.3997,-1.3555,-1.3555,-1.3997,-1.4088,-1.3997,-1.4024,-1.4168,-1.4182,-1.4162,-1.4155,-1.4162,-1.4135,-1.4095,-1.3997,-3.119,-3.1134,-3.0435,-2.993,-2.9555,-2.9277,-2.8636,-2.8171,-2.8748,-2.8628,-2.7769,-2.7664,-2.7604,-2.7575,-2.756,-2.6864,-2.5728,-2.4681,-2.3884,-2.3273,-2.3428,-2.3703,-2.3678,-2.3629,-2.3816,-2.3953,-2.3799,-2.3976,-2.433,-2.4643,-2.3993,-2.3783,-2.2903,-2.1881,-2.1093,-2.0417,-2.0054,-2.0075,-2.0078,-2.0225,-2.0439,-2.0557,-2.0576,-2.0566,-2.0489,-2.0411,-2.0479,-2.0479,-2.0157,-1.9274,-1.8149,-1.7253,-1.6601,-1.6191,-1.5628,-1.5061,-1.4734,-1.4573,-1.4489,-1.4328,-1.4088,-1.4088,-1.4055,-1.3921,-1.3841,-1.3901,-1.3888,-1.3874,-1.3961,-1.4088,-1.4088,-1.4088,-1.4088,-1.4088,-1.4088,-1.4088,-1.4088,-1.4088,-1.4088,-1.4088,-1.4088,-1.4088,-1.4088,-1.4088,-1.4088,-1.4088,-1.4088,-1.4088,-1.4088,-1.4088,-1.4088,-1.4088,-1.4088,-1.4088,-1.4088,-1.4088,-1.4088,-1.4088,-1.4088,-1.4088,-1.3822,-1.3027,-1.2936,-1.3379,-1.3646,-1.3561,-1.3691,-1.3822,-1.3717,-1.3332,-1.3613,-1.407,-1.36,-1.313,-1.3476,-3.0277,-3.0577,-2.9995,-2.9609,-2.9377,-2.9076,-2.8247,-2.733,-2.8102,-2.7991,-2.744,-2.7409,-2.759,-2.758,-2.756,-2.6759,-2.5508,-2.4624,-2.3897,-2.3346,-2.3353,-2.3552,-2.3577,-2.3566,-2.3541,-2.3527,-2.3548,-2.3591,-2.3707,-2.368,-2.3209,-2.2173,-2.1509,-2.0896,-2.0124,-1.9588,-1.9365,-1.959,-1.9785,-2.0,-2.0254,-2.042,-2.0566,-2.0489,-2.0079,-1.9756,-1.9678,-1.9107,-1.8709,-1.7989,-1.709,-1.6273,-1.5696,-1.5137,-1.465,-1.425,-1.4088,-1.4088,-1.4088,-1.4082,-1.4021,-1.3868,-1.3861,-1.3714,-1.354,-1.3527,-1.3634,-1.3728,-1.3901,-1.4088,-1.4088,-1.4088,-1.4088,-1.4088,-1.4088,-1.4088,-1.4088,-1.4088,-1.4088,-1.4088,-1.4088,-1.4088,-1.4088,-1.4088,-1.4088,-1.4088,-1.4088,-1.4088,-1.4088,-1.4088,-1.4088,-1.4088,-1.4088,-1.4088,-1.4088,-1.4088,-1.3906,-1.3822,-1.3822,-1.3822,-1.347,-1.251,-1.2504,-1.2851,-1.2948,-1.2345,-1.2266,-1.1946,-1.2186,-1.2345,-1.2277,-1.2289,-1.2272,-1.226,-1.2522,-2.933,-2.985,-2.9382,-2.9157,-2.903,-2.8495,-2.7658,-2.6801,-2.7028,-2.6916,-2.6516,-2.6886,-2.7203,-2.732,-2.7063,-2.6428,-2.53,-2.4509,-2.3649,-2.3258,-2.3115,-2.3103,-2.3078,-2.3125,-2.3188,-2.3238,-2.3201,-2.2924,-2.2678,-2.2635,-2.1635,-2.0815,-2.0508,-1.9918,-1.8982,-1.8929,-1.9053,-1.9248,-1.9453,-1.9678,-1.9971,-2.0322,-2.0576,-2.0489,-1.9599,-1.9,-1.8882,-1.7977,-1.7263,-1.6694,-1.6087,-1.5509,-1.5209,-1.4538,-1.4082,-1.4088,-1.4088,-1.4088,-1.4075,-1.3981,-1.3868,-1.3714,-1.3519,-1.34,-1.3206,-1.3173,-1.328,-1.3601,-1.3821,-1.4021,-1.4062,-1.4088,-1.4088,-1.4088,-1.4088,-1.4088,-1.4088,-1.4088,-1.4088,-1.4088,-1.4088,-1.4088,-1.4088,-1.4088,-1.4088,-1.4088,-1.4088,-1.4088,-1.4088,-1.4088,-1.4088,-1.4088,-1.4088,-1.4088,-1.4088,-1.4088,-1.3737,-1.3294,-1.3209,-1.3118,-1.2687,-1.1986,-1.1906,-1.1472,-1.0519,-0.9913,-1.0005,-1.0524,-1.1133,-1.1305,-1.0788,-1.0788,-1.1219,-1.1305,-1.1391,-2.9042,-2.9093,-2.9073,-2.8736,-2.8232,-2.7756,-2.7079,-2.6396,-2.606,-2.5826,-2.5719,-2.5794,-2.6171,-2.6466,-2.5969,-2.559,-2.4995,-2.4026,-2.3213,-2.2924,-2.3062,-2.31,-2.31,-2.3125,-2.3005,-2.2957,-2.3017,-2.2653,-2.2044,-2.1855,-2.124,-2.0105,-1.9505,-1.9151,-1.8605,-1.8428,-1.8359,-1.8592,-1.8718,-1.9097,-1.9739,-2.0197,-2.0362,-2.0081,-1.934,-1.8522,-1.8039,-1.7116,-1.6205,-1.5309,-1.5325,-1.4786,-1.4131,-1.4122,-1.4062,-1.4088,-1.4088,-1.4082,-1.4048,-1.3921,-1.3721,-1.3587,-1.3427,-1.3126,-1.2906,-1.2943,-1.3151,-1.3974,-1.3803,-1.3814,-1.3988,-1.4075,-1.4082,-1.4088,-1.4088,-1.4088,-1.4088,-1.4088,-1.4088,-1.4088,-1.4088,-1.4088,-1.4088,-1.4088,-1.4088,-1.4088,-1.4088,-1.4088,-1.4088,-1.4088,-1.4088,-1.4088,-1.3997,-1.3997,-1.3561,-1.3646,-1.3209,-1.2687,-1.2425,-1.2334,-1.1729,-1.1042,-1.0009,-0.9405,-0.8532,-0.844,-0.9222,-0.9918,-1.0351,-1.0178,-0.9744,-1.0005,-1.0611,-1.0524,-1.0091,-2.6928,-2.7723,-2.8146,-2.826,-2.8079,-2.7858,-2.7029,-2.5998,-2.5647,-2.5394,-2.5001,-2.4624,-2.501,-2.5671,-2.5264,-2.4769,-2.4284,-2.3576,-2.2853,-2.2581,-2.2774,-2.2949,-2.2799,-2.2902,-2.2944,-2.2519,-2.2235,-2.1463,-2.1008,-2.0805,-2.0412,-1.9069,-1.8708,-1.8484,-1.8311,-1.8115,-1.8144,-1.8311,-1.8465,-1.8658,-1.876,-1.8892,-1.8833,-1.8271,-1.7277,-1.6818,-1.6496,-1.5474,-1.4699,-1.4078,-1.4271,-1.4034,-1.3635,-1.3749,-1.402,-1.3834,-1.3828,-1.3908,-1.4028,-1.3928,-1.3707,-1.3447,-1.324,-1.3013,-1.2672,-1.2735,-1.2792,-1.3001,-1.346,-1.3687,-1.3848,-1.3995,-1.4062,-1.4088,-1.4088,-1.4088,-1.4088,-1.4088,-1.4088,-1.4088,-1.4075,-1.4041,-1.4021,-1.4028,-1.4048,-1.4088,-1.4088,-1.4088,-1.4088,-1.4088,-1.4088,-1.4088,-1.3997,-1.3822,-1.3203,-1.2857,-1.2163,-1.1729,-1.1391,-1.1128,-1.0783,-1.0009,-0.9061,-0.8452,-0.8101,-0.8273,-0.879,-0.879,-0.879,-0.8707,-0.8619,-0.8877,-0.9139,-0.8703,-0.8444,-2.5065,-2.5947,-2.686,-2.7341,-2.7474,-2.7564,-2.6719,-2.542,-2.5106,-2.4795,-2.4357,-2.388,-2.4264,-2.482,-2.4601,-2.4035,-2.336,-2.3041,-2.2528,-2.2242,-2.241,-2.2664,-2.2739,-2.2927,-2.2702,-2.1877,-2.1999,-2.1094,-2.0096,-1.9759,-1.9507,-1.8066,-1.8163,-1.8086,-1.8008,-1.8018,-1.8047,-1.8086,-1.8088,-1.7993,-1.7825,-1.7608,-1.7186,-1.6413,-1.5496,-1.4877,-1.4825,-1.3916,-1.3299,-1.3218,-1.341,-1.3342,-1.3218,-1.3454,-1.3622,-1.354,-1.3534,-1.3607,-1.3734,-1.3714,-1.3567,-1.3273,-1.2986,-1.2732,-1.2465,-1.2532,-1.2623,-1.2453,-1.3041,-1.3406,-1.3681,-1.3921,-1.4048,-1.4088,-1.4088,-1.4088,-1.4075,-1.4028,-1.3961,-1.3895,-1.3888,-1.3915,-1.3915,-1.3941,-1.3988,-1.4068,-1.4088,-1.4088,-1.4088,-1.4082,-1.3997,-1.3997,-1.3385,-1.3203,-1.2766,-1.2072,-1.1381,-1.0605,-1.0351,-0.9831,-0.9401,-0.8969,-0.8277,-0.7841,-0.7577,-0.7665,-0.7921,-0.7489,-0.7139,-0.7577,-0.7837,-0.7489,-0.7401,-0.7139,-0.7139,-2.4137,-2.3731,-2.5169,-2.5796,-2.5815,-2.6023,-2.5766,-2.5075,-2.4228,-2.3914,-2.3789,-2.3615,-2.3697,-2.3778,-2.3646,-2.3242,-2.2631,-2.1937,-2.18,-2.2002,-2.2347,-2.2498,-2.2589,-2.2598,-2.2506,-2.1782,-2.1514,-2.0593,-1.9628,-1.9212,-1.8777,-1.8134,-1.8008,-1.8008,-1.793,-1.7862,-1.7794,-1.7646,-1.7441,-1.7171,-1.6843,-1.6641,-1.628,-1.6002,-1.5265,-1.4682,-1.4419,-1.3397,-1.2835,-1.2639,-1.2808,-1.2946,-1.2832,-1.2988,-1.3048,-1.3233,-1.3233,-1.328,-1.3333,-1.336,-1.314,-1.2826,-1.2585,-1.2452,-1.2338,-1.2311,-1.2289,-1.2342,-1.2857,-1.33,-1.3574,-1.3868,-1.4005,-1.3915,-1.3861,-1.3771,-1.3778,-1.3908,-1.3834,-1.3714,-1.3707,-1.3768,-1.3848,-1.3888,-1.3988,-1.4068,-1.4088,-1.4088,-1.3913,-1.3906,-1.3822,-1.3639,-1.2772,-1.2419,-1.2157,-1.1381,-1.0265,-0.9483,-0.9052,-0.8444,-0.7837,-0.7489,-0.7665,-0.7492,-0.7316,-0.7139,-0.7139,-0.7139,-0.7139,-0.7139,-0.7139,-0.7139,-0.7139,-0.7139,-0.7139,-2.2987,-2.2835,-2.3833,-2.4509,-2.4901,-2.478,-2.4645,-2.4591,-2.4563,-2.4189,-2.358,-2.3599,-2.3392,-2.3066,-2.2538,-2.2097,-2.1521,-2.123,-2.1037,-2.1066,-2.138,-2.1681,-2.1811,-2.1691,-2.124,-2.0504,-2.0217,-1.9629,-1.8289,-1.8465,-1.8385,-1.8076,-1.8008,-1.8008,-1.793,-1.7482,-1.7198,-1.695,-1.636,-1.5808,-1.5041,-1.4887,-1.4475,-1.3806,-1.3664,-1.3374,-1.3299,-1.2852,-1.2607,-1.2532,-1.2587,-1.258,-1.2532,-1.2529,-1.2725,-1.2926,-1.2926,-1.2926,-1.2973,-1.306,-1.3066,-1.2766,-1.2492,-1.2305,-1.2305,-1.2305,-1.2264,-1.2443,-1.2676,-1.3053,-1.3093,-1.344,-1.3696,-1.3642,-1.3594,-1.3539,-1.3619,-1.3788,-1.3667,-1.3527,-1.3594,-1.3681,-1.3761,-1.3841,-1.3961,-1.4068,-1.4075,-1.399,-1.3698,-1.3379,-1.3118,-1.2772,-1.1906,-1.1042,-1.0692,-0.9918,-0.9148,-0.8536,-0.7925,-0.7577,-0.7228,-0.7228,-0.7316,-0.7139,-0.7139,-0.7139,-0.7139,-0.7139,-0.7139,-0.7139,-0.7139,-0.7139,-0.7139,-0.7139,-0.7139,-2.2327,-2.2378,-2.2868,-2.3418,-2.3919,-2.39,-2.3742,-2.3803,-2.4741,-2.4315,-2.3048,-2.2994,-2.2702,-2.2133,-2.1697,-2.1104,-2.0692,-2.0461,-2.0303,-2.0514,-2.0865,-2.1054,-2.1064,-2.094,-2.0676,-1.9437,-1.921,-1.883,-1.7593,-1.7822,-1.7969,-1.8008,-1.8008,-1.8008,-1.7755,-1.7008,-1.651,-1.6323,-1.525,-1.4466,-1.3787,-1.3411,-1.3207,-1.256,-1.2506,-1.2574,-1.2655,-1.2506,-1.2506,-1.2452,-1.2438,-1.2331,-1.2297,-1.2302,-1.2414,-1.253,-1.2619,-1.2619,-1.2679,-1.2752,-1.2886,-1.2795,-1.2465,-1.2338,-1.2305,-1.2311,-1.2325,-1.2345,-1.2579,-1.2822,-1.2842,-1.3171,-1.3481,-1.3507,-1.354,-1.3492,-1.3612,-1.3774,-1.3622,-1.342,-1.342,-1.3373,-1.3166,-1.315,-1.3276,-1.3349,-1.3341,-1.3206,-1.2859,-1.2403,-1.1906,-1.1472,-1.0783,-0.9923,-0.9148,-0.8623,-0.8189,-0.7925,-0.7489,-0.7401,-0.7139,-0.7139,-0.7139,-0.7139,-0.7139,-0.7139,-0.7139,-0.7139,-0.7139,-0.7139,-0.7139,-0.7139,-0.7139,-0.7139,-0.7139,-2.2327,-2.2327,-2.2361,-2.253,-2.2859,-2.3571,-2.3315,-2.286,-2.4286,-2.394,-2.2167,-2.1888,-2.1482,-2.1103,-2.1029,-2.0542,-2.0105,-1.9938,-2.0049,-2.0439,-2.0526,-2.0928,-2.1124,-2.0957,-2.018,-1.9474,-1.9062,-1.852,-1.7334,-1.7705,-1.7891,-1.8008,-1.8008,-1.8008,-1.7891,-1.6747,-1.6342,-1.6243,-1.4423,-1.3622,-1.3324,-1.2886,-1.2452,-1.2378,-1.2305,-1.2358,-1.2358,-1.2351,-1.2351,-1.2358,-1.2358,-1.2305,-1.2325,-1.2331,-1.2297,-1.2365,-1.2358,-1.2345,-1.2345,-1.2345,-1.2485,-1.2632,-1.2405,-1.2338,-1.2325,-1.2318,-1.2398,-1.2498,-1.2585,-1.2782,-1.2832,-1.2973,-1.32,-1.3041,-1.2961,-1.274,-1.2817,-1.3024,-1.2745,-1.2616,-1.2936,-1.3068,-1.2654,-1.2425,-1.2525,-1.2593,-1.2512,-1.2349,-1.1945,-1.1337,-1.0675,-1.0211,-0.9698,-0.9056,-0.8277,-0.7665,-0.7316,-0.7139,-0.7139,-0.7139,-0.7139,-0.7139,-0.7139,-0.7139,-0.7139,-0.7139,-0.7139,-0.7139,-0.7139,-0.7139,-0.7139,-0.7139,-0.7139,-0.7139,-0.7139,-2.2327,-2.2327,-2.2327,-2.2166,-2.2007,-2.1955,-2.1984,-2.2362,-2.3434,-2.3665,-2.2491,-2.0628,-2.0312,-2.0776,-2.0596,-2.0086,-1.9876,-1.9798,-2.0012,-2.0075,-2.0137,-2.0162,-2.032,-2.0171,-1.9427,-1.8497,-1.8251,-1.803,-1.6943,-1.7432,-1.7783,-1.792,-1.791,-1.8008,-1.756,-1.656,-1.5564,-1.5271,-1.3856,-1.2649,-1.2718,-1.2439,-1.2305,-1.2305,-1.2305,-1.2305,-1.2298,-1.2298,-1.2265,-1.2271,-1.2265,-1.2271,-1.2285,-1.2285,-1.2305,-1.2305,-1.2305,-1.2305,-1.2305,-1.2325,-1.2338,-1.2392,-1.2392,-1.2385,-1.2614,-1.2392,-1.2532,-1.2659,-1.2545,-1.2619,-1.2815,-1.2599,-1.2513,-1.1707,-1.1395,-1.1023,-1.0987,-1.139,-1.1536,-1.1471,-1.168,-1.1528,-1.1242,-1.0964,-1.1039,-1.0941,-1.08,-1.0903,-1.0653,-0.9986,-0.9271,-0.8987,-0.8508,-0.7979,-0.7492,-0.7217,-0.7115,-0.7102,-0.7119,-0.7139,-0.7139,-0.7139,-0.7139,-0.7139,-0.7139,-0.7139,-0.7139,-0.7139,-0.7139,-0.7139,-0.7139,-0.7139,-0.7139,-0.7139,-0.7139,-2.2327,-2.2327,-2.2327,-2.2135,-2.1764,-2.1244,-2.1129,-2.1346,-2.1934,-2.226,-2.1774,-2.0077,-1.9871,-2.0624,-2.0312,-1.992,-1.9798,-1.9798,-1.9798,-1.9798,-1.9811,-1.9874,-1.9726,-1.9305,-1.8733,-1.7857,-1.7504,-1.7257,-1.6787,-1.7178,-1.75,-1.7666,-1.7637,-1.749,-1.693,-1.5945,-1.4847,-1.4356,-1.3134,-1.2121,-1.2177,-1.2218,-1.2305,-1.2305,-1.2305,-1.2305,-1.2278,-1.2225,-1.2151,-1.2158,-1.2158,-1.2164,-1.2171,-1.2245,-1.2285,-1.2305,-1.2305,-1.2305,-1.2305,-1.2452,-1.2445,-1.2331,-1.2311,-1.2398,-1.2532,-1.2385,-1.2492,-1.2565,-1.2404,-1.2185,-1.2067,-1.1893,-1.1446,-1.068,-1.0301,-0.9882,-0.9988,-1.0501,-1.077,-1.0741,-1.0472,-1.0204,-0.9879,-0.9503,-0.9394,-0.9159,-0.8932,-0.9175,-0.9375,-0.8748,-0.8223,-0.8025,-0.7759,-0.7498,-0.7278,-0.72,-0.7095,-0.7068,-0.7099,-0.7136,-0.7139,-0.7139,-0.7139,-0.7139,-0.7139,-0.7139,-0.7139,-0.7139,-0.7139,-0.7139,-0.7139,-0.7139,-0.7139,-0.7139,-0.7139,-2.231,-2.2327,-2.2327,-2.2299,-2.2152,-2.137,-2.0584,-1.9773,-1.9832,-1.9904,-1.9893,-2.0923,-2.0657,-1.989,-1.9773,-1.9623,-1.9685,-1.9698,-1.9736,-1.9761,-1.9748,-1.9722,-1.9475,-1.904,-1.8236,-1.7656,-1.728,-1.6951,-1.6743,-1.7041,-1.7285,-1.7227,-1.7051,-1.6865,-1.6239,-1.5245,-1.4437,-1.3795,-1.2626,-1.1844,-1.1844,-1.2051,-1.2098,-1.2111,-1.2118,-1.2124,-1.2084,-1.2024,-1.1917,-1.1884,-1.1884,-1.1884,-1.1964,-1.2144,-1.2238,-1.2305,-1.2305,-1.2305,-1.2331,-1.2512,-1.2492,-1.2331,-1.2305,-1.2311,-1.2277,-1.2243,-1.2097,-1.2061,-1.1853,-1.1409,-1.098,-1.0703,-1.0419,-0.9959,-0.9591,-0.9536,-0.9592,-0.9841,-1.01,-1.0032,-0.971,-0.9335,-0.8768,-0.8331,-0.8082,-0.7831,-0.7688,-0.7721,-0.7844,-0.7741,-0.7279,-0.7246,-0.7161,-0.7104,-0.7054,-0.7082,-0.7102,-0.7085,-0.7109,-0.7139,-0.7139,-0.7139,-0.7139,-0.7139,-0.7139,-0.7139,-0.7139,-0.7139,-0.7139,-0.7139,-0.7139,-0.7139,-0.7139,-0.7139,-0.7139,-2.249,-2.231,-2.2327,-2.2327,-2.218,-2.1354,-2.0494,-1.9773,-1.9715,-1.9715,-1.9734,-1.9345,-1.9539,-1.9764,-1.9033,-1.8765,-1.897,-1.9309,-1.9422,-1.9472,-1.9395,-1.9325,-1.9061,-1.859,-1.7872,-1.7168,-1.6738,-1.6583,-1.6454,-1.6719,-1.6709,-1.6455,-1.6572,-1.6266,-1.5553,-1.4524,-1.4179,-1.3499,-1.2215,-1.1648,-1.153,-1.169,-1.1737,-1.1757,-1.1764,-1.1764,-1.173,-1.181,-1.1717,-1.159,-1.1764,-1.1857,-1.1884,-1.1964,-1.2037,-1.2285,-1.2305,-1.2305,-1.2318,-1.2385,-1.2405,-1.2345,-1.2244,-1.2452,-1.2329,-1.1928,-1.1546,-1.135,-1.0994,-1.0396,-1.0024,-0.9748,-0.9357,-0.9005,-0.8604,-0.842,-0.8514,-0.858,-0.8843,-0.8755,-0.8453,-0.8203,-0.7642,-0.7338,-0.7076,-0.6736,-0.6651,-0.668,-0.6777,-0.6742,-0.6781,-0.6753,-0.6888,-0.7014,-0.7031,-0.7051,-0.7085,-0.7109,-0.7109,-0.7119,-0.7136,-0.7136,-0.7139,-0.7139,-0.7139,-0.7139,-0.7139,-0.7139,-0.7139,-0.7139,-0.7139,-0.7139,-0.7139,-0.7139,-0.7139,-2.2537,-2.231,-2.2327,-2.2123,-2.1675,-2.1023,-2.0296,-1.9797,-1.9705,-1.9731,-1.9561,-1.8667,-1.8658,-1.9262,-1.8639,-1.8267,-1.8342,-1.8744,-1.8808,-1.8437,-1.8746,-1.8205,-1.7953,-1.7679,-1.7026,-1.6464,-1.6177,-1.6097,-1.6136,-1.624,-1.6289,-1.6213,-1.6269,-1.5889,-1.5298,-1.4484,-1.3851,-1.3156,-1.2255,-1.1491,-1.1283,-1.1349,-1.1416,-1.1396,-1.1403,-1.1403,-1.1396,-1.1563,-1.141,-1.1323,-1.1543,-1.1683,-1.1764,-1.1884,-1.2071,-1.2298,-1.2305,-1.2305,-1.2325,-1.2452,-1.2405,-1.2291,-1.2013,-1.1865,-1.169,-1.1328,-1.0889,-1.0565,-0.985,-0.9251,-0.9057,-0.8779,-0.8354,-0.7944,-0.7561,-0.718,-0.7188,-0.7188,-0.7184,-0.7265,-0.7111,-0.6961,-0.6641,-0.6412,-0.6335,-0.6412,-0.6412,-0.6423,-0.6523,-0.6613,-0.6637,-0.6695,-0.6871,-0.7031,-0.7031,-0.7027,-0.7061,-0.7068,-0.7024,-0.7041,-0.7007,-0.7014,-0.7078,-0.7102,-0.7139,-0.7139,-0.7139,-0.7139,-0.7139,-0.7139,-0.7139,-0.7139,-0.7139,-0.7139,-0.7139,-2.2563,-2.2282,-2.2282,-2.1797,-2.0991,-2.0516,-2.0104,-1.9711,-1.9705,-1.9626,-1.9344,-1.8549,-1.839,-1.8605,-1.818,-1.794,-1.799,-1.8216,-1.8175,-1.7352,-1.7605,-1.7319,-1.6769,-1.6092,-1.5956,-1.5722,-1.5608,-1.5624,-1.59,-1.5996,-1.5986,-1.6047,-1.5703,-1.5469,-1.5293,-1.4565,-1.3831,-1.3037,-1.2067,-1.1218,-1.1088,-1.1182,-1.1356,-1.1309,-1.1303,-1.1303,-1.1256,-1.1156,-1.0982,-1.1069,-1.1202,-1.1376,-1.1543,-1.1884,-1.2138,-1.2265,-1.2265,-1.2305,-1.2351,-1.2458,-1.2296,-1.2003,-1.1538,-1.0959,-1.0576,-1.0148,-0.9703,-0.9336,-0.8718,-0.8169,-0.7889,-0.7744,-0.7492,-0.7253,-0.6945,-0.6868,-0.6945,-0.6791,-0.6718,-0.6718,-0.6641,-0.649,-0.649,-0.6261,-0.6261,-0.6261,-0.6261,-0.6261,-0.6335,-0.6485,-0.6563,-0.663,-0.6787,-0.6943,-0.7007,-0.701,-0.7044,-0.7031,-0.6993,-0.7021,-0.7112,-0.7075,-0.7004,-0.7068,-0.7139,-0.7139,-0.7139,-0.7139,-0.7139,-0.7139,-0.7139,-0.7139,-0.7139,-0.7139,-0.7139,-2.2773,-2.2282,-2.1928,-2.143,-2.0959,-2.0483,-2.007,-1.9726,-1.9705,-1.9229,-1.8555,-1.8214,-1.7936,-1.7781,-1.7683,-1.7426,-1.72,-1.7677,-1.7759,-1.7335,-1.7123,-1.6446,-1.6132,-1.5392,-1.5101,-1.4784,-1.4772,-1.5137,-1.541,-1.5518,-1.5547,-1.5547,-1.5332,-1.5283,-1.5284,-1.4573,-1.3742,-1.2948,-1.2111,-1.1206,-1.0806,-1.0708,-1.0762,-1.0788,-1.0802,-1.0835,-1.0848,-1.0949,-1.0802,-1.0775,-1.0969,-1.1069,-1.1122,-1.167,-1.1931,-1.2011,-1.2184,-1.2178,-1.2177,-1.2168,-1.1919,-1.1372,-1.0703,-0.9776,-0.9155,-0.877,-0.8385,-0.8008,-0.7629,-0.7173,-0.6872,-0.6795,-0.6795,-0.6718,-0.649,-0.6641,-0.6718,-0.6486,-0.6335,-0.6261,-0.6261,-0.6261,-0.6261,-0.6261,-0.6261,-0.6261,-0.6261,-0.6268,-0.6302,-0.6403,-0.6478,-0.6552,-0.6671,-0.6803,-0.6909,-0.7021,-0.7068,-0.7078,-0.7058,-0.7092,-0.7126,-0.7102,-0.7065,-0.7099,-0.7139,-0.7139,-0.7139,-0.7139,-0.7139,-0.7139,-0.7139,-0.7139,-0.7139,-0.7139,-0.7139,-2.2915,-2.2392,-2.1642,-2.1213,-2.0894,-2.0296,-1.9909,-1.9726,-1.969,-1.9082,-1.8089,-1.762,-1.7317,-1.719,-1.7109,-1.6923,-1.6647,-1.7124,-1.6699,-1.6322,-1.6197,-1.5367,-1.4935,-1.4624,-1.4337,-1.4018,-1.4297,-1.4639,-1.4883,-1.4834,-1.4768,-1.4883,-1.4883,-1.4904,-1.4954,-1.432,-1.3646,-1.3,-1.2128,-1.1406,-1.0681,-1.0618,-1.0618,-1.0618,-1.0618,-1.0618,-1.0595,-1.0728,-1.0675,-1.0681,-1.0868,-1.1229,-1.1349,-1.159,-1.1824,-1.1991,-1.2124,-1.2018,-1.179,-1.1601,-1.123,-1.0559,-0.9588,-0.8542,-0.8241,-0.7859,-0.7326,-0.6945,-0.6945,-0.6567,-0.6567,-0.649,-0.6945,-0.7099,-0.6641,-0.6412,-0.649,-0.6412,-0.6261,-0.6261,-0.6261,-0.6261,-0.6261,-0.6261,-0.6261,-0.6261,-0.6261,-0.6261,-0.6295,-0.641,-0.64,-0.6502,-0.6634,-0.6766,-0.6905,-0.7024,-0.7115,-0.7119,-0.7105,-0.7058,-0.7044,-0.7105,-0.7139,-0.7139,-0.7139,-0.7139,-0.7139,-0.7139,-0.7139,-0.7139,-0.7139,-0.7139,-0.7139,-0.7139,-0.7139,-2.2989,-2.2512,-2.1458,-2.1007,-2.0862,-2.0085,-1.9726,-1.9705,-1.969,-1.9199,-1.826,-1.7115,-1.6849,-1.6892,-1.6752,-1.6607,-1.6597,-1.676,-1.5941,-1.5324,-1.4971,-1.457,-1.4028,-1.3412,-1.3478,-1.3684,-1.3916,-1.4102,-1.4243,-1.4243,-1.4243,-1.4107,-1.4155,-1.4272,-1.4258,-1.4005,-1.3334,-1.2647,-1.1936,-1.1399,-1.0926,-1.0618,-1.0618,-1.0618,-1.0618,-1.0618,-1.0618,-1.0561,-1.0568,-1.0635,-1.0768,-1.1035,-1.1276,-1.1376,-1.1597,-1.1777,-1.183,-1.1585,-1.1297,-1.0985,-1.0358,-0.9502,-0.838,-0.7706,-0.748,-0.7099,-0.6486,-0.6335,-0.6338,-0.6338,-0.6261,-0.6412,-0.6949,-0.7176,-0.6641,-0.6261,-0.6261,-0.6261,-0.6261,-0.6261,-0.6261,-0.6261,-0.6261,-0.6261,-0.6261,-0.6261,-0.6261,-0.6261,-0.6271,-0.6302,-0.6352,-0.6495,-0.6651,-0.6783,-0.6909,-0.7031,-0.7139,-0.7126,-0.7099,-0.7014,-0.698,-0.7082,-0.7139,-0.7139,-0.7139,-0.7139,-0.7139,-0.7139,-0.7139,-0.7139,-0.7139,-0.7139,-0.7139,-0.7139,-0.7139,-2.2883,-2.2287,-2.1385,-2.1007,-2.0862,-2.0085,-1.9705,-1.9705,-1.969,-1.9524,-1.8903,-1.7394,-1.6595,-1.668,-1.6607,-1.6534,-1.6534,-1.6479,-1.6107,-1.5511,-1.488,-1.4236,-1.3641,-1.3185,-1.3273,-1.3408,-1.3594,-1.3789,-1.3838,-1.3931,-1.4048,-1.399,-1.4009,-1.3873,-1.3424,-1.3141,-1.2879,-1.2186,-1.179,-1.1288,-1.08,-1.0618,-1.0618,-1.0618,-1.0618,-1.0618,-1.0618,-1.0618,-1.0624,-1.0581,-1.0635,-1.0846,-1.0929,-1.1082,-1.1249,-1.1381,-1.1434,-1.1249,-1.0892,-1.0356,-0.9617,-0.8864,-0.7901,-0.7249,-0.7022,-0.6641,-0.6335,-0.6335,-0.6261,-0.6261,-0.6261,-0.6261,-0.6641,-0.6641,-0.6335,-0.6261,-0.6261,-0.6261,-0.6261,-0.6261,-0.6261,-0.6261,-0.6261,-0.6261,-0.6261,-0.6261,-0.6261,-0.6261,-0.6261,-0.6285,-0.6315,-0.6481,-0.6654,-0.6783,-0.6905,-0.7044,-0.7139,-0.7126,-0.7115,-0.7068,-0.7061,-0.7102,-0.7139,-0.7139,-0.7139,-0.7139,-0.7139,-0.7139,-0.7139,-0.7139,-0.7139,-0.7139,-0.7139,-0.7139,-0.7139]},{"header":{"parameterUnit":"m.s-1","parameterCategory":1,"la1":31.0,"la2":29.5877,"lo1":-88.7671,"lo2":-86.6584,"dy":0.0162,"dx":0.0185,"nx":115,"ny":88,"refTime":"2023-03-07T18:00:00:Z","depth":0,"parameterNumber":3,"parameterNumberName":"V-component_of_WINDS"},"data":[0.0,0.0,0.0,0.0,0.0,0.0,0.0,0.0,0.0,0.0,0.0,0.0,0.0,0.0,0.0,0.0,0.0,0.0,0.0,0.0,0.0,0.0,0.0,0.0,0.0,0.0,0.0,0.0,0.0,0.0,0.0,0.0,0.0,0.0,0.0,0.0,0.0,0.0,0.0,0.0,0.0,0.0,0.0,0.0,0.0,0.0,0.0,0.0,0.0,0.0,0.0,0.0,0.0,0.0,0.0,0.0,0.0,0.0,0.0,0.0,0.0,0.0,0.0,0.0,0.0,0.0,0.0,0.0,0.0,0.0,0.0,0.0,0.0,0.0,0.0,0.0,0.0,0.0,0.0,0.0,0.0,0.0,0.0,0.0,0.0,0.0,0.0,0.0,0.0,0.0,0.0,0.0,0.0,0.0,0.0,0.0,0.0,0.0,0.0,0.0,0.0,0.0,0.0,0.0,0.0,0.0,0.0,0.0,0.0,0.0,0.0,0.0,0.0,0.0,0.0,0.0,0.0,0.0,0.0,0.0,0.0,0.0,0.0,0.0,0.0,0.0,0.0,0.0,0.0,0.0,0.0,0.0,0.0,0.0,0.0,0.0,0.0,0.0,0.0,0.0,0.0,0.0,0.0,0.0,0.0,0.0,0.0,0.0,0.0,0.0,0.0,0.0,0.0,0.0,0.0,0.0,0.0,0.0,0.0,0.0,0.0,0.0,0.0,0.0,0.0,0.0,0.0,0.0,0.0,0.0,0.0,0.0,0.0,0.0,0.0,0.0,0.0,0.0,0.0,0.0,0.0,0.0,0.0,0.0,0.0,0.0,0.0,0.0,0.0,0.0,0.0,0.0,0.0,0.0,0.0,0.0,0.0,0.0,0.0,0.0,0.0,0.0,0.0,0.0,0.0,0.0,0.0,0.0,0.0,0.0,0.0,0.0,0.0,0.0,0.0,0.0,0.0,0.0,0.0,0.0,0.0,0.0,0.0,0.0,0.0,0.0,0.0,0.0,0.0,0.0,0.0,0.0,0.0,0.0,0.0,0.0,0.0,0.0,0.0,0.0,0.0,0.0,0.0,0.0,0.0,0.0,0.0,0.0,0.0,0.0,0.0,0.0,0.0,0.0,0.0,0.0,0.0,0.0,0.0,0.0,0.0,0.0,0.0,0.0,0.0,0.0,0.0,0.0,0.0,0.0,0.0,0.0,0.0,0.0,0.0,0.0,0.0,0.0,0.0,0.0,0.0,0.0,0.0,0.0,0.0,0.0,0.0,0.0,0.0,0.0,0.0,0.0,0.0,0.0,0.0,0.0,0.0,0.0,0.0,0.0,0.0,0.0,0.0,0.0,0.0,0.0,0.0,0.0,0.0,0.0,0.0,0.0,0.0,0.0,0.0,0.0,0.0,0.0,0.0,0.0,0.0,0.0,0.0,0.0,0.0,0.0,0.0,0.0,0.0,0.0,0.0,0.0,0.0,0.0,0.0,0.0,0.0,0.0,0.0,0.0,0.0,0.0,0.0,0.0,0.0,0.0,0.0,0.0,0.0,0.0,0.0,0.0,0.0,0.0,0.0,0.0,0.0,0.0,0.0,0.0,0.0,0.0,0.0,0.0,0.0,0.0,0.0,0.0,0.0,0.0,0.0,0.0,0.0,0.0,0.0,0.0,0.0,0.0,0.0,0.0,0.0,0.0,0.0,0.0,0.0,0.0,0.0,0.0,0.0,0.0,0.0,0.0,0.0,0.0,0.0,0.0,0.0,0.0,0.0,0.0,0.0,0.0,0.0,0.0,0.0,0.0,0.0,0.0,0.0,0.0,0.0,0.0,0.0,0.0,0.0,0.0,0.0,0.0,0.0,0.0,0.0,0.0,0.0,0.0,0.0,0.0,0.0,0.0,0.0,0.0,0.0,0.0,0.0,0.0,0.0,0.0,0.0,0.0,0.0,0.0,0.0,0.0,0.0,0.0,0.0,0.0,0.0,0.0,0.0,0.0,0.0,0.0,0.0,0.0,0.0,0.0,0.0,0.0,0.0,0.0,0.0,0.0,0.0,0.0,0.0,0.0,0.0,0.0,0.0,0.0,0.0,0.0,0.0,0.0,0.0,0.0,0.0,0.0,0.0,0.0,0.0,0.0,0.0,0.0,0.0,0.0,0.0,0.0,0.0,0.0,0.0,0.0,0.0,0.0,0.0,0.0,0.0,0.0,0.0,0.0,0.0,0.0,0.0,0.0,0.0,0.0,0.0,0.0,0.0,0.0,0.0,0.0,0.0,0.0,0.0,0.0,0.0,0.0,0.0,0.0,0.0,0.0,0.0,0.0,0.0,0.0,0.0,0.0,0.0,0.0,0.0,0.0,0.0,0.0,0.0,0.0,0.0,0.0,0.0,0.0,0.0,0.0,0.0,0.0,0.0,0.0,0.0,0.0,0.0,0.0,0.0,0.0,0.0,0.0,0.0,0.0,0.0,0.0,0.0,0.0,0.0,0.0,0.0,0.0,0.0,0.0,0.0,0.0,0.0,0.0,0.0,0.0,0.0,0.0,0.0,0.0,0.0,0.0,0.0,0.0,0.0,0.0,0.0,0.0,0.0,0.0,0.0,0.0,0.0,0.0,0.0,0.0,0.0,0.0,0.0,0.0,0.0,0.0,0.0,0.0,0.0,0.0,0.0,0.0,0.0,0.0,0.0,0.0,0.0,0.0,0.0,0.0,0.0,0.0,0.0,0.0,0.0,0.0,0.0,0.0,0.0,0.0,0.0,0.0,0.0,0.0,0.0,0.0,0.0,0.0,0.0,0.0,0.0,0.0,0.0,0.0,0.0,0.0,0.0,0.0,0.0,0.0,0.0,0.0,0.0,0.0,0.0,0.0,0.0,0.0,0.0,0.0,0.0,0.0,0.0,0.0,0.0,0.0,0.0,0.0,0.0,0.0,0.0,0.0,0.0,0.0,0.0,0.0,0.0,0.0,0.0,0.0,0.0,0.0,0.0,0.0,0.0,0.0,0.0,0.0,0.0,0.0,0.0,0.0,0.0,0.0,0.0,0.0,0.0,0.0,0.0,0.0,0.0,0.0,0.0,0.0,0.0,0.0,0.0,0.0,0.0,0.0,0.0,0.0,0.0,0.0,0.0,0.0,0.0,0.0,0.0,0.0,0.0,0.0,0.0,0.0,0.0,0.0,0.0,0.0,0.0,0.0,0.0,0.0,0.0,0.0,0.0,0.0,0.0,0.0,0.0,0.0,0.0,0.0,0.0,0.0,0.0,0.0,0.0,0.0,0.0,0.0,0.0,0.0,0.0,0.0,0.0,0.0,0.0,0.0,0.0,0.0,0.0,0.0,0.0,0.0,0.0,0.0,0.0,0.0,0.0,0.0,0.0,0.0,0.0,0.0,0.0,0.0,0.0,0.0,0.0,0.0,0.0,0.0,0.0,0.0,0.0,0.0,0.0,0.0,0.0,0.0,0.0,0.0,0.0,0.0,0.0,0.0,0.0,0.0,0.0,0.0,0.0,0.0,0.0,0.0,0.0,0.0,0.0,0.0,0.0,0.0,0.0,0.0,0.0,0.0,0.0,0.0,0.0,0.0,0.0,0.0,0.0,0.0,0.0,0.0,0.0,0.0,0.0,0.0,0.0,0.0,0.0,0.0,0.0,0.0,0.0,0.0,0.0,0.0,0.0,0.0,0.0,0.0,0.0,0.0,0.0,0.0,0.0,0.0,0.0,0.0,0.0,0.0,0.0,0.0,0.0,0.0,0.0,0.0,0.0,0.0,0.0,0.0,0.0,0.0,0.0,0.0,0.0,0.0,0.0,0.0,0.0,0.0,0.0,0.0,0.0,0.0,0.0,0.0,0.0,0.0,0.0,0.0,0.0,0.0,0.0,0.0,0.0,0.0,0.0,0.0,0.0,0.0,0.0,0.0,0.0,0.0,0.0,0.0,0.0,0.0,0.0,0.0,0.0,0.0,0.0,0.0,0.0,0.0,0.0,0.0,0.0,0.0,0.0,0.0,0.0,0.0,0.0,0.0,0.0,0.0,0.0,0.0,0.0,0.0,0.0,0.0,0.0,0.0,0.0,0.0,0.0,0.0,0.0,0.0,0.0,0.0,0.0,0.0,0.0,0.0,0.0,0.0,0.0,0.0,0.0,0.0,0.0,0.0,0.0,0.0,0.0,0.0,0.0,0.0,0.0,0.0,0.0,0.0,0.0,0.0,0.0,0.0,0.0,0.0,0.0,0.0,0.0,0.0,0.0,0.0,0.0,0.0,0.0,0.0,-1.8261,0.0,0.0,0.0,0.0,0.0,0.0,0.0,0.0,0.0,0.0,0.0,0.0,0.0,0.0,0.0,0.0,0.0,0.0,0.0,0.0,0.0,0.0,0.0,0.0,0.0,0.0,0.0,0.0,0.0,0.0,0.0,0.0,0.0,0.0,0.0,0.0,0.0,0.0,0.0,0.0,0.0,0.0,0.0,0.0,0.0,0.0,0.0,0.0,0.0,0.0,0.0,0.0,0.0,0.0,0.0,0.0,0.0,0.0,0.0,0.0,0.0,0.0,0.0,0.0,0.0,0.0,0.0,0.0,0.0,0.0,0.0,0.0,0.0,0.0,0.0,0.0,0.0,0.0,0.0,0.0,0.0,0.0,0.0,0.0,0.0,0.0,0.0,0.0,0.0,0.0,0.0,0.0,0.0,0.0,0.0,0.0,0.0,0.0,0.0,0.0,0.0,0.0,0.0,0.0,0.0,0.0,0.0,0.0,0.0,0.0,-1.5839,-1.4855,-1.6402,-1.7029,-1.657,0.0,0.0,0.0,0.0,0.0,0.0,0.0,0.0,0.0,0.0,0.0,0.0,0.0,0.0,0.0,0.0,0.0,0.0,0.0,0.0,0.0,0.0,0.0,0.0,0.0,0.0,0.0,0.0,0.0,0.0,0.0,0.0,0.0,0.0,0.0,0.0,0.0,0.0,0.0,0.0,0.0,0.0,0.0,0.0,0.0,0.0,0.0,0.0,0.0,0.0,0.0,0.0,0.0,0.0,0.0,0.0,0.0,0.0,0.0,0.0,0.0,0.0,0.0,0.0,0.0,0.0,0.0,0.0,0.0,0.0,0.0,0.0,0.0,0.0,0.0,0.0,0.0,0.0,0.0,0.0,0.0,0.0,0.0,0.0,0.0,0.0,0.0,0.0,0.0,0.0,0.0,0.0,0.0,0.0,0.0,0.0,0.0,0.0,0.0,0.0,0.0,0.0,0.0,0.0,0.0,0.0,0.0,0.0,0.0,0.0,0.0,0.0,-1.5253,-1.5879,-1.526,0.0,0.0,0.0,0.0,0.0,0.0,0.0,0.0,0.0,0.0,0.0,0.0,0.0,0.0,0.0,0.0,0.0,0.0,0.0,0.0,0.0,0.0,0.0,0.0,0.0,0.0,0.0,0.0,0.0,0.0,0.0,0.0,0.0,0.0,0.0,0.0,0.0,0.0,0.0,0.0,0.0,0.0,0.0,0.0,0.0,0.0,0.0,0.0,0.0,0.0,0.0,0.0,0.0,0.0,0.0,0.0,0.0,0.0,0.0,0.0,0.0,0.0,0.0,0.0,0.0,0.0,0.0,0.0,0.0,0.0,0.0,0.0,0.0,0.0,0.0,0.0,0.0,0.0,0.0,0.0,0.0,0.0,0.0,0.0,0.0,0.0,0.0,0.0,0.0,0.0,0.0,0.0,0.0,0.0,0.0,0.0,0.0,0.0,0.0,0.0,0.0,0.0,0.0,0.0,0.0,0.0,0.0,0.0,0.0,0.0,-1.3487,-1.4241,-1.4568,0.0,-1.59,0.0,0.0,0.0,0.0,0.0,0.0,0.0,0.0,0.0,0.0,0.0,0.0,0.0,0.0,0.0,0.0,0.0,0.0,0.0,0.0,0.0,0.0,0.0,0.0,0.0,0.0,0.0,0.0,0.0,0.0,0.0,0.0,0.0,0.0,0.0,0.0,0.0,0.0,0.0,0.0,0.0,0.0,0.0,0.0,0.0,0.0,0.0,0.0,0.0,0.0,0.0,0.0,0.0,0.0,0.0,0.0,0.0,0.0,0.0,0.0,0.0,0.0,0.0,0.0,0.0,0.0,0.0,0.0,0.0,0.0,0.0,0.0,0.0,0.0,0.0,0.0,0.0,0.0,0.0,0.0,0.0,0.0,0.0,0.0,0.0,0.0,0.0,0.0,0.0,0.0,0.0,0.0,0.0,0.0,0.0,0.0,0.0,0.0,0.0,0.0,0.0,0.0,0.0,0.0,0.0,0.0,0.0,0.0,0.0,0.0,-1.1848,-1.2531,-1.3772,-1.4622,0.0,0.0,0.0,0.0,0.0,0.0,0.0,0.0,0.0,0.0,0.0,0.0,0.0,0.0,0.0,0.0,0.0,0.0,0.0,0.0,0.0,0.0,0.0,0.0,0.0,0.0,0.0,0.0,0.0,0.0,0.0,0.0,0.0,0.0,0.0,0.0,0.0,0.0,0.0,0.0,0.0,0.0,0.0,0.0,0.0,0.0,0.0,0.0,0.0,0.0,0.0,0.0,0.0,0.0,0.0,0.0,0.0,0.0,0.0,0.0,0.0,0.0,0.0,0.0,0.0,0.0,0.0,0.0,0.0,0.0,0.0,0.0,0.0,0.0,0.0,0.0,0.0,0.0,0.0,0.0,0.0,0.0,0.0,0.0,0.0,0.0,0.0,0.0,0.0,0.0,0.0,0.0,0.0,0.0,0.0,0.0,0.0,0.0,0.0,0.0,0.0,0.0,0.0,0.0,0.0,0.0,0.0,0.0,0.0,0.0,-1.0576,-1.0674,-1.1496,-1.3178,-1.4238,-1.4447,0.0,0.0,0.0,0.0,0.0,0.0,0.0,0.0,0.0,0.0,0.0,0.0,0.0,0.0,0.0,0.0,0.0,0.0,0.0,0.0,0.0,0.0,0.0,0.0,0.0,0.0,0.0,0.0,0.0,0.0,0.0,0.0,0.0,0.0,0.0,0.0,0.0,0.0,0.0,0.0,0.0,0.0,0.0,0.0,0.0,0.0,0.0,0.0,0.0,0.0,0.0,0.0,0.0,0.0,0.0,0.0,0.0,0.0,0.0,0.0,0.0,0.0,0.0,0.0,0.0,0.0,0.0,0.0,0.0,0.0,0.0,0.0,0.0,0.0,0.0,0.0,0.0,0.0,0.0,0.0,0.0,0.0,0.0,0.0,0.0,0.0,0.0,0.0,0.0,0.0,0.0,0.0,0.0,0.0,0.0,0.0,0.0,0.0,0.0,0.0,0.0,0.0,0.0,0.0,0.0,0.0,0.0,0.0,-1.2653,-1.0733,-1.0391,-1.1767,-1.2894,-1.3702,0.0,0.0,0.0,0.0,0.0,0.0,0.0,0.0,0.0,0.0,0.0,0.0,0.0,0.0,0.0,0.0,0.0,0.0,0.0,0.0,0.0,0.0,0.0,0.0,0.0,0.0,0.0,0.0,0.0,0.0,0.0,0.0,0.0,0.0,0.0,0.0,0.0,0.0,0.0,0.0,0.0,0.0,0.0,0.0,0.0,0.0,0.0,0.0,0.0,0.0,0.0,0.0,0.0,0.0,0.0,0.0,0.0,0.0,0.0,0.0,0.0,0.0,0.0,0.0,0.0,0.0,0.0,0.0,0.0,0.0,0.0,0.0,0.0,0.0,0.0,0.0,0.0,0.0,0.0,0.0,0.0,0.0,0.0,0.0,0.0,0.0,0.0,0.0,0.0,0.0,0.0,0.0,0.0,0.0,0.0,0.0,0.0,0.0,0.0,0.0,0.0,0.0,0.0,0.0,0.0,0.0,0.0,0.0,0.0,-1.0422,-0.9518,-0.9717,-1.1108,-1.2211,-1.3068,0.0,0.0,0.0,0.0,0.0,0.0,0.0,0.0,0.0,0.0,0.0,0.0,0.0,0.0,0.0,0.0,0.0,0.0,0.0,0.0,0.0,0.0,0.0,0.0,0.0,0.0,0.0,0.0,0.0,0.0,0.0,0.0,0.0,0.0,0.0,0.0,0.0,0.0,0.0,0.0,0.0,0.0,0.0,0.0,0.0,0.0,0.0,0.0,0.0,0.0,0.0,0.0,0.0,0.0,0.0,0.0,0.0,0.0,0.0,0.0,0.0,0.0,0.0,0.0,0.0,0.0,0.0,0.0,0.0,0.0,0.0,0.0,0.0,0.0,0.0,0.0,0.0,0.0,0.0,0.0,0.0,0.0,0.0,0.0,0.0,0.0,0.0,0.0,0.0,0.0,0.0,0.0,0.0,0.0,0.0,0.0,0.0,0.0,0.0,0.0,0.0,0.0,0.0,0.0,0.0,0.0,0.0,0.0,0.0,-0.8921,0.0,-0.9284,-1.0423,-1.1542,-1.2378,0.0,0.0,0.0,0.0,0.0,0.0,0.0,0.0,0.0,0.0,0.0,0.0,0.0,0.0,0.0,0.0,0.0,0.0,0.0,0.0,0.0,0.0,0.0,0.0,0.0,0.0,0.0,0.0,0.0,0.0,0.0,0.0,0.0,0.0,0.0,0.0,0.0,0.0,0.0,0.0,0.0,0.0,0.0,0.0,0.0,0.0,0.0,0.0,0.0,0.0,0.0,0.0,0.0,0.0,0.0,0.0,0.0,0.0,0.0,0.0,0.0,0.0,0.0,0.0,0.0,0.0,0.0,0.0,0.0,0.0,0.0,0.0,0.0,0.0,0.0,0.0,0.0,0.0,0.0,0.0,0.0,0.0,0.0,0.0,0.0,0.0,0.0,0.0,0.0,0.0,0.0,0.0,0.0,0.0,0.0,0.0,0.0,0.0,0.0,0.0,0.0,0.0,0.0,0.0,0.0,0.0,0.0,0.0,-1.0675,-0.8724,-0.8699,-0.915,-0.9924,-1.0789,-1.1677,0.0,0.0,0.0,0.0,0.0,0.0,0.0,0.0,0.0,0.0,0.0,0.0,0.0,0.0,0.0,0.0,0.0,0.0,0.0,0.0,0.0,0.0,0.0,0.0,0.0,0.0,0.0,0.0,0.0,0.0,0.0,0.0,0.0,0.0,0.0,0.0,0.0,0.0,0.0,0.0,0.0,0.0,0.0,0.0,0.0,0.0,0.0,0.0,0.0,0.0,0.0,0.0,0.0,0.0,0.0,0.0,0.0,0.0,0.0,0.0,0.0,0.0,0.0,0.0,0.0,0.0,0.0,0.0,0.0,0.0,0.0,0.0,0.0,0.0,0.0,0.0,0.0,0.0,0.0,0.0,0.0,0.0,0.0,0.0,0.0,0.0,0.0,0.0,0.0,0.0,0.0,0.0,0.0,0.0,0.0,0.0,0.0,0.0,0.0,0.0,0.0,0.0,0.0,0.0,0.0,0.0,0.0,0.0,0.0,-0.8557,-0.8986,-1.0068,-1.1878,-1.1256,-1.1952,0.0,0.0,0.0,0.0,0.0,0.0,0.0,0.0,0.0,0.0,0.0,0.0,0.0,0.0,0.0,0.0,0.0,0.0,0.0,0.0,0.0,0.0,0.0,0.0,0.0,0.0,0.0,0.0,0.0,0.0,0.0,0.0,0.0,0.0,0.0,0.0,0.0,0.0,0.0,0.0,0.0,0.0,0.0,0.0,0.0,0.0,0.0,0.0,0.0,0.0,0.0,0.0,0.0,0.0,0.0,0.0,0.0,0.0,0.0,0.0,0.0,0.0,0.0,0.0,0.0,0.0,0.0,0.0,0.0,0.0,0.0,0.0,0.0,0.0,0.0,0.0,0.0,0.0,0.0,0.0,0.0,0.0,0.0,0.0,0.0,0.0,0.0,0.0,0.0,0.0,0.0,0.0,0.0,0.0,0.0,0.0,0.0,0.0,0.0,0.0,0.0,0.0,0.0,0.0,0.0,0.0,0.0,0.0,0.0,-0.9702,-0.9968,-1.0846,-1.2276,-1.1883,-1.2664,-1.4678,0.0,0.0,0.0,0.0,0.0,0.0,0.0,0.0,0.0,0.0,0.0,0.0,0.0,0.0,0.0,0.0,0.0,0.0,0.0,0.0,0.0,0.0,0.0,0.0,0.0,0.0,0.0,0.0,0.0,0.0,0.0,0.0,0.0,0.0,0.0,0.0,0.0,0.0,0.0,0.0,0.0,0.0,0.0,0.0,0.0,0.0,0.0,0.0,0.0,0.0,0.0,0.0,0.0,0.0,0.0,0.0,0.0,0.0,0.0,0.0,0.0,0.0,0.0,0.0,0.0,0.0,0.0,0.0,0.0,0.0,0.0,0.0,0.0,0.0,0.0,0.0,0.0,0.0,0.0,0.0,0.0,0.0,0.0,0.0,0.0,0.0,0.0,0.0,0.0,0.0,0.0,0.0,0.0,0.0,0.0,0.0,0.0,0.0,0.0,0.0,0.0,0.0,0.0,0.0,0.0,0.0,0.0,0.0,-1.1635,-1.1702,-1.1699,-1.1629,-1.2749,-1.3737,0.0,0.0,0.0,0.0,0.0,0.0,0.0,0.0,0.0,0.0,0.0,0.0,0.0,0.0,0.0,0.0,0.0,0.0,0.0,0.0,0.0,0.0,0.0,0.0,0.0,0.0,0.0,0.0,0.0,0.0,0.0,0.0,0.0,0.0,0.0,0.0,0.0,0.0,0.0,0.0,0.0,0.0,0.0,0.0,0.0,0.0,0.0,0.0,0.0,0.0,0.0,0.0,0.0,0.0,0.0,0.0,0.0,0.0,0.0,0.0,0.0,0.0,0.0,0.0,0.0,0.0,0.0,0.0,0.0,0.0,0.0,0.0,0.0,0.0,0.0,0.0,0.0,0.0,0.0,0.0,0.0,0.0,0.0,0.0,0.0,0.0,0.0,0.0,0.0,0.0,0.0,0.0,0.0,0.0,0.0,0.0,0.0,0.0,0.0,0.0,0.0,0.0,0.0,0.0,0.0,0.0,0.0,0.0,0.0,-1.111,-1.359,-1.5114,-1.5198,-1.4355,-1.4724,0.0,0.0,0.0,0.0,0.0,0.0,0.0,0.0,0.0,0.0,0.0,0.0,0.0,0.0,0.0,0.0,0.0,0.0,0.0,0.0,0.0,0.0,0.0,0.0,0.0,0.0,0.0,0.0,0.0,0.0,0.0,0.0,0.0,0.0,0.0,0.0,0.0,0.0,0.0,0.0,0.0,0.0,0.0,0.0,0.0,0.0,0.0,0.0,0.0,0.0,0.0,0.0,0.0,0.0,0.0,0.0,0.0,0.0,0.0,0.0,0.0,0.0,0.0,0.0,0.0,0.0,0.0,0.0,0.0,0.0,0.0,0.0,0.0,0.0,0.0,0.0,0.0,0.0,0.0,0.0,0.0,0.0,0.0,0.0,0.0,0.0,0.0,0.0,0.0,0.0,0.0,0.0,0.0,0.0,0.0,0.0,0.0,0.0,0.0,0.0,0.0,0.0,0.0,0.0,0.0,0.0,0.0,0.0,-1.1987,-1.2556,-1.4939,-1.6698,-1.7629,-1.6532,-1.6426,0.0,0.0,0.0,0.0,0.0,0.0,0.0,0.0,0.0,0.0,0.0,0.0,0.0,0.0,0.0,0.0,0.0,0.0,0.0,0.0,0.0,0.0,0.0,0.0,0.0,0.0,0.0,0.0,0.0,0.0,0.0,0.0,0.0,0.0,0.0,0.0,0.0,0.0,0.0,0.0,0.0,0.0,0.0,0.0,0.0,0.0,0.0,0.0,0.0,0.0,0.0,0.0,0.0,0.0,0.0,0.0,0.0,0.0,0.0,0.0,0.0,0.0,0.0,0.0,0.0,0.0,0.0,0.0,0.0,0.0,0.0,0.0,0.0,0.0,0.0,0.0,0.0,0.0,0.0,0.0,0.0,0.0,0.0,0.0,0.0,0.0,0.0,0.0,0.0,0.0,0.0,0.0,0.0,0.0,0.0,0.0,0.0,0.0,0.0,0.0,0.0,0.0,0.0,0.0,0.0,0.0,0.0,0.0,-1.2895,-1.4892,-1.5811,-1.7085,-1.8745,-1.8696,-1.8301,0.0,0.0,0.0,0.0,0.0,0.0,0.0,0.0,0.0,0.0,0.0,0.0,0.0,0.0,0.0,0.0,0.0,0.0,0.0,0.0,0.0,0.0,0.0,0.0,0.0,0.0,0.0,0.0,0.0,0.0,0.0,0.0,0.0,0.0,0.0,0.0,0.0,0.0,0.0,0.0,0.0,0.0,0.0,0.0,0.0,0.0,0.0,0.0,0.0,0.0,0.0,0.0,0.0,0.0,0.0,0.0,0.0,0.0,0.0,0.0,0.0,0.0,0.0,0.0,0.0,0.0,0.0,0.0,0.0,0.0,0.0,0.0,0.0,0.0,0.0,0.0,0.0,0.0,0.0,0.0,0.0,0.0,0.0,0.0,0.0,0.0,0.0,0.0,0.0,0.0,0.0,0.0,0.0,0.0,0.0,0.0,0.0,0.0,0.0,0.0,0.0,0.0,0.0,0.0,0.0,0.0,0.0,0.0,-1.416,-1.5272,-1.6761,-1.7994,-1.8898,-1.8977,-1.8814,0.0,0.0,0.0,0.0,0.0,0.0,0.0,0.0,0.0,0.0,0.0,0.0,0.0,0.0,0.0,0.0,0.0,0.0,0.0,0.0,0.0,0.0,0.0,0.0,0.0,0.0,0.0,0.0,0.0,0.0,0.0,0.0,0.0,0.0,0.0,0.0,0.0,0.0,0.0,0.0,0.0,0.0,0.0,0.0,0.0,0.0,0.0,0.0,-2.8616,0.0,0.0,0.0,0.0,0.0,0.0,0.0,0.0,0.0,0.0,0.0,0.0,0.0,0.0,0.0,0.0,0.0,0.0,0.0,0.0,0.0,0.0,0.0,0.0,0.0,0.0,0.0,0.0,0.0,0.0,0.0,0.0,0.0,0.0,0.0,0.0,0.0,0.0,0.0,0.0,0.0,0.0,0.0,0.0,0.0,0.0,0.0,0.0,0.0,0.0,0.0,0.0,0.0,0.0,0.0,0.0,0.0,0.0,0.0,-1.4619,-1.5843,-1.7081,-1.8428,-1.9611,-2.0036,-1.9798,0.0,0.0,0.0,0.0,0.0,0.0,0.0,0.0,0.0,0.0,0.0,0.0,0.0,0.0,0.0,0.0,0.0,0.0,0.0,0.0,0.0,0.0,0.0,0.0,0.0,0.0,0.0,0.0,0.0,0.0,0.0,0.0,0.0,0.0,0.0,0.0,0.0,0.0,0.0,0.0,0.0,0.0,0.0,0.0,0.0,0.0,0.0,0.0,0.0,0.0,0.0,0.0,0.0,0.0,0.0,0.0,0.0,0.0,0.0,0.0,0.0,0.0,0.0,0.0,0.0,0.0,0.0,0.0,0.0,0.0,0.0,0.0,0.0,0.0,0.0,0.0,0.0,0.0,0.0,0.0,0.0,0.0,0.0,0.0,0.0,0.0,0.0,0.0,0.0,0.0,0.0,0.0,0.0,0.0,0.0,0.0,0.0,0.0,0.0,0.0,0.0,0.0,0.0,0.0,0.0,0.0,0.0,-1.4525,-1.4926,-1.6226,-1.7286,-1.871,-2.032,-2.1203,-2.1087,-1.9844,0.0,0.0,0.0,0.0,0.0,0.0,0.0,0.0,0.0,0.0,0.0,0.0,0.0,0.0,0.0,0.0,0.0,0.0,0.0,0.0,0.0,0.0,0.0,0.0,0.0,0.0,0.0,0.0,0.0,0.0,0.0,0.0,0.0,0.0,0.0,0.0,0.0,0.0,-2.833,-2.4747,0.0,0.0,0.0,0.0,0.0,0.0,0.0,0.0,-2.8325,0.0,0.0,0.0,0.0,0.0,0.0,0.0,0.0,0.0,0.0,0.0,0.0,0.0,0.0,0.0,0.0,0.0,0.0,0.0,0.0,0.0,0.0,0.0,0.0,0.0,0.0,0.0,0.0,0.0,0.0,0.0,0.0,0.0,0.0,0.0,0.0,0.0,0.0,0.0,0.0,0.0,0.0,0.0,0.0,0.0,0.0,0.0,0.0,0.0,0.0,0.0,0.0,0.0,0.0,0.0,0.0,-1.6962,-1.5484,-1.5303,-1.6323,-1.8074,-1.9199,-1.9762,-2.172,-2.265,-2.2425,0.0,0.0,0.0,0.0,0.0,0.0,0.0,0.0,0.0,0.0,0.0,0.0,0.0,0.0,0.0,0.0,0.0,0.0,0.0,0.0,0.0,0.0,0.0,0.0,0.0,0.0,0.0,0.0,0.0,0.0,0.0,0.0,0.0,0.0,0.0,0.0,0.0,0.0,0.0,-2.5556,-2.3572,0.0,0.0,0.0,0.0,0.0,0.0,0.0,0.0,-2.9859,0.0,0.0,0.0,0.0,0.0,0.0,0.0,0.0,0.0,0.0,0.0,0.0,0.0,0.0,0.0,0.0,0.0,0.0,0.0,0.0,0.0,0.0,0.0,0.0,0.0,0.0,0.0,0.0,0.0,0.0,0.0,0.0,0.0,0.0,0.0,0.0,0.0,0.0,0.0,0.0,0.0,0.0,0.0,0.0,0.0,0.0,0.0,0.0,0.0,0.0,0.0,0.0,0.0,0.0,0.0,-1.795,-1.7037,-1.7031,-1.819,-1.9036,-2.0133,-2.1329,-2.1813,-2.2578,0.0,0.0,0.0,0.0,0.0,0.0,0.0,0.0,0.0,0.0,0.0,0.0,0.0,0.0,0.0,0.0,0.0,0.0,0.0,0.0,0.0,0.0,0.0,0.0,0.0,0.0,0.0,0.0,0.0,0.0,0.0,0.0,0.0,0.0,0.0,0.0,0.0,0.0,0.0,0.0,-2.6589,-2.4835,-2.3388,0.0,0.0,0.0,0.0,0.0,0.0,-3.0199,-3.0342,0.0,0.0,0.0,0.0,0.0,0.0,0.0,0.0,0.0,0.0,0.0,0.0,0.0,0.0,0.0,0.0,0.0,0.0,0.0,0.0,0.0,0.0,0.0,0.0,0.0,0.0,0.0,0.0,0.0,0.0,0.0,0.0,0.0,0.0,0.0,0.0,0.0,0.0,0.0,0.0,0.0,0.0,0.0,0.0,0.0,0.0,0.0,0.0,0.0,0.0,0.0,0.0,0.0,0.0,0.0,-1.8759,-1.8426,-1.8637,-1.975,-2.0179,-2.1156,-2.2712,-2.2199,-2.2746,0.0,0.0,0.0,0.0,0.0,0.0,0.0,0.0,0.0,0.0,0.0,0.0,0.0,0.0,0.0,0.0,0.0,0.0,0.0,0.0,0.0,0.0,0.0,0.0,0.0,0.0,0.0,0.0,0.0,0.0,0.0,0.0,0.0,0.0,0.0,0.0,0.0,0.0,0.0,0.0,0.0,-2.6389,-2.5188,-2.5306,0.0,0.0,0.0,0.0,-3.0666,-3.1233,0.0,0.0,0.0,0.0,0.0,0.0,0.0,0.0,0.0,0.0,0.0,0.0,0.0,0.0,0.0,0.0,0.0,0.0,0.0,0.0,0.0,0.0,0.0,0.0,0.0,0.0,0.0,0.0,0.0,0.0,0.0,0.0,0.0,0.0,0.0,0.0,0.0,0.0,0.0,0.0,0.0,0.0,0.0,0.0,0.0,0.0,0.0,0.0,0.0,0.0,0.0,0.0,0.0,0.0,0.0,0.0,-1.9493,-1.8911,-1.8935,-1.9571,-2.1003,-2.1877,-2.2152,-2.3438,-2.4567,0.0,0.0,0.0,0.0,0.0,0.0,0.0,0.0,0.0,0.0,0.0,0.0,0.0,0.0,0.0,0.0,0.0,0.0,0.0,0.0,0.0,0.0,0.0,0.0,0.0,0.0,0.0,0.0,0.0,0.0,0.0,0.0,0.0,0.0,0.0,0.0,0.0,0.0,0.0,0.0,0.0,-2.8798,-2.7085,-2.7388,-2.8187,0.0,0.0,-3.2859,-3.3997,-3.5739,0.0,0.0,0.0,0.0,0.0,0.0,0.0,0.0,0.0,0.0,0.0,0.0,0.0,0.0,0.0,0.0,0.0,0.0,0.0,0.0,0.0,0.0,0.0,0.0,0.0,0.0,0.0,0.0,0.0,0.0,0.0,0.0,0.0,0.0,0.0,0.0,0.0,0.0,0.0,0.0,0.0,0.0,0.0,0.0,0.0,0.0,0.0,0.0,0.0,0.0,0.0,0.0,0.0,0.0,0.0,-2.0736,-2.1172,-2.1245,-2.1403,-2.1533,-2.2227,-2.306,-2.389,-2.3698,-2.4298,0.0,0.0,0.0,0.0,0.0,0.0,0.0,0.0,0.0,0.0,0.0,0.0,0.0,0.0,0.0,0.0,0.0,0.0,0.0,0.0,0.0,0.0,0.0,0.0,0.0,0.0,0.0,0.0,0.0,0.0,0.0,0.0,0.0,0.0,0.0,0.0,0.0,0.0,0.0,0.0,0.0,0.0,-2.8616,-2.9926,0.0,0.0,0.0,-3.4311,-3.3859,0.0,0.0,0.0,0.0,0.0,0.0,0.0,0.0,0.0,0.0,0.0,0.0,0.0,0.0,0.0,0.0,0.0,0.0,0.0,0.0,0.0,0.0,0.0,0.0,0.0,0.0,0.0,0.0,0.0,0.0,0.0,0.0,0.0,0.0,0.0,0.0,0.0,0.0,0.0,0.0,0.0,0.0,0.0,0.0,0.0,0.0,0.0,0.0,0.0,0.0,0.0,0.0,0.0,0.0,0.0,0.0,0.0,-2.2525,-2.3329,-2.3782,-2.3932,-2.3973,-2.4471,-2.5626,-2.4492,0.0,0.0,0.0,0.0,0.0,0.0,0.0,0.0,0.0,0.0,0.0,0.0,0.0,0.0,0.0,0.0,0.0,0.0,0.0,0.0,0.0,0.0,0.0,0.0,0.0,0.0,0.0,-3.1582,0.0,0.0,0.0,0.0,0.0,0.0,0.0,0.0,0.0,0.0,0.0,0.0,0.0,0.0,-3.2056,-3.0725,-3.241,-3.3813,0.0,0.0,-3.5836,-3.4971,-3.7927,-3.8947,0.0,0.0,0.0,0.0,0.0,0.0,0.0,0.0,0.0,0.0,0.0,0.0,0.0,0.0,0.0,0.0,0.0,0.0,0.0,0.0,0.0,0.0,0.0,0.0,0.0,0.0,0.0,0.0,0.0,0.0,0.0,0.0,0.0,0.0,0.0,0.0,0.0,0.0,0.0,0.0,0.0,0.0,0.0,0.0,0.0,0.0,0.0,0.0,0.0,0.0,0.0,0.0,0.0,0.0,0.0,-2.3068,-2.4231,-2.5316,-2.6179,-2.6318,-2.6329,-2.6434,-2.6815,-2.6676,0.0,0.0,0.0,0.0,0.0,0.0,0.0,0.0,0.0,0.0,0.0,0.0,0.0,0.0,0.0,0.0,0.0,0.0,0.0,0.0,0.0,0.0,0.0,0.0,0.0,0.0,0.0,0.0,0.0,0.0,0.0,0.0,0.0,0.0,0.0,0.0,0.0,0.0,0.0,0.0,0.0,-3.3618,-3.4198,-3.4678,-3.5785,0.0,0.0,-3.8385,-3.9335,-4.2542,-4.3169,-3.8033,0.0,0.0,0.0,0.0,0.0,0.0,0.0,0.0,0.0,0.0,0.0,0.0,0.0,0.0,0.0,0.0,0.0,0.0,0.0,0.0,0.0,0.0,0.0,0.0,0.0,0.0,0.0,0.0,0.0,0.0,0.0,0.0,0.0,0.0,0.0,0.0,0.0,0.0,0.0,0.0,0.0,0.0,0.0,0.0,0.0,0.0,0.0,0.0,0.0,0.0,0.0,0.0,0.0,-2.3262,-2.4154,-2.5296,-2.6129,-2.6509,-2.6483,-2.6801,-2.7441,-2.7349,-2.7184,0.0,0.0,0.0,0.0,0.0,0.0,0.0,0.0,0.0,0.0,0.0,0.0,0.0,0.0,0.0,0.0,0.0,0.0,0.0,0.0,0.0,0.0,0.0,0.0,0.0,0.0,0.0,0.0,-3.2071,-3.1237,-3.1571,0.0,0.0,0.0,0.0,0.0,0.0,0.0,0.0,0.0,0.0,-3.5956,-3.6823,-3.8558,0.0,0.0,-4.1084,-4.0586,-4.0971,-4.2074,-4.1549,-3.7539,-3.6667,0.0,0.0,0.0,0.0,0.0,0.0,0.0,0.0,0.0,0.0,0.0,0.0,0.0,0.0,0.0,0.0,0.0,0.0,0.0,0.0,0.0,0.0,0.0,0.0,0.0,0.0,0.0,0.0,0.0,0.0,0.0,0.0,0.0,0.0,0.0,0.0,0.0,0.0,0.0,0.0,0.0,0.0,0.0,0.0,0.0,0.0,0.0,0.0,0.0,0.0,0.0,0.0,-2.4545,-2.5232,-2.6408,-2.715,-2.7452,-2.7464,-2.7879,-2.8585,-2.8521,-2.8434,0.0,0.0,0.0,0.0,0.0,0.0,0.0,0.0,0.0,0.0,0.0,0.0,0.0,0.0,0.0,0.0,0.0,0.0,0.0,0.0,0.0,0.0,0.0,0.0,0.0,0.0,0.0,0.0,-3.2436,-3.1541,-3.1641,0.0,0.0,0.0,0.0,0.0,0.0,0.0,0.0,0.0,0.0,-3.8577,-3.9281,-4.108,-4.2477,-4.262,-4.1834,-4.1117,-4.1058,-4.1326,-4.0546,-3.7548,0.0,0.0,0.0,0.0,0.0,0.0,0.0,0.0,0.0,0.0,0.0,0.0,0.0,0.0,0.0,0.0,0.0,0.0,0.0,0.0,0.0,0.0,0.0,0.0,0.0,0.0,0.0,0.0,0.0,0.0,-2.3015,0.0,0.0,0.0,0.0,0.0,0.0,0.0,0.0,0.0,0.0,0.0,0.0,0.0,0.0,0.0,0.0,0.0,0.0,0.0,0.0,0.0,0.0,-2.6083,-2.6112,-2.7422,-2.8662,-2.9651,-2.9714,-2.9779,-2.9779,-3.0594,-3.0745,-3.0008,0.0,0.0,0.0,0.0,0.0,0.0,0.0,0.0,0.0,0.0,0.0,0.0,0.0,0.0,0.0,0.0,0.0,0.0,0.0,0.0,0.0,0.0,0.0,0.0,0.0,0.0,-3.3447,-3.202,-3.1001,0.0,0.0,0.0,0.0,0.0,0.0,0.0,0.0,0.0,0.0,-3.94,-4.1467,-4.1542,-4.1576,-4.1424,-4.0748,-4.0154,-3.9685,-3.9691,-4.1146,-4.1474,0.0,0.0,0.0,0.0,0.0,0.0,0.0,0.0,0.0,0.0,0.0,0.0,0.0,0.0,0.0,0.0,0.0,0.0,0.0,0.0,0.0,0.0,0.0,0.0,0.0,0.0,0.0,-2.3478,-2.4085,0.0,0.0,0.0,0.0,0.0,0.0,0.0,0.0,0.0,0.0,0.0,-2.6736,-2.7678,0.0,0.0,0.0,0.0,0.0,0.0,0.0,0.0,0.0,0.0,0.0,0.0,-2.7653,-2.8712,-2.9956,-3.0891,-3.1656,-3.1696,-3.1696,-3.1683,-3.1974,-3.1901,-3.1387,0.0,0.0,0.0,0.0,0.0,0.0,0.0,0.0,0.0,0.0,0.0,0.0,0.0,0.0,0.0,0.0,0.0,0.0,0.0,0.0,0.0,0.0,0.0,0.0,0.0,-3.3958,0.0,0.0,0.0,0.0,0.0,0.0,0.0,0.0,0.0,0.0,0.0,-3.5496,-3.7238,-3.9455,-4.1198,-4.2037,-4.2854,-4.3612,0.0,0.0,0.0,0.0,0.0,0.0,0.0,0.0,0.0,0.0,0.0,0.0,0.0,0.0,-4.6819,-4.2371,-4.1356,-4.1271,-4.1508,0.0,0.0,0.0,0.0,0.0,0.0,0.0,0.0,0.0,0.0,0.0,0.0,0.0,0.0,-2.4698,0.0,-2.4975,0.0,0.0,0.0,0.0,0.0,0.0,0.0,0.0,-2.7544,-2.81,-2.7915,-2.9012,-2.9356,0.0,-2.9247,-2.8586,0.0,0.0,0.0,0.0,0.0,0.0,0.0,0.0,-2.9332,-3.016,-3.1223,-3.2055,-3.2566,-3.2593,-3.2593,-3.2593,-3.2876,-3.305,-3.2917,-3.2257,-3.17,0.0,0.0,0.0,0.0,0.0,0.0,0.0,0.0,0.0,0.0,0.0,0.0,0.0,0.0,0.0,0.0,0.0,0.0,0.0,0.0,0.0,0.0,0.0,-3.3143,0.0,0.0,0.0,0.0,0.0,0.0,0.0,0.0,0.0,-3.494,-3.5984,-3.746,-3.9427,-4.0973,-4.2099,-4.2607,0.0,0.0,0.0,0.0,0.0,0.0,0.0,-3.8751,-3.8751,-3.8979,-3.9831,-4.1913,-4.554,-4.8122,-4.7631,0.0,0.0,-4.5432,-4.4231,-4.3927,-4.4198,-4.342,-4.276,-4.3031,-4.3081,-4.2861,0.0,0.0,0.0,0.0,0.0,0.0,0.0,0.0,-2.5247,-2.5457,0.0,-2.5864,0.0,0.0,0.0,0.0,0.0,-2.7055,0.0,0.0,-2.9001,-2.9503,-2.9089,-3.0105,-3.0369,-2.993,-3.0846,-3.0495,-2.8963,-2.8724,0.0,0.0,0.0,0.0,0.0,0.0,-3.0988,-3.0608,-3.1495,-3.2166,-3.2721,-3.2735,-3.2735,-3.2735,-3.3602,-3.417,-3.4483,-3.4442,-3.4205,-3.3531,-3.2413,0.0,0.0,0.0,0.0,0.0,0.0,0.0,0.0,0.0,0.0,0.0,0.0,0.0,0.0,0.0,0.0,0.0,0.0,0.0,0.0,-3.3673,0.0,0.0,0.0,0.0,0.0,0.0,0.0,0.0,0.0,0.0,-3.6591,-3.8761,-4.107,-4.2847,0.0,0.0,0.0,0.0,-4.1654,-3.9903,-3.8975,-3.8362,-3.7838,-3.8691,-3.9454,-3.9556,0.0,0.0,-4.6388,-4.7985,-4.8714,-4.7276,-4.8883,-5.0371,-5.0947,-4.8629,-4.7107,-4.7631,-4.5602,-4.4028,-4.4536,-4.4874,-4.4604,-2.1769,0.0,0.0,0.0,0.0,-2.3346,-2.4402,-2.5611,-2.6589,-2.7309,-2.7834,-2.7594,0.0,0.0,0.0,0.0,0.0,0.0,-2.7846,-2.8486,-2.9377,-2.9917,-3.0156,-3.0846,-3.1085,-3.0934,-3.0859,-3.0595,-3.0171,-3.0519,-3.0624,-3.0535,0.0,0.0,0.0,0.0,-3.2505,-3.3294,-3.4068,-3.4515,-3.4691,-3.4706,-3.4691,-3.4639,-3.492,-3.5109,-3.522,-3.4741,-3.4515,-3.4558,-3.359,0.0,0.0,0.0,0.0,0.0,0.0,0.0,0.0,0.0,0.0,0.0,0.0,0.0,0.0,0.0,0.0,0.0,0.0,0.0,-3.3108,-3.32,-3.3111,0.0,0.0,0.0,0.0,0.0,0.0,0.0,0.0,0.0,-4.0203,-4.0217,-4.0405,0.0,0.0,-4.1581,-4.0679,-4.08,-4.11,-4.1459,-4.095,0.0,0.0,-4.0786,-4.0467,-4.1617,-4.4643,-4.7417,-4.8995,-5.044,-5.1217,-5.0744,-5.1234,-5.1606,-5.1183,-5.0152,-4.9086,-4.8714,-4.7953,-4.7479,-4.7682,-4.7733,-4.7496,-2.2463,-2.2039,-2.1779,-2.1888,-2.2436,-2.3511,-2.4808,-2.6285,-2.7373,-2.8176,-2.8941,-2.8812,-2.816,-2.7118,-2.7331,0.0,0.0,0.0,-2.8637,-2.9289,-2.9628,-2.998,-3.0306,-3.0834,-3.0972,-3.0758,-3.067,-3.0507,-3.0281,-3.1435,-3.1805,-3.1543,0.0,0.0,-3.3484,-3.3365,-3.3679,-3.4457,-3.516,-3.5489,-3.5489,-3.5489,-3.5489,-3.5489,-3.5489,-3.5489,-3.5489,-3.5115,-3.5091,-3.5627,-3.4833,-3.4207,0.0,0.0,0.0,0.0,0.0,0.0,0.0,0.0,0.0,0.0,0.0,-3.64,0.0,0.0,0.0,0.0,-3.3412,-3.3319,-3.2648,-3.3426,0.0,0.0,0.0,0.0,0.0,0.0,0.0,-3.6066,-3.836,-4.0356,-4.1453,-4.1825,-4.2038,-4.2424,-4.2223,-4.1855,-4.1247,0.0,-4.2391,-4.2514,-4.2539,-4.2643,-4.3062,-4.2648,-4.2927,-4.4849,-4.6445,-4.8365,-5.0375,-5.1376,-5.186,-5.1877,-5.1877,-5.164,-5.0896,-5.0168,-4.9661,-4.9458,-4.9187,-4.8934,-4.8646,-4.8578,-4.8359,-2.3144,-2.3076,-2.2305,-2.2207,-2.2634,-2.3773,-2.5085,-2.6472,-2.7557,-2.8358,-2.8876,-2.9524,-2.9214,-2.8273,-2.8725,0.0,-2.8285,-2.9327,-2.9767,-2.9779,-2.9779,-2.9779,-2.9817,-3.0319,-3.0281,-2.9817,-3.0319,-3.0281,-3.0023,-3.1623,-3.2494,-3.2638,-3.3223,-3.3513,-3.3604,-3.4128,-3.4427,-3.4472,-3.51,-3.5444,-3.5489,-3.5489,-3.5489,-3.5489,-3.5489,-3.5489,-3.5489,-3.5554,-3.5943,-3.663,-3.6131,-3.5755,-3.5728,0.0,0.0,0.0,0.0,0.0,0.0,0.0,0.0,0.0,0.0,0.0,0.0,0.0,0.0,0.0,-3.3275,0.0,-3.3253,-3.4195,0.0,0.0,0.0,-3.5712,-3.6233,-3.7232,-3.7883,-3.823,0.0,0.0,-4.1394,-4.3314,-4.495,-4.5625,-4.4709,-4.3868,-4.3853,-4.4535,-4.4702,-4.3254,-4.3709,-4.3965,-4.3332,-4.4181,-4.5549,-4.7468,-4.7935,-4.8346,-5.0281,-5.0798,-5.093,-5.0862,-5.0947,-5.0676,-4.9965,-4.9204,-4.9035,-4.9576,-4.9204,-4.8578,-4.7986,-4.7834,-4.7631,-2.3144,-2.3038,-2.293,-2.29,-2.3065,-2.4217,-2.484,-2.5391,-2.7265,-2.813,-2.8358,-2.9372,-2.9641,-2.9377,-2.9063,-2.9089,-2.9415,-2.9679,-2.9779,-2.9779,-2.9779,-2.9779,-2.9804,-2.993,-2.9917,-2.9804,-2.993,-3.0266,-3.0833,-3.1315,-3.2017,-3.2933,-3.3114,-3.3583,-3.4233,-3.3903,-3.3978,-3.4472,-3.4637,-3.4981,-3.5474,-3.5489,-3.5489,-3.5489,-3.5489,-3.5489,-3.5489,-3.607,-3.6692,-3.7483,-3.7365,-3.7294,-3.733,-3.5937,0.0,0.0,0.0,0.0,0.0,0.0,0.0,0.0,0.0,-3.6319,-3.2475,0.0,-3.4398,0.0,-3.4115,-3.5368,-3.5824,-3.6637,0.0,0.0,-3.8008,-3.8641,-3.9809,-4.0638,-4.0953,-4.0498,-4.1571,-4.2742,-4.3655,-4.3842,-4.4496,-4.6021,-4.5333,-4.4452,-4.4177,-4.4685,-4.5069,-4.4718,-4.4788,-4.4835,-4.4623,-4.4959,-4.5587,-4.6108,-4.6612,-4.7373,-4.85,-4.8714,-4.8697,-4.8697,-4.8697,-4.8409,-4.775,-4.7411,-4.7378,-4.7547,-4.7428,-4.7276,-4.709,-4.7039,-4.6989,-2.3144,-2.3144,-2.3144,-2.3144,-2.3135,-2.38,-2.4319,-2.4964,-2.6668,-2.7649,-2.821,-2.9303,-2.9779,-2.9767,-2.9453,-2.949,-2.9779,-2.9779,-2.9779,-2.9779,-2.9779,-2.9779,-2.9779,-2.9779,-2.9779,-2.9792,-3.0216,-3.0696,-3.1241,-3.2033,-3.2807,-3.347,-3.3966,-3.4307,-3.4472,-3.3829,-3.3679,-3.4038,-3.4322,-3.4816,-3.5474,-3.5489,-3.5419,-3.5247,-3.5247,-3.5009,-3.4545,-3.506,-3.5791,-3.6525,-3.6747,-3.6837,-3.6878,-3.6096,-3.4901,0.0,0.0,0.0,0.0,0.0,0.0,0.0,0.0,0.0,0.0,0.0,-3.4606,0.0,-3.5298,-3.6393,-3.6959,-3.7556,-3.8305,-3.9446,-3.9807,-4.0624,-4.2038,-4.2863,-4.3149,-4.276,-4.3502,-4.436,-4.497,-4.5066,-4.54,-4.6495,-4.6059,-4.5725,-4.5783,-4.6405,-4.6684,-4.5893,-4.6077,-4.6043,-4.5499,-4.545,-4.5513,-4.5574,-4.5967,-4.6549,-4.7259,-4.7141,-4.7039,-4.7327,-4.7158,-4.6819,-4.638,-4.6007,-4.572,-4.5331,-4.501,-4.5077,-4.5652,-4.5534,-4.5229,-2.3144,-2.3144,-2.3144,-2.3144,-2.3144,-2.3144,-2.3632,-2.4682,-2.5932,-2.7211,-2.8354,-2.9337,-2.9779,-2.9779,-2.9779,-2.9779,-2.9779,-2.9779,-2.9779,-2.9779,-2.9779,-2.9779,-2.9779,-2.9779,-2.9831,-2.9909,-3.0654,-3.1222,-3.1489,-3.2989,-3.383,-3.4114,-3.4787,-3.4897,-3.4352,-3.3784,-3.3499,-3.3499,-3.4143,-3.4771,-3.5355,-3.5295,-3.5142,-3.4788,-3.4744,-3.4317,-3.346,-3.3873,-3.4473,-3.5104,-3.5563,-3.5775,-3.5898,-3.5678,-3.5098,0.0,-3.3913,0.0,0.0,0.0,0.0,0.0,0.0,0.0,0.0,-3.5345,-3.4852,-3.6044,-3.6737,-3.7253,-3.7636,-3.8069,-3.8819,-4.0124,-4.0881,-4.1841,-4.3132,-4.3905,-4.4299,-4.4299,-4.4857,-4.5297,-4.5331,-4.6058,-4.6498,-4.6574,-4.6693,-4.678,-4.7367,-4.7998,-4.7905,-4.6662,-4.7055,-4.6574,-4.5523,-4.5196,-4.5122,-4.5155,-4.5088,-4.55,-4.5974,-4.5618,-4.5432,-4.594,-4.5602,-4.5229,-4.5263,-4.4705,-4.4079,-4.3504,-4.2844,-4.2777,-4.3876,-4.3842,-4.3081,-2.3144,-2.3144,-2.3144,-2.3144,-2.3144,-2.3144,-2.3261,-2.3612,-2.5651,-2.7588,-2.9493,-2.9714,-2.9779,-2.9779,-2.9779,-2.9779,-2.9779,-2.9779,-2.9779,-2.9779,-2.9779,-2.9779,-2.9779,-2.9779,-2.991,-3.0168,-3.0262,-3.1186,-3.2741,-3.2303,-3.2848,-3.4382,-3.3849,-3.3592,-3.3709,0.0,0.0,0.0,-3.4143,-3.4547,-3.4651,-3.4361,-3.4137,-3.4106,-3.4102,0.0,-3.3848,-3.4775,-3.5328,-3.5496,-3.6185,0.0,0.0,0.0,0.0,0.0,0.0,0.0,0.0,0.0,0.0,0.0,-3.6107,-3.543,-3.5853,-3.6096,-3.6848,-3.8236,-3.8521,-3.8857,-3.9514,-4.0172,-4.0663,-4.0983,-4.163,-4.2204,-4.2511,-4.2661,-4.2726,-4.2726,-4.2861,-4.32,-4.3826,-4.4519,-4.5229,-4.5737,-4.6413,-4.6794,-4.6834,-4.7072,-4.7098,-4.6743,-4.5949,-4.4965,-4.3999,-4.3369,-4.3149,-4.2929,-4.2946,-4.3064,-4.325,-4.3166,-4.298,-4.3267,-4.3031,-4.298,-4.298,-4.2811,-4.2726,-4.2523,-4.1914,-4.1677,-4.2523,-4.2625,-4.2455,-2.3144,0.0,-2.3144,-2.3144,0.0,-2.292,-2.2832,-2.2957,-2.4836,-2.6875,-2.8991,-2.9245,-2.9512,-2.9779,-2.9779,-2.9779,-2.9779,-2.9779,-2.9641,-2.9365,-2.9365,-2.9227,-2.8963,-2.8963,-2.9234,-2.9829,-3.0298,-3.1199,-3.2565,-3.2565,-3.3033,-3.3978,-3.3524,-3.3362,-3.3514,-3.3829,-3.3993,-3.3978,-3.4307,-3.4637,-3.4951,-3.4826,-3.4604,-3.444,0.0,0.0,0.0,0.0,0.0,0.0,0.0,0.0,0.0,0.0,0.0,-3.6755,-3.6755,-3.6755,-3.6755,-3.6738,-3.7229,-3.8345,-3.8058,-3.753,-3.6797,-3.7767,-3.8751,-3.9463,-3.9513,-3.9834,-4.0544,-4.0679,-4.0968,-4.1631,-4.1766,-4.1901,-4.2257,-4.2306,-4.2323,-4.2272,-4.2306,-4.2455,-4.2811,-4.3183,-4.3572,-4.3961,-4.4316,-4.4621,-4.4722,-4.5889,-4.6583,-4.5805,-4.4418,-4.32,-4.2506,-4.2405,-4.2117,-4.1897,-4.2049,-4.2269,-4.2303,-4.1999,-4.1847,-4.2151,-4.2016,-4.1762,-4.1762,-4.1762,-4.1644,-4.1271,-4.0899,-4.0747,-4.1136,-4.1204,-4.1187,-2.3144,-2.3144,-2.3144,-2.3008,-2.2998,-2.2656,-2.2575,-2.2774,0.0,0.0,0.0,-2.8676,-2.9195,-2.9641,-2.9641,-2.9591,-2.9503,-2.949,-2.9239,-2.8787,-2.8787,-2.8536,-2.8109,-2.823,-2.873,-2.9515,-3.0445,-3.1307,-3.2173,-3.2936,-3.338,-3.3484,-3.3499,-3.3499,-3.3529,-3.4038,-3.4367,-3.4472,-3.4472,-3.4756,-3.5295,-3.5254,-3.5115,-3.4897,-3.5455,-3.5078,-3.3793,-3.5218,-3.5546,-3.4375,-3.5268,-3.5893,-3.6028,-3.6502,-3.6891,-3.7178,-3.7753,-3.8142,-3.8278,-3.8294,-3.8548,-3.9157,-3.9732,-3.9579,-3.8336,-3.9425,-4.0087,-4.0087,-4.0087,-4.0324,-4.0933,-4.046,-4.0578,-4.18,-4.1357,-4.1238,-4.1796,-4.1897,-4.1848,-4.1901,-4.1831,-4.1948,-4.2066,-4.2117,-4.2168,-4.2286,-4.2523,-4.2303,-4.2591,-4.435,-4.5348,-4.4282,-4.3031,-4.1931,-4.1474,-4.1508,-4.1644,-4.1119,-4.1474,-4.188,-4.1813,-4.1407,-4.1305,-4.1677,-4.1373,-4.1068,-4.1001,-4.1001,-4.0798,-4.0206,-4.0087,-4.0087,-4.0087,-4.0087,-4.0155,-2.3135,-2.3144,-2.3144,-2.293,-2.2598,-2.2539,-2.276,-2.3286,-2.444,-2.6416,-2.8796,-2.8859,-2.8984,-2.9051,-2.9051,-2.88,-2.836,-2.8348,-2.8298,0.0,-2.821,-2.8185,-2.8182,-2.8841,-2.9395,-2.9789,-3.0608,-3.1536,-3.2391,-3.2587,-3.2931,-3.3425,-3.3499,-3.3484,-3.3514,-3.3589,-3.3918,-3.4442,-3.4472,-3.4517,-3.4607,-3.4286,-3.4467,-3.4998,-3.4574,-3.446,-3.4851,-3.5421,-3.5599,-3.5397,-3.6197,-3.6924,-3.7516,-3.7077,-3.7347,-3.8548,-3.8785,-3.9106,-3.9715,-3.9766,-3.9817,-3.9901,-4.002,-4.0019,-3.9833,-4.0002,-4.0087,-4.0087,-4.0087,-4.0104,-4.0223,-4.0155,-4.0222,-4.0426,-4.0375,-4.029,-4.0476,-4.0476,-4.0544,-4.0527,-4.0426,-4.0713,-4.1255,-4.1356,-4.1576,-4.21,-4.2049,-4.2219,-4.2219,-4.2625,-4.2844,-4.2574,-4.1914,-4.1373,-4.1136,-4.0679,-4.0493,-4.0273,-4.0375,-4.0561,-4.0578,-4.0443,-4.0392,-4.0426,-4.0409,-4.0324,-4.029,-4.024,-4.024,-4.0087,-4.0087,-4.0087,-4.0087,-4.0087,-4.0087,-2.2492,-2.3018,-2.2891,-2.2695,-2.248,-2.2021,-2.2118,-2.2683,-2.3753,-2.5463,-2.7553,-2.789,-2.8213,-2.8486,-2.8486,-2.8348,-2.8109,-2.8109,-2.7946,-2.767,-2.7657,-2.7494,-2.7301,-2.8062,-2.8772,-2.9403,-2.9898,-3.0746,-3.1855,-3.1614,-3.1764,-3.2392,-3.2437,-3.2617,-3.2946,-3.2976,-3.3469,-3.4442,-3.4128,-3.4307,-3.5011,-3.4866,-3.5151,-3.5907,-3.5931,-3.5971,-3.5993,-3.6541,-3.6485,-3.5639,-3.6366,-3.7127,-3.7838,-3.7584,-3.8041,-3.9462,-3.958,-3.9715,-4.0104,-4.0087,-4.0187,-4.0497,-4.0237,-4.0254,-4.0546,-4.0237,-4.0087,-4.0087,-4.0087,-4.0087,-4.0087,-4.0087,-4.0087,-4.0087,-4.0087,-4.0087,-4.0087,-4.0087,-4.0087,-4.0087,-4.0087,-4.0206,-4.0544,-4.0595,-4.0663,-4.1035,-4.1085,-4.1102,-4.1119,-4.1119,-4.1255,-4.1542,-4.1085,-4.0663,-4.0578,-4.0341,-4.0104,-4.0087,-4.0087,-4.0087,-4.0087,-4.0087,-4.0087,-4.0087,-4.0087,-4.0087,-4.0087,-4.0087,-4.0087,-4.0087,-4.0087,-4.0087,-4.0087,-4.0087,-4.0087,-2.2077,-2.2959,-2.2549,-2.2314,-2.2158,-2.1416,-2.1411,-2.2082,-2.3069,-2.449,-2.6094,-2.698,-2.7551,-2.7908,-2.7908,-2.7858,-2.7745,-2.7733,-2.7507,-2.7118,-2.7105,-2.7006,-2.6875,-2.7617,-2.8427,-2.9247,-2.9488,-3.0191,-3.1123,-3.0761,-3.0851,-3.1407,-3.1467,-3.1794,-3.2273,-3.2302,-3.2871,-3.3918,-3.3562,-3.4029,-3.5415,-3.5707,-3.6055,-3.6576,-3.718,-3.7277,-3.6804,-3.7314,-3.711,-3.6011,-3.662,-3.7313,-3.7855,-3.7922,-3.8497,-3.9648,-3.9834,-3.9901,-4.007,-4.0087,-4.0286,-4.0655,-4.0336,-4.0286,-4.0607,-4.0336,-4.0087,-4.0087,-4.0087,-4.0087,-4.0087,-4.0087,-4.0087,-4.0087,-4.0087,-4.0087,-4.0087,-4.0087,-4.0087,-4.0087,-4.0087,-4.0087,-4.0087,-4.0087,-4.0121,-4.0155,-4.0087,-4.0087,-4.0087,-4.0087,-4.0358,-4.0629,-4.0443,-4.0155,-4.0087,-4.0087,-4.0087,-4.0087,-4.0087,-4.0087,-4.0087,-4.0087,-4.0087,-4.0087,-4.0087,-4.0087,-4.0087,-4.0087,-4.0087,-4.0087,-4.0087,-4.0087,-4.0087,-4.0087,-4.0087,-2.2407,-2.251,-2.2119,-2.1709,-2.1318,-2.084,-2.1143,-2.2045,-2.303,-2.4095,-2.5274,-2.6659,-2.7278,-2.7402,-2.7356,-2.7105,-2.6747,-2.6684,-2.6684,-2.6647,-2.6596,-2.6888,-2.7617,-2.8492,-2.9303,-3.0061,-3.0263,-3.0425,-3.0717,-3.0597,-3.0881,-3.1407,-3.1467,-3.1569,-3.1629,-3.1586,-3.2003,-3.2662,-3.268,-3.3612,-3.5374,-3.6166,-3.6544,-3.666,-3.6755,-3.6804,-3.6784,-3.6891,-3.6806,-3.6738,-3.733,-3.7804,-3.7872,-3.7905,-3.8244,-3.9022,-3.9106,-3.9377,-3.9986,-4.0087,-4.0087,-4.0154,-4.0154,-4.0104,-4.017,-4.0104,-4.007,-4.0053,-4.0087,-4.0087,-4.0087,-4.0087,-4.0087,-4.0087,-4.0087,-4.0087,-4.0087,-4.0087,-4.0087,-4.0087,-4.0087,-4.0087,-4.0087,-4.0087,-4.0087,-4.0087,-4.0087,-4.0087,-4.0087,-4.0087,-4.0138,-4.0206,-4.0104,-4.0087,-4.0087,-4.0087,-4.0087,-4.0087,-4.0087,-4.0087,-4.0087,-4.0087,-4.0087,-4.0087,-4.0087,-4.0087,-4.0087,-4.007,-4.0121,-4.0254,-4.0204,-4.0171,-4.0121,-4.0171,-4.0154,-2.1185,-2.2441,-2.1787,-2.125,-2.084,-2.0644,-2.1171,-2.2045,-2.3027,-2.4055,-2.5087,-2.6308,-2.6817,-2.6804,-2.6791,-2.6653,-2.6533,-2.6521,-2.6521,-2.6521,-2.6973,-2.7417,-2.7802,-2.9129,-2.995,-3.0228,-3.0095,-3.0372,-3.1001,-3.1106,-3.1255,-3.1437,-3.1467,-3.1467,-3.1467,-3.1467,-3.1854,-3.2482,-3.2521,-3.3315,-3.4773,-3.5679,-3.6254,-3.6641,-3.6738,-3.676,-3.6772,-3.6349,-3.6096,-3.6113,-3.64,-3.6772,-3.7212,-3.7246,-3.7567,-3.8261,-3.8345,-3.8481,-3.8768,-3.9174,-3.9608,-3.9877,-4.0048,-4.0034,-3.9928,-3.964,-3.9372,-3.9286,-3.9759,-4.0087,-4.0104,-4.007,-4.0087,-4.0087,-4.0087,-4.007,-4.0087,-4.007,-4.0087,-4.0087,-4.0087,-4.007,-4.0087,-4.0087,-4.0087,-4.0087,-4.007,-4.0121,-4.0121,-4.0087,-4.0087,-4.0087,-4.0087,-4.0087,-4.0087,-4.0087,-4.007,-4.007,-4.0087,-4.0087,-4.0054,-4.007,-4.0087,-4.0087,-4.0121,-4.0121,-4.0087,-4.0121,-4.0154,-4.04,-4.092,-4.1122,-4.1122,-4.0797,-4.0607,-2.0327,-2.1874,-2.1367,-2.0869,-2.0576,-2.0576,-2.1093,-2.2082,-2.3078,-2.4056,-2.5038,-2.6071,-2.6521,-2.6508,-2.6302,-2.6357,-2.6496,-2.6302,-2.6382,-2.6564,-2.7351,-2.7802,-2.8168,-2.9566,-3.0288,-3.0309,-3.0004,-3.0328,-3.118,-3.1255,-3.1287,-3.1437,-3.1467,-3.1467,-3.1467,-3.1467,-3.1691,-3.2183,-3.2564,-3.3264,-3.4265,-3.5177,-3.5893,-3.6355,-3.6678,-3.6688,-3.6451,-3.5926,-3.5639,-3.5639,-3.5639,-3.5876,-3.6417,-3.6451,-3.6789,-3.7516,-3.7804,-3.7922,-3.7922,-3.8599,-3.9149,-3.9512,-3.9708,-3.9808,-3.9686,-3.9243,-3.8853,-3.8698,-3.9277,-3.9722,-3.998,-3.9793,-3.9727,-3.9765,-3.9783,-3.9783,-3.9783,-3.9817,-3.9766,-3.9816,-3.9528,-3.958,-3.9715,-3.9782,-3.9765,-3.9929,-4.0051,-4.0068,-4.005,-4.0051,-4.0087,-4.0087,-4.0087,-4.0087,-4.0087,-4.0087,-4.0037,-3.9868,-3.9834,-4.0003,-3.9918,-3.9884,-4.007,-4.0121,-4.0204,-4.0385,-4.0497,-4.0449,-4.059,-4.0989,-4.1315,-4.1456,-4.1216,-4.0902,-4.0533,-2.0449,-2.117,-2.0791,-2.0596,-2.0566,-2.0644,-2.1181,-2.219,-2.3132,-2.4103,-2.5132,-2.6071,-2.6521,-2.6483,-2.5937,-2.595,-2.6408,-2.5912,-2.6043,-2.662,-2.7324,-2.8168,-2.8989,-2.9875,-3.0382,-3.0562,-3.0451,-3.0462,-3.0597,-3.0597,-3.0896,-3.1437,-3.1467,-3.1467,-3.1467,-3.1467,-3.1482,-3.1745,-3.2788,-3.3539,-3.3829,-3.4932,-3.5596,-3.5762,-3.6393,-3.64,-3.5808,-3.5656,-3.5639,-3.5639,-3.5639,-3.5656,-3.5707,-3.5707,-3.6062,-3.6772,-3.7466,-3.7855,-3.7889,-3.8447,-3.8918,-3.8952,-3.9003,-3.9197,-3.9359,-3.8825,-3.8474,-3.8538,-3.8572,-3.8926,-3.9468,-3.9072,-3.8865,-3.9067,-3.9071,-3.9106,-3.9093,-3.9188,-3.9071,-3.9033,-3.869,-3.8755,-3.9069,-3.9056,-3.9477,-3.9817,-4.0007,-4.008,-3.9932,-3.9973,-4.0016,-3.9985,-4.0001,-4.0087,-4.0104,-4.0087,-3.9783,-3.9478,-3.958,-3.9817,-3.9614,-3.9529,-3.9783,-4.0153,-4.0408,-4.0612,-4.0915,-4.1188,-4.1429,-4.1474,-4.102,-4.0966,-4.1078,-4.0099,-3.9811,-2.0105,-2.0801,-2.0635,-2.0576,-2.0644,-2.1221,-2.2091,-2.303,-2.4026,-2.5052,-2.5889,-2.6333,-2.6521,-2.6496,-2.585,-2.5912,-2.6377,-2.5862,-2.6222,-2.7206,-2.7728,-2.8567,-2.9818,-3.0236,-3.0671,-3.1034,-3.0728,-3.0518,-3.0552,-3.0941,-3.127,-3.1465,-3.1467,-3.1467,-3.1467,-3.1467,-3.1467,-3.1582,-3.2477,-3.3145,-3.3633,-3.4496,-3.5138,-3.5592,-3.5891,-3.5893,-3.5639,-3.5639,-3.5639,-3.5639,-3.5639,-3.5639,-3.5639,-3.5639,-3.5723,-3.6011,-3.6299,-3.6434,-3.6518,-3.7161,-3.7584,-3.7618,-3.8041,-3.8187,-3.7865,-3.757,-3.7364,-3.7301,-3.7563,-3.8,-3.8542,-3.8415,-3.8345,-3.8688,-3.874,-3.8757,-3.8809,-3.9029,-3.9242,-3.9208,-3.8981,-3.9173,-3.9633,-3.9991,-4.0315,-4.0832,-4.0709,-4.0385,-4.0228,-3.9957,-3.9569,-3.9244,-3.9152,-3.9183,-3.936,-3.9834,-3.9884,-3.936,-3.9208,-3.9274,-3.9156,-3.8798,-3.8882,-4.0109,-4.047,-4.0709,-4.0928,-4.1245,-4.1604,-4.1468,-4.1005,-4.0724,-4.0944,-4.0038,-3.9817,-2.0089,-2.0586,-2.0576,-2.0789,-2.1155,-2.1745,-2.2767,-2.3973,-2.4705,-2.5529,-2.6352,-2.6521,-2.6364,-2.6151,-2.5762,-2.5686,-2.5912,-2.5686,-2.6222,-2.7285,-2.8021,-2.8864,-2.9822,-3.0498,-3.0911,-3.1091,-3.0758,-3.0518,-3.0567,-3.1138,-3.1452,-3.1467,-3.1467,-3.1467,-3.1467,-3.1467,-3.1467,-3.1625,-3.2216,-3.2949,-3.3582,-3.4235,-3.4941,-3.547,-3.5639,-3.5639,-3.5639,-3.5639,-3.5639,-3.5639,-3.5639,-3.5639,-3.5639,-3.5639,-3.5639,-3.5639,-3.5639,-3.5639,-3.5707,-3.6349,-3.6864,-3.7047,-3.7526,-3.7678,-3.7278,-3.7131,-3.6825,-3.6624,-3.6882,-3.7456,-3.776,-3.7791,-3.7905,-3.839,-3.8502,-3.8485,-3.8545,-3.8819,-3.8858,-3.8647,-3.8508,-3.8954,-3.9711,-4.0023,-4.0316,-4.0882,-4.0636,-4.053,-4.0055,-3.9739,-3.9312,-3.8936,-3.8955,-3.9068,-3.9358,-3.9865,-3.9701,-3.9225,-3.8792,-3.8809,-3.8743,-3.8269,-3.8557,-3.9815,-4.049,-4.0707,-4.0949,-4.1284,-4.1343,-4.127,-4.0815,-4.0391,-4.0312,-4.0045,-3.9692,-2.0566,-2.0537,-2.0634,-2.1058,-2.1759,-2.2092,-2.3174,-2.4738,-2.5031,-2.5683,-2.6352,-2.6445,-2.6143,-2.5724,-2.5624,-2.5372,-2.5247,-2.5589,-2.6168,-2.6899,-2.8177,-2.8955,-2.9428,-3.0602,-3.0911,-3.0552,-3.0507,-3.0492,-3.0537,-3.1123,-3.1467,-3.1467,-3.1467,-3.1467,-3.1467,-3.1467,-3.1467,-3.164,-3.2216,-3.2949,-3.3582,-3.4235,-3.4941,-3.5532,-3.5639,-3.5639,-3.5639,-3.5639,-3.5639,-3.5639,-3.5639,-3.5639,-3.5639,-3.5639,-3.5639,-3.5639,-3.5639,-3.5622,-3.5735,-3.6373,-3.6966,-3.7249,-3.7655,-3.7775,-3.7669,-3.7446,-3.6973,-3.6488,-3.6843,-3.7243,-3.7281,-3.7367,-3.7651,-3.816,-3.8302,-3.8284,-3.8302,-3.8302,-3.8075,-3.7638,-3.7615,-3.7611,-3.8323,-3.9218,-3.973,-3.9805,-4.0063,-4.0249,-3.9571,-3.9349,-3.9337,-3.9234,-3.9005,-3.8871,-3.9382,-3.99,-3.9448,-3.899,-3.8625,-3.8425,-3.8434,-3.8164,-3.8579,-3.9664,-4.0471,-4.0705,-4.0872,-4.1136,-4.0915,-4.0745,-4.0377,-3.9955,-3.9708,-3.9461,-3.9145,-2.0391,-2.0166,-2.0449,-2.0974,-2.1702,-2.2635,-2.3847,-2.5026,-2.5705,-2.6015,-2.5879,-2.5889,-2.576,-2.5665,-2.5598,-2.5724,-2.6017,-2.6693,-2.7288,-2.7682,-2.8146,-2.92,-3.038,-3.0372,-3.0073,-2.9983,-3.0328,-3.0492,-3.0597,-3.118,-3.1467,-3.1467,-3.1467,-3.1467,-3.1467,-3.1467,-3.1467,-3.1582,-3.2216,-3.2949,-3.3598,-3.4219,-3.4941,-3.5532,-3.5639,-3.5639,-3.5639,-3.5639,-3.5639,-3.5622,-3.5639,-3.5639,-3.5639,-3.5639,-3.5639,-3.5639,-3.5639,-3.5766,-3.6114,-3.6363,-3.6578,-3.6748,-3.6844,-3.6715,-3.6509,-3.6361,-3.6188,-3.6002,-3.6643,-3.719,-3.7303,-3.7861,-3.816,-3.8044,-3.8026,-3.8062,-3.8133,-3.8345,-3.844,-3.8292,-3.8207,-3.857,-3.9166,-3.9667,-3.9868,-4.0172,-4.027,-3.9906,-3.9665,-3.9164,-3.8739,-3.8438,-3.8456,-3.8632,-3.8984,-3.9233,-3.9032,-3.8775,-3.8555,-3.8353,-3.8289,-3.8199,-3.8649,-3.9276,-4.0076,-4.0518,-4.072,-4.0689,-4.0396,-4.0102,-3.9662,-3.935,-3.9111,-3.8927,-3.8762,-2.0019,-1.9951,-2.0205,-2.0853,-2.1713,-2.2963,-2.4062,-2.5075,-2.607,-2.6143,-2.5722,-2.5871,-2.5677,-2.5464,-2.5724,-2.5875,-2.6047,-2.7129,-2.786,-2.829,-2.8736,-2.9714,-3.094,-3.0335,-2.9642,-2.9425,-2.9858,-3.0013,-2.9849,-3.0687,-3.115,-3.1165,-3.1405,-3.1467,-3.1467,-3.1467,-3.1467,-3.1582,-3.2216,-3.2949,-3.3598,-3.4235,-3.4941,-3.5515,-3.5639,-3.5639,-3.5605,-3.5385,-3.5334,-3.5571,-3.5639,-3.5639,-3.5639,-3.5639,-3.5639,-3.5639,-3.5622,-3.5739,-3.6054,-3.6071,-3.6333,-3.6597,-3.6741,-3.6651,-3.6319,-3.6225,-3.6239,-3.6062,-3.6684,-3.7285,-3.7542,-3.8168,-3.8496,-3.8267,-3.8219,-3.8183,-3.8267,-3.8496,-3.8658,-3.8627,-3.8645,-3.8982,-3.9294,-3.9827,-4.0047,-4.0469,-4.023,-3.9882,-3.9717,-3.9171,-3.8615,-3.8267,-3.8416,-3.852,-3.8492,-3.8528,-3.8579,-3.8564,-3.8504,-3.8397,-3.8367,-3.8025,-3.8168,-3.8794,-3.9579,-3.9593,-3.9753,-3.9662,-3.9441,-3.9148,-3.9074,-3.8964,-3.8854,-3.8817,-3.8707,-1.9512,-1.9834,-1.9968,-2.0842,-2.2073,-2.3154,-2.4258,-2.5192,-2.6083,-2.6143,-2.5772,-2.6013,-2.5743,-2.5174,-2.5649,-2.5652,-2.5407,-2.6948,-2.7904,-2.8502,-2.9408,-3.0261,-3.0279,-3.027,-2.9627,-2.8761,-2.9222,-2.922,-2.8906,-3.0028,-3.0507,-3.0642,-3.1225,-3.1467,-3.1524,-3.1524,-3.1625,-3.1796,-3.2382,-3.3039,-3.3668,-3.4284,-3.4941,-3.5577,-3.5639,-3.5639,-3.5554,-3.5098,-3.4979,-3.5453,-3.5554,-3.5639,-3.5639,-3.5639,-3.5639,-3.5622,-3.5622,-3.5783,-3.5739,-3.6054,-3.6357,-3.715,-3.7356,-3.7404,-3.7093,-3.7073,-3.6988,-3.6537,-3.6978,-3.7433,-3.7859,-3.835,-3.8627,-3.8707,-3.8627,-3.8627,-3.8658,-3.8707,-3.8707,-3.8707,-3.8707,-3.8726,-3.8836,-3.9373,-3.9667,-3.979,-3.9753,-3.968,-3.957,-3.9111,-3.8799,-3.8627,-3.8546,-3.8556,-3.8564,-3.8655,-3.8667,-3.8583,-3.8558,-3.8536,-3.851,-3.8176,-3.8016,-3.8601,-3.8957,-3.8878,-3.8872,-3.8946,-3.8946,-3.8872,-3.8799,-3.8726,-3.8707,-3.8707,-3.8707,-1.916,-1.9115,-2.0429,-2.1447,-2.2362,-2.3847,-2.5157,-2.6027,-2.6321,-2.6088,-2.5684,-2.5342,-2.5139,-2.4795,-2.4695,-2.4963,-2.579,-2.7225,-2.813,-2.8496,-2.9753,-3.0132,-2.9842,-2.9811,-2.9154,-2.8126,-2.8524,-2.8757,-2.8712,-2.9789,-3.0417,-3.0537,-3.112,-3.1509,-3.1524,-3.2007,-3.2272,-3.2437,-3.2986,-3.3649,-3.4235,-3.4479,-3.4941,-3.5532,-3.5639,-3.5622,-3.5622,-3.5436,-3.5081,-3.4844,-3.5351,-3.5622,-3.5639,-3.5639,-3.5639,-3.5667,-3.5968,-3.6374,-3.6724,-3.7041,-3.7397,-3.7649,-3.772,-3.7625,-3.7255,-3.7242,-3.7198,-3.7075,-3.7427,-3.7755,-3.7946,-3.8382,-3.8658,-3.8707,-3.8707,-3.8707,-3.8707,-3.8707,-3.8707,-3.8707,-3.8707,-3.8707,-3.8762,-3.8891,-3.9098,-3.9129,-3.9111,-3.9166,-3.9221,-3.9038,-3.8707,-3.8707,-3.8658,-3.8658,-3.8731,-3.8841,-3.8829,-3.8687,-3.8661,-3.8647,-3.8624,-3.8519,-3.8515,-3.875,-3.8805,-3.8781,-3.8762,-3.8799,-3.8726,-3.8799,-3.8836,-3.8891,-3.8744,-3.8707,-3.8707,-1.8701,-1.8742,-2.0144,-2.1197,-2.2033,-2.3607,-2.4867,-2.58,-2.6052,-2.5777,-2.5313,-2.5217,-2.4873,-2.4456,-2.4393,-2.4735,-2.561,-2.7067,-2.775,-2.811,-2.941,-2.9711,-2.9295,-2.9183,-2.8607,-2.7775,-2.7964,-2.8128,-2.8308,-2.922,-2.9789,-3.0178,-3.0776,-3.1339,-3.1992,-3.2327,-3.2803,-3.3077,-3.3684,-3.4235,-3.4576,-3.4894,-3.5207,-3.5577,-3.5622,-3.552,-3.5233,-3.5436,-3.5385,-3.5148,-3.5385,-3.5639,-3.5639,-3.5639,-3.5639,-3.5605,-3.6097,-3.6539,-3.6882,-3.7323,-3.7685,-3.7859,-3.7893,-3.7756,-3.7557,-3.7468,-3.7485,-3.752,-3.7756,-3.7964,-3.8267,-3.8546,-3.8658,-3.8707,-3.8707,-3.8707,-3.8707,-3.8707,-3.8707,-3.8707,-3.8707,-3.8707,-3.8707,-3.8707,-3.8891,-3.9074,-3.8982,-3.9093,-3.9203,-3.8909,-3.8707,-3.8707,-3.8707,-3.8707,-3.8707,-3.8781,-3.8817,-3.8726,-3.8707,-3.8707,-3.8707,-3.8707,-3.8707,-3.8707,-3.8707,-3.8707,-3.8726,-3.8817,-3.9001,-3.9074,-3.9074,-3.8982,-3.8854,-3.8707,-3.8707,-1.8223,-1.8644,-1.9617,-2.0593,-2.1614,-2.2914,-2.427,-2.4963,-2.5522,-2.5369,-2.4971,-2.5243,-2.4785,-2.4017,-2.4255,-2.4633,-2.49,-2.6431,-2.7214,-2.7869,-2.8744,-2.9169,-2.8763,-2.8708,-2.8397,-2.7859,-2.7709,-2.7889,-2.8278,-2.8727,-2.919,-2.9948,-3.0543,-3.1414,-3.2369,-3.2788,-3.3145,-3.3751,-3.435,-3.4688,-3.4894,-3.5253,-3.5532,-3.5577,-3.5639,-3.5351,-3.5098,-3.5267,-3.5588,-3.5622,-3.5639,-3.5667,-3.5667,-3.5711,-3.5783,-3.5985,-3.6399,-3.6724,-3.6724,-3.7285,-3.7632,-3.7998,-3.8047,-3.798,-3.7964,-3.7998,-3.8016,-3.8018,-3.798,-3.8234,-3.8546,-3.8707,-3.8707,-3.8707,-3.8707,-3.8707,-3.8707,-3.8707,-3.8707,-3.8707,-3.8707,-3.8707,-3.8707,-3.8762,-3.8927,-3.9038,-3.8946,-3.8946,-3.9038,-3.8909,-3.8744,-3.8707,-3.8707,-3.8707,-3.8707,-3.8707,-3.8726,-3.8707,-3.8707,-3.8707,-3.8707,-3.8707,-3.8707,-3.8707,-3.8707,-3.8707,-3.8726,-3.8891,-3.9148,-3.9111,-3.8964,-3.8946,-3.8909,-3.8762,-3.8707,-1.8066,-1.8301,-2.024,-2.123,-2.179,-2.4044,-2.4954,-2.4905,-2.5351,-2.5219,-2.4808,-2.448,-2.4264,-2.3966,-2.3715,-2.3793,-2.4596,-2.5935,-2.7131,-2.8346,-2.8521,-2.8734,-2.8568,-2.8525,-2.848,-2.8316,-2.8382,-2.8622,-2.9086,-2.9475,-3.0118,-3.0393,-3.1271,-3.2252,-3.2656,-3.3617,-3.4235,-3.4479,-3.5052,-3.5316,-3.5316,-3.547,-3.5639,-3.5639,-3.5639,-3.5571,-3.5453,-3.552,-3.5622,-3.5639,-3.5667,-3.581,-3.6097,-3.6224,-3.6374,-3.6746,-3.723,-3.7524,-3.7631,-3.7964,-3.8401,-3.8433,-3.8465,-3.8528,-3.8528,-3.8496,-3.8515,-3.8546,-3.8546,-3.8546,-3.8658,-3.8707,-3.8707,-3.8707,-3.8707,-3.8707,-3.8707,-3.8707,-3.8707,-3.8707,-3.8707,-3.8707,-3.8707,-3.8707,-3.8817,-3.8927,-3.8909,-3.8836,-3.8836,-3.8836,-3.8781,-3.8707,-3.8707,-3.8707,-3.8707,-3.8707,-3.8707,-3.8707,-3.8707,-3.8707,-3.8707,-3.8707,-3.8707,-3.8707,-3.8707,-3.8707,-3.8726,-3.8872,-3.9093,-3.8964,-3.8891,-3.8909,-3.8891,-3.8781,-3.8707,-1.8008,-1.8231,-2.0149,-2.1183,-2.1684,-2.3579,-2.4582,-2.477,-2.482,-2.472,-2.4431,-2.406,-2.3857,-2.3577,-2.3288,-2.3556,-2.4492,-2.5814,-2.7054,-2.7891,-2.8113,-2.8113,-2.8113,-2.8173,-2.8263,-2.848,-2.8248,-2.8517,-2.9071,-2.9544,-2.9801,-3.0509,-3.1605,-3.239,-3.3045,-3.404,-3.4688,-3.5052,-3.5379,-3.5639,-3.5639,-3.5639,-3.5639,-3.5639,-3.5639,-3.5639,-3.5605,-3.5622,-3.5622,-3.565,-3.5854,-3.6097,-3.6399,-3.6661,-3.6921,-3.721,-3.7649,-3.7893,-3.8013,-3.8382,-3.8658,-3.8707,-3.8707,-3.8707,-3.8707,-3.8707,-3.8707,-3.8707,-3.8707,-3.8707,-3.8707,-3.8707,-3.8707,-3.8707,-3.8707,-3.8707,-3.8707,-3.8707,-3.8707,-3.8707,-3.8707,-3.8707,-3.8707,-3.8707,-3.8726,-3.8817,-3.8817,-3.8762,-3.8744,-3.8762,-3.8744,-3.8707,-3.8707,-3.8707,-3.8707,-3.8707,-3.8707,-3.8707,-3.8707,-3.8707,-3.8707,-3.8707,-3.8707,-3.8707,-3.8707,-3.8707,-3.8744,-3.8891,-3.8982,-3.8927,-3.8891,-3.8909,-3.8854,-3.8744,-3.8707,-1.8008,-1.8134,-1.9748,-2.0696,-2.1445,-2.2587,-2.3605,-2.4343,-2.4189,-2.4053,-2.384,-2.3857,-2.3508,-2.3175,-2.3103,-2.359,-2.4681,-2.5797,-2.6995,-2.7629,-2.7904,-2.7964,-2.8,-2.806,-2.821,-2.8487,-2.8002,-2.8121,-2.8697,-2.8854,-2.972,-3.0603,-3.1239,-3.2244,-3.337,-3.4057,-3.4635,-3.5133,-3.5273,-3.5487,-3.5605,-3.5639,-3.5639,-3.5639,-3.5639,-3.5639,-3.5639,-3.5622,-3.5667,-3.5722,-3.6224,-3.6539,-3.6706,-3.6981,-3.7377,-3.7433,-3.7911,-3.8065,-3.8165,-3.8446,-3.8707,-3.8707,-3.8707,-3.8597,-3.8524,-3.856,-3.856,-3.8542,-3.8542,-3.8707,-3.8707,-3.8707,-3.8707,-3.8707,-3.8707,-3.8707,-3.8707,-3.8707,-3.8707,-3.8707,-3.8707,-3.8707,-3.8707,-3.8707,-3.8707,-3.8707,-3.8707,-3.8707,-3.8707,-3.8707,-3.8707,-3.8707,-3.8707,-3.8707,-3.8707,-3.8707,-3.8707,-3.8707,-3.8707,-3.8707,-3.8719,-3.8815,-3.8815,-3.8719,-3.8707,-3.8719,-3.8793,-3.8927,-3.8964,-3.8909,-3.8891,-3.8909,-3.8836,-3.8726,-3.8719,-1.8008,-1.8066,-1.911,-1.9998,-2.0888,-2.2162,-2.2983,-2.3429,-2.3804,-2.3704,-2.3301,-2.3213,-2.3163,-2.3138,-2.3125,-2.3872,-2.5063,-2.6122,-2.6878,-2.7614,-2.8045,-2.8248,-2.8218,-2.8284,-2.8509,-2.842,-2.7988,-2.8196,-2.9124,-2.9499,-3.0029,-3.1135,-3.1523,-3.2288,-3.311,-3.3645,-3.4044,-3.4597,-3.4776,-3.503,-3.5402,-3.5605,-3.5639,-3.5622,-3.5667,-3.5711,-3.565,-3.565,-3.581,-3.6249,-3.6803,-3.721,-3.7506,-3.7685,-3.7964,-3.8234,-3.8382,-3.8465,-3.8496,-3.8578,-3.8707,-3.8707,-3.8615,-3.8248,-3.8028,-3.8193,-3.8157,-3.812,-3.8358,-3.8707,-3.8707,-3.8707,-3.8707,-3.8707,-3.8707,-3.8707,-3.8707,-3.8707,-3.8707,-3.8707,-3.8707,-3.8707,-3.8707,-3.8707,-3.8707,-3.8707,-3.8707,-3.8707,-3.8707,-3.8707,-3.8707,-3.8707,-3.8707,-3.8707,-3.8707,-3.8707,-3.8707,-3.8707,-3.8707,-3.8707,-3.8762,-3.8933,-3.8943,-3.8855,-3.8803,-3.8833,-3.8932,-3.9031,-3.9006,-3.8995,-3.898,-3.8921,-3.8944,-3.896,-3.8862,-1.748,-1.7742,-1.8561,-1.9598,-2.0666,-2.1811,-2.2469,-2.273,-2.296,-2.2972,-2.272,-2.2695,-2.2845,-2.304,-2.3125,-2.3989,-2.5287,-2.6176,-2.6893,-2.7578,-2.7955,-2.8068,-2.8098,-2.821,-2.818,-2.8038,-2.7816,-2.824,-2.9407,-2.9505,-3.0247,-3.123,-3.1738,-3.2331,-3.284,-3.3253,-3.3541,-3.3931,-3.4269,-3.4641,-3.5081,-3.5368,-3.5622,-3.5667,-3.5854,-3.6011,-3.6054,-3.6316,-3.6522,-3.6882,-3.7285,-3.7649,-3.7893,-3.8183,-3.8415,-3.8627,-3.8707,-3.8707,-3.8707,-3.8689,-3.8524,-3.8102,-3.8083,-3.7679,-3.7202,-3.7165,-3.7459,-3.7716,-3.8193,-3.8707,-3.8707,-3.8707,-3.8707,-3.8707,-3.8707,-3.8707,-3.8707,-3.8707,-3.8707,-3.8707,-3.8707,-3.8707,-3.8707,-3.8707,-3.8707,-3.8707,-3.8707,-3.8707,-3.8707,-3.8707,-3.8707,-3.8707,-3.8707,-3.8707,-3.8707,-3.8707,-3.8732,-3.8762,-3.8762,-3.8762,-3.8844,-3.9082,-3.9063,-3.8971,-3.898,-3.9154,-3.92,-3.938,-3.9245,-3.9154,-3.9237,-3.9275,-3.9219,-3.9181,-3.9119,-1.6934,-1.7321,-1.7917,-1.8935,-2.0139,-2.0989,-2.1512,-2.1897,-2.2083,-2.2188,-2.2151,-2.2163,-2.2424,-2.2924,-2.3526,-2.4323,-2.5522,-2.6283,-2.7086,-2.7473,-2.767,-2.7655,-2.7625,-2.756,-2.7634,-2.7694,-2.7649,-2.8182,-2.9027,-2.9234,-3.0054,-3.1005,-3.1884,-3.2187,-3.2386,-3.2621,-3.3,-3.3339,-3.3694,-3.4083,-3.459,-3.5199,-3.5639,-3.5667,-3.6097,-3.6305,-3.608,-3.6453,-3.6602,-3.6844,-3.7219,-3.7675,-3.7881,-3.8373,-3.8689,-3.8707,-3.8707,-3.8707,-3.867,-3.8414,-3.8102,-3.7679,-3.7397,-3.6817,-3.6285,-3.6193,-3.6486,-3.7367,-3.7973,-3.8524,-3.8634,-3.8707,-3.8707,-3.8707,-3.8707,-3.8707,-3.8707,-3.8707,-3.8707,-3.8707,-3.8707,-3.8707,-3.8707,-3.8707,-3.8707,-3.8707,-3.8707,-3.8707,-3.8707,-3.8707,-3.8707,-3.8707,-3.8707,-3.8707,-3.8707,-3.8707,-3.8792,-3.8884,-3.8913,-3.8923,-3.9045,-3.9205,-3.9249,-3.9358,-3.9603,-3.9759,-3.9757,-3.9622,-3.9476,-3.9427,-3.9571,-3.9571,-3.9451,-3.9427,-3.9402,-1.6768,-1.6797,-1.687,-1.7438,-1.8422,-1.9166,-1.9946,-2.0716,-2.1292,-2.1575,-2.1581,-2.1644,-2.1863,-2.2604,-2.4216,-2.5037,-2.5658,-2.6567,-2.7179,-2.732,-2.7485,-2.753,-2.753,-2.756,-2.766,-2.7725,-2.7675,-2.7974,-2.8728,-2.8872,-2.964,-3.0959,-3.1064,-3.11,-3.2063,-3.1918,-3.1799,-3.2364,-3.2584,-3.3245,-3.4363,-3.5159,-3.5447,-3.5674,-3.5993,-3.6157,-3.5789,-3.6088,-3.6185,-3.6065,-3.6546,-3.7062,-3.7546,-3.8279,-3.8634,-3.8707,-3.8707,-3.8689,-3.8597,-3.8248,-3.7698,-3.7331,-3.689,-3.6064,-3.5459,-3.532,-3.5889,-3.7375,-3.7668,-3.7955,-3.8432,-3.867,-3.8689,-3.8707,-3.8707,-3.8707,-3.8707,-3.8707,-3.8707,-3.8707,-3.8707,-3.8707,-3.8707,-3.8707,-3.8707,-3.8707,-3.8707,-3.8707,-3.8707,-3.8707,-3.8707,-3.8707,-3.8719,-3.8719,-3.8833,-3.8803,-3.8913,-3.9045,-3.9109,-3.9117,-3.9282,-3.9481,-3.9775,-3.9943,-4.0138,-4.0138,-3.9945,-3.9778,-3.9668,-3.9712,-3.9821,-3.9757,-3.9599,-3.9622,-3.9735,-1.5547,-1.6006,-1.625,-1.698,-1.7975,-1.8351,-1.9014,-1.9859,-2.031,-2.0656,-2.0978,-2.1031,-2.1361,-2.212,-2.3252,-2.392,-2.4604,-2.5842,-2.6406,-2.6792,-2.7141,-2.735,-2.7171,-2.7415,-2.771,-2.8057,-2.8332,-2.8873,-2.9182,-2.9303,-2.9839,-3.0967,-3.0981,-3.1069,-3.1715,-3.1376,-3.1427,-3.1715,-3.2144,-3.2978,-3.4018,-3.4614,-3.4868,-3.5099,-3.5621,-3.5862,-3.5989,-3.6016,-3.6381,-3.6437,-3.6698,-3.6559,-3.696,-3.7521,-3.8004,-3.801,-3.7991,-3.8212,-3.8542,-3.8267,-3.7661,-3.6945,-3.6376,-3.5752,-3.4816,-3.4752,-3.5147,-3.5964,-3.6982,-3.7606,-3.8046,-3.845,-3.8634,-3.8707,-3.8707,-3.8707,-3.8707,-3.8707,-3.8707,-3.8707,-3.867,-3.8579,-3.8524,-3.8542,-3.8597,-3.8707,-3.8707,-3.8707,-3.8707,-3.8707,-3.8707,-3.8707,-3.8719,-3.8762,-3.8894,-3.899,-3.9171,-3.9282,-3.9402,-3.9457,-3.9552,-3.9775,-4.0042,-4.0195,-4.0267,-4.0212,-4.0063,-4.0063,-4.0063,-4.0101,-4.012,-4.0043,-3.9984,-4.0082,-4.0157,-1.4398,-1.498,-1.5508,-1.6347,-1.7251,-1.7476,-1.8192,-1.9069,-1.9352,-1.9812,-2.0348,-2.0668,-2.1,-2.1671,-2.2444,-2.3414,-2.3979,-2.5034,-2.5575,-2.6158,-2.6707,-2.713,-2.722,-2.7445,-2.791,-2.8511,-2.8541,-2.9167,-2.9793,-2.9995,-3.0182,-3.1134,-3.1145,-3.1168,-3.119,-3.1207,-3.1258,-3.1326,-3.2134,-3.2968,-3.3701,-3.4189,-3.4469,-3.48,-3.5218,-3.5696,-3.6013,-3.6018,-3.6292,-3.6072,-3.6106,-3.5923,-3.6072,-3.6714,-3.7173,-3.7202,-3.7184,-3.7386,-3.7734,-3.7679,-3.7276,-3.6468,-3.5679,-3.4981,-3.4247,-3.4431,-3.4917,-3.5165,-3.6323,-3.7085,-3.7588,-3.8248,-3.8597,-3.8707,-3.8707,-3.8707,-3.867,-3.8542,-3.8358,-3.8175,-3.8157,-3.823,-3.823,-3.8303,-3.8432,-3.8652,-3.8707,-3.8707,-3.8707,-3.8689,-3.8719,-3.8719,-3.8873,-3.8894,-3.8999,-3.9178,-3.9364,-3.958,-3.9668,-3.98,-3.9924,-4.0043,-4.0232,-4.0339,-4.0389,-4.0372,-4.0283,-4.0406,-4.0489,-4.0389,-4.0319,-4.0406,-4.0422,-4.0489,-4.0489,-1.3936,-1.3701,-1.4531,-1.4968,-1.5206,-1.6182,-1.7054,-1.7886,-1.8507,-1.9193,-1.9962,-2.0438,-2.0966,-2.1694,-2.2636,-2.3548,-2.4375,-2.5236,-2.5637,-2.6105,-2.6632,-2.6811,-2.704,-2.7414,-2.7917,-2.8387,-2.8811,-2.9547,-3.0081,-3.0302,-3.0642,-3.1095,-3.119,-3.119,-3.1213,-3.1252,-3.1291,-3.1509,-3.229,-3.281,-3.3417,-3.3932,-3.4518,-3.4712,-3.5106,-3.5227,-3.4596,-3.49,-3.5027,-3.4724,-3.4954,-3.509,-3.5257,-3.5928,-3.6342,-3.6358,-3.6358,-3.6486,-3.6633,-3.6707,-3.6101,-3.5238,-3.4578,-3.4211,-3.3899,-3.3825,-3.4228,-3.4852,-3.5809,-3.6541,-3.7294,-3.8102,-3.8218,-3.823,-3.8083,-3.8095,-3.8113,-3.8212,-3.801,-3.7679,-3.7661,-3.7826,-3.8046,-3.8157,-3.8432,-3.8652,-3.8707,-3.8707,-3.875,-3.8732,-3.8762,-3.8785,-3.9017,-3.909,-3.9152,-3.9364,-3.969,-3.9884,-4.0004,-4.0157,-4.0319,-4.0406,-4.0372,-4.0425,-4.0457,-4.0489,-4.0489,-4.0489,-4.0489,-4.0489,-4.0489,-4.0489,-4.0489,-4.0489,-4.0489,-1.3271,-1.3184,-1.376,-1.415,-1.4449,-1.526,-1.6235,-1.7218,-1.7928,-1.8814,-1.9786,-2.0066,-2.0514,-2.1228,-2.1956,-2.2782,-2.3486,-2.453,-2.485,-2.5106,-2.548,-2.5839,-2.6341,-2.7269,-2.8186,-2.8221,-2.9143,-2.994,-3.0139,-3.058,-3.0902,-3.1151,-3.119,-3.119,-3.1213,-3.1376,-3.1511,-3.1711,-3.2282,-3.2773,-3.3197,-3.3437,-3.3894,-3.4172,-3.425,-3.4615,-3.4645,-3.4375,-3.4403,-3.4431,-3.4348,-3.433,-3.4431,-3.5138,-3.5441,-3.5514,-3.5514,-3.5514,-3.5642,-3.5881,-3.5899,-3.5073,-3.4321,-3.3807,-3.3807,-3.3807,-3.3925,-3.4421,-3.5064,-3.5862,-3.5973,-3.6677,-3.7124,-3.7228,-3.7349,-3.7452,-3.7672,-3.7881,-3.7551,-3.7165,-3.7349,-3.7588,-3.7808,-3.8028,-3.8358,-3.8652,-3.867,-3.8701,-3.8681,-3.8855,-3.8923,-3.9017,-3.9249,-3.9481,-3.9557,-3.9778,-4.0022,-4.0157,-4.0302,-4.0389,-4.0473,-4.0473,-4.0457,-4.0489,-4.0489,-4.0489,-4.0489,-4.0489,-4.0489,-4.0489,-4.0489,-4.0489,-4.0489,-4.0489,-4.0489,-1.2891,-1.292,-1.3203,-1.3657,-1.423,-1.4862,-1.5864,-1.6979,-1.7648,-1.849,-1.9598,-1.9901,-2.0351,-2.0912,-2.1697,-2.2434,-2.3183,-2.3852,-2.4089,-2.4448,-2.4866,-2.5091,-2.5666,-2.6443,-2.7437,-2.7758,-2.9023,-2.9988,-3.0167,-3.0869,-3.1123,-3.119,-3.119,-3.119,-3.1223,-3.1325,-3.1546,-3.1863,-3.2153,-3.2684,-3.3082,-3.3404,-3.3528,-3.3817,-3.3899,-3.4083,-3.4303,-3.4128,-3.4128,-3.4211,-3.4174,-3.388,-3.4017,-3.4265,-3.4577,-3.466,-3.4669,-3.4669,-3.4835,-3.5037,-3.5404,-3.4917,-3.4247,-3.3899,-3.3807,-3.3825,-3.3862,-3.3917,-3.4559,-3.499,-3.5045,-3.5944,-3.6787,-3.711,-3.7202,-3.7323,-3.7654,-3.7845,-3.7173,-3.6622,-3.6872,-3.6993,-3.6922,-3.7135,-3.7753,-3.8224,-3.8744,-3.8625,-3.8433,-3.8747,-3.9249,-3.9358,-3.9552,-3.9797,-4.0022,-4.0139,-4.025,-4.0302,-4.0406,-4.0422,-4.0489,-4.0489,-4.0489,-4.0489,-4.0489,-4.0489,-4.0489,-4.0489,-4.0489,-4.0489,-4.0489,-4.0489,-4.0489,-4.0489,-4.0489,-1.2891,-1.2891,-1.291,-1.3471,-1.4354,-1.4872,-1.58,-1.6915,-1.7645,-1.837,-1.9185,-2.0057,-2.0745,-2.1103,-2.1967,-2.2714,-2.3334,-2.3656,-2.3894,-2.4358,-2.4462,-2.4941,-2.5287,-2.588,-2.6539,-2.7301,-2.8394,-2.9353,-3.0023,-3.0666,-3.0987,-3.119,-3.119,-3.119,-3.1145,-3.0844,-3.1061,-3.1707,-3.2018,-3.2685,-3.3187,-3.3569,-3.3753,-3.378,-3.3807,-3.3954,-3.3954,-3.3935,-3.3935,-3.3954,-3.3954,-3.3807,-3.3862,-3.388,-3.4017,-3.3972,-3.3954,-3.3917,-3.3917,-3.3917,-3.4302,-3.4706,-3.4082,-3.3899,-3.3862,-3.3844,-3.4064,-3.4339,-3.4578,-3.488,-3.5257,-3.5642,-3.6266,-3.6573,-3.6601,-3.674,-3.6962,-3.7034,-3.6242,-3.5874,-3.6029,-3.6148,-3.5984,-3.6085,-3.6897,-3.7637,-3.8507,-3.8579,-3.8175,-3.8584,-3.9157,-3.9482,-3.9631,-4.0023,-4.0232,-4.0372,-4.0457,-4.0489,-4.0489,-4.0489,-4.0489,-4.0489,-4.0489,-4.0489,-4.0489,-4.0489,-4.0489,-4.0489,-4.0489,-4.0489,-4.0489,-4.0489,-4.0489,-4.0489,-4.0489,-1.2891,-1.2891,-1.2891,-1.3319,-1.402,-1.4601,-1.5322,-1.6173,-1.7419,-1.8406,-1.8956,-1.949,-2.0401,-2.1234,-2.1894,-2.2703,-2.3478,-2.3595,-2.3849,-2.3924,-2.3999,-2.4029,-2.4432,-2.5133,-2.5664,-2.6294,-2.7315,-2.8576,-2.9347,-3.0192,-3.0801,-3.1038,-3.1021,-3.119,-3.1355,-3.1476,-3.2089,-3.238,-3.2841,-3.3387,-3.357,-3.3716,-3.3807,-3.3807,-3.3807,-3.3807,-3.3788,-3.3788,-3.3697,-3.3715,-3.3697,-3.3715,-3.3752,-3.3752,-3.3807,-3.3807,-3.3807,-3.3807,-3.3807,-3.3862,-3.3899,-3.4045,-3.4045,-3.4027,-3.4422,-3.4045,-3.4431,-3.478,-3.4468,-3.4669,-3.4972,-3.4614,-3.4853,-3.4988,-3.507,-3.523,-3.5384,-3.5318,-3.4983,-3.5045,-3.5162,-3.6012,-3.6205,-3.5861,-3.639,-3.6643,-3.7357,-3.7713,-3.746,-3.8269,-3.8991,-3.9318,-3.9604,-4.0112,-4.0425,-4.0415,-4.0354,-4.0277,-4.0373,-4.0489,-4.0489,-4.0489,-4.0489,-4.0489,-4.0489,-4.0489,-4.0489,-4.0489,-4.0489,-4.0489,-4.0489,-4.0489,-4.0489,-4.0489,-4.0489,-1.2891,-1.2891,-1.2891,-1.3104,-1.36,-1.4329,-1.5211,-1.6232,-1.7447,-1.8349,-1.9012,-1.9473,-2.0398,-2.1544,-2.2263,-2.2615,-2.3595,-2.3595,-2.3595,-2.3595,-2.361,-2.3684,-2.4036,-2.4599,-2.5086,-2.5621,-2.6825,-2.816,-2.9076,-2.9753,-3.0311,-3.0598,-3.0548,-3.0294,-3.0543,-3.0959,-3.1479,-3.1684,-3.2105,-3.2855,-3.323,-3.3568,-3.3807,-3.3807,-3.3807,-3.3807,-3.3733,-3.3587,-3.3385,-3.3403,-3.3403,-3.3421,-3.344,-3.3642,-3.3752,-3.3807,-3.3807,-3.3807,-3.3807,-3.4211,-3.4192,-3.388,-3.3825,-3.4064,-3.4431,-3.4027,-3.4321,-3.4523,-3.4311,-3.441,-3.4555,-3.4057,-3.421,-3.4396,-3.4776,-3.5039,-3.5415,-3.545,-3.5226,-3.5133,-3.5071,-3.5882,-3.6236,-3.6094,-3.6001,-3.6062,-3.6159,-3.6461,-3.6914,-3.789,-3.8686,-3.9007,-3.9459,-3.9967,-4.0246,-4.0319,-4.0239,-4.0085,-4.0258,-4.0469,-4.0489,-4.0489,-4.0489,-4.0489,-4.0489,-4.0489,-4.0489,-4.0489,-4.0489,-4.0489,-4.0489,-4.0489,-4.0489,-4.0489,-4.0489,-1.2881,-1.2891,-1.2891,-1.2939,-1.3113,-1.4212,-1.5652,-1.7265,-1.7316,-1.8,-1.9044,-2.003,-2.0747,-2.1802,-2.2847,-2.3283,-2.346,-2.3475,-2.352,-2.355,-2.3535,-2.3608,-2.3837,-2.4261,-2.4871,-2.5571,-2.6482,-2.7661,-2.8854,-2.9516,-2.9939,-2.9837,-2.9533,-2.9211,-2.9296,-2.976,-3.0268,-3.0802,-3.1447,-3.2104,-3.254,-3.3109,-3.3238,-3.3275,-3.3293,-3.3311,-3.3201,-3.3036,-3.2742,-3.2651,-3.2651,-3.2651,-3.2871,-3.3366,-3.3623,-3.3807,-3.3807,-3.3807,-3.388,-3.4376,-3.4321,-3.388,-3.3807,-3.3825,-3.3962,-3.4099,-3.44,-3.4537,-3.4423,-3.4346,-3.4301,-3.447,-3.4618,-3.5018,-3.5484,-3.5903,-3.6434,-3.6408,-3.6114,-3.587,-3.5614,-3.5775,-3.5496,-3.538,-3.5718,-3.5694,-3.5785,-3.5938,-3.6511,-3.763,-3.8339,-3.8623,-3.9115,-3.9781,-4.0008,-4.0162,-4.0277,-4.0181,-4.0315,-4.0489,-4.0489,-4.0489,-4.0489,-4.0489,-4.0489,-4.0489,-4.0489,-4.0489,-4.0489,-4.0489,-4.0489,-4.0489,-4.0489,-4.0489,-4.0489,-1.2403,-1.2881,-1.2891,-1.2891,-1.3065,-1.4201,-1.5513,-1.6665,-1.6764,-1.7213,-1.7925,-1.86,-1.971,-2.0556,-2.1703,-2.2166,-2.2607,-2.3011,-2.3146,-2.3206,-2.332,-2.3758,-2.407,-2.4337,-2.4941,-2.5572,-2.6274,-2.7061,-2.8073,-2.8958,-2.8941,-2.8501,-2.8704,-2.8317,-2.8203,-2.8659,-2.9396,-3.0143,-3.0812,-3.1364,-3.1678,-3.2118,-3.2247,-3.2302,-3.232,-3.232,-3.2228,-3.2449,-3.2192,-3.1843,-3.232,-3.2577,-3.2651,-3.2871,-3.3073,-3.3752,-3.3807,-3.3807,-3.3844,-3.4027,-3.4082,-3.3917,-3.387,-3.4211,-3.4338,-3.4397,-3.4506,-3.4674,-3.4604,-3.4544,-3.4674,-3.4854,-3.492,-3.5134,-3.5496,-3.576,-3.6159,-3.6084,-3.5799,-3.578,-3.5552,-3.553,-3.5196,-3.528,-3.5573,-3.5479,-3.5456,-3.5609,-3.6128,-3.7286,-3.7973,-3.8296,-3.9065,-3.9777,-3.9873,-3.9988,-4.0181,-4.0315,-4.0315,-4.0373,-4.0469,-4.0469,-4.0489,-4.0489,-4.0489,-4.0489,-4.0489,-4.0489,-4.0489,-4.0489,-4.0489,-4.0489,-4.0489,-4.0489,-4.0489,-1.2236,-1.2881,-1.2891,-1.3162,-1.3742,-1.4652,-1.5644,-1.6392,-1.6534,-1.6926,-1.7768,-1.8344,-1.9153,-2.0387,-2.1348,-2.1769,-2.1859,-2.2338,-2.2615,-2.2768,-2.2944,-2.3302,-2.3717,-2.4334,-2.489,-2.5475,-2.6142,-2.6922,-2.767,-2.8129,-2.8213,-2.7941,-2.818,-2.752,-2.7317,-2.7823,-2.8556,-2.9376,-3.0143,-3.0734,-3.0999,-3.1182,-3.1366,-3.1311,-3.1329,-3.1329,-3.1311,-3.177,-3.1347,-3.1109,-3.1715,-3.21,-3.232,-3.2651,-3.3164,-3.3788,-3.3807,-3.3807,-3.3862,-3.4211,-3.4082,-3.3999,-3.416,-3.446,-3.4437,-3.4352,-3.4801,-3.5105,-3.4927,-3.4827,-3.502,-3.5211,-3.5134,-3.5108,-3.5193,-3.5293,-3.5331,-3.5331,-3.5312,-3.5315,-3.5346,-3.5396,-3.5398,-3.546,-3.5474,-3.546,-3.546,-3.5518,-3.6075,-3.7031,-3.7642,-3.7969,-3.8969,-3.9873,-3.9873,-3.9854,-4.0046,-4.0085,-3.9835,-3.9931,-4.0254,-4.0292,-4.0142,-4.0277,-4.0489,-4.0489,-4.0489,-4.0489,-4.0489,-4.0489,-4.0489,-4.0489,-4.0489,-4.0489,-4.0489,-1.2187,-1.2929,-1.2929,-1.3621,-1.4698,-1.532,-1.592,-1.6466,-1.6534,-1.7136,-1.8118,-1.8712,-1.9464,-2.0304,-2.1099,-2.138,-2.144,-2.171,-2.2049,-2.2209,-2.2432,-2.2776,-2.3401,-2.4083,-2.457,-2.516,-2.5848,-2.6657,-2.7401,-2.7706,-2.7689,-2.7654,-2.7199,-2.6793,-2.6893,-2.725,-2.7892,-2.8443,-2.9313,-3.0003,-3.0259,-3.0723,-3.1201,-3.1072,-3.1054,-3.1054,-3.0925,-3.065,-3.0173,-3.0411,-3.0779,-3.1256,-3.1715,-3.2651,-3.3348,-3.3697,-3.3697,-3.3807,-3.3935,-3.4229,-3.4246,-3.4371,-3.4735,-3.4758,-3.4591,-3.4536,-3.4988,-3.5148,-3.4965,-3.5037,-3.5221,-3.5293,-3.5248,-3.5258,-3.532,-3.5335,-3.532,-3.535,-3.5383,-3.5383,-3.5398,-3.5446,-3.5446,-3.5507,-3.5507,-3.5507,-3.5507,-3.5507,-3.593,-3.6776,-3.7219,-3.7603,-3.8488,-3.9373,-3.9738,-3.9758,-3.995,-3.9873,-3.9662,-3.9815,-4.0335,-4.0123,-3.9719,-4.0085,-4.0489,-4.0489,-4.0489,-4.0489,-4.0489,-4.0489,-4.0489,-4.0489,-4.0489,-4.0489,-4.0489,-1.1792,-1.2929,-1.3372,-1.405,-1.4744,-1.5365,-1.5964,-1.6479,-1.6534,-1.6938,-1.7531,-1.8135,-1.8736,-1.9575,-2.0522,-2.0767,-2.0498,-2.1066,-2.1353,-2.1599,-2.1818,-2.2429,-2.3039,-2.3702,-2.4166,-2.4726,-2.5458,-2.6218,-2.6691,-2.6877,-2.6928,-2.6928,-2.6556,-2.6471,-2.6606,-2.698,-2.7412,-2.7926,-2.8532,-2.9193,-2.9489,-2.942,-2.9567,-2.9641,-2.9677,-2.9769,-2.9806,-3.0081,-2.9677,-2.9604,-3.0136,-3.0411,-3.0558,-3.2063,-3.2779,-3.2999,-3.3476,-3.3687,-3.3915,-3.4126,-3.4131,-3.4235,-3.447,-3.4663,-3.4772,-3.4851,-3.4925,-3.5034,-3.5138,-3.5254,-3.5354,-3.5369,-3.5369,-3.5383,-3.5446,-3.5398,-3.5383,-3.5427,-3.5474,-3.5507,-3.5507,-3.5507,-3.5507,-3.5507,-3.5507,-3.5507,-3.5507,-3.5545,-3.5738,-3.6315,-3.6738,-3.7161,-3.7834,-3.8584,-3.9181,-3.9815,-4.0085,-4.0142,-4.0027,-4.0219,-4.0412,-4.0277,-4.0065,-4.0258,-4.0489,-4.0489,-4.0489,-4.0489,-4.0489,-4.0489,-4.0489,-4.0489,-4.0489,-4.0489,-4.0489,-1.1425,-1.254,-1.3721,-1.4376,-1.4835,-1.5644,-1.6194,-1.6479,-1.6522,-1.6957,-1.7622,-1.8009,-1.8408,-1.8925,-1.9856,-2.0168,-1.9839,-2.0408,-2.0807,-2.108,-2.1397,-2.2048,-2.2671,-2.3289,-2.3627,-2.4157,-2.4763,-2.5355,-2.5778,-2.5693,-2.5709,-2.5778,-2.5778,-2.5946,-2.6165,-2.665,-2.722,-2.788,-2.8228,-2.859,-2.8952,-2.8975,-2.8975,-2.8975,-2.8975,-2.8975,-2.9108,-2.9475,-2.9329,-2.9347,-2.9861,-3.0852,-3.1182,-3.1843,-3.2485,-3.2944,-3.3311,-3.3474,-3.3762,-3.3931,-3.4056,-3.4269,-3.4574,-3.4908,-3.5,-3.5088,-3.5223,-3.532,-3.532,-3.5432,-3.5432,-3.5446,-3.532,-3.5289,-3.5398,-3.546,-3.5446,-3.546,-3.5507,-3.5507,-3.5507,-3.5507,-3.5507,-3.5507,-3.5507,-3.5507,-3.5507,-3.5507,-3.5699,-3.5897,-3.6295,-3.6873,-3.7623,-3.8373,-3.9161,-3.9835,-4.0354,-4.0373,-4.0296,-4.0027,-3.995,-4.0296,-4.0489,-4.0489,-4.0489,-4.0489,-4.0489,-4.0489,-4.0489,-4.0489,-4.0489,-4.0489,-4.0489,-4.0489,-4.0489,-1.1275,-1.2159,-1.3935,-1.4709,-1.488,-1.5976,-1.6479,-1.6534,-1.6522,-1.706,-1.7866,-1.8035,-1.8469,-1.9009,-1.9442,-1.9617,-1.9779,-1.9974,-2.0312,-2.0709,-2.0989,-2.16,-2.2233,-2.2883,-2.3228,-2.3583,-2.4103,-2.4425,-2.4794,-2.4794,-2.4794,-2.4557,-2.4642,-2.4845,-2.5459,-2.6065,-2.6743,-2.7591,-2.8118,-2.8572,-2.8839,-2.8975,-2.8975,-2.8975,-2.8975,-2.8975,-2.8975,-2.9017,-2.9035,-2.9219,-2.9586,-3.032,-3.098,-3.1256,-3.1861,-3.2357,-3.2504,-3.2944,-3.3519,-3.3807,-3.4147,-3.4557,-3.4906,-3.5122,-3.519,-3.5289,-3.5427,-3.5474,-3.5493,-3.5493,-3.5507,-3.546,-3.5339,-3.5273,-3.5398,-3.5507,-3.5507,-3.5507,-3.5507,-3.5507,-3.5507,-3.5507,-3.5507,-3.5507,-3.5507,-3.5507,-3.5507,-3.5507,-3.5565,-3.5738,-3.6026,-3.6834,-3.7719,-3.8469,-3.9181,-3.9873,-4.0489,-4.0412,-4.0258,-3.9777,-3.9585,-4.0162,-4.0489,-4.0489,-4.0489,-4.0489,-4.0489,-4.0489,-4.0489,-4.0489,-4.0489,-4.0489,-4.0489,-4.0489,-4.0489,-1.1534,-1.2803,-1.4154,-1.4709,-1.488,-1.5976,-1.6534,-1.6534,-1.6522,-1.6897,-1.7474,-1.8012,-1.8593,-1.953,-1.9617,-1.9705,-1.9705,-1.9726,-1.998,-2.0398,-2.0862,-2.1306,-2.1831,-2.2495,-2.2873,-2.3224,-2.3545,-2.3883,-2.3968,-2.4252,-2.4455,-2.4354,-2.4388,-2.4645,-2.5114,-2.579,-2.6553,-2.7371,-2.8116,-2.8658,-2.8887,-2.8975,-2.8975,-2.8975,-2.8975,-2.8975,-2.8975,-2.8975,-2.8994,-2.9072,-2.9219,-2.9599,-3.0026,-3.0448,-3.0907,-3.1483,-3.1629,-3.2213,-3.2789,-3.3351,-3.3815,-3.4585,-3.4918,-3.5239,-3.5304,-3.5398,-3.5474,-3.5474,-3.5507,-3.5507,-3.5507,-3.5507,-3.5398,-3.5398,-3.5474,-3.5507,-3.5507,-3.5507,-3.5507,-3.5507,-3.5507,-3.5507,-3.5507,-3.5507,-3.5507,-3.5507,-3.5507,-3.5507,-3.5507,-3.5641,-3.5815,-3.6757,-3.7738,-3.8469,-3.9161,-3.995,-4.0489,-4.0412,-4.0354,-4.0085,-4.0046,-4.0277,-4.0489,-4.0489,-4.0489,-4.0489,-4.0489,-4.0489,-4.0489,-4.0489,-4.0489,-4.0489,-4.0489,-4.0489,-4.0489]}]]